[[{"header":{"parameterUnit":"m.s-1","parameterCategory":1,"la1":30.6,"la2":28.766,"lo1":-90.7593,"lo2":-88.6598,"dx":0.0162,"dy":0.0183,"nx":116,"ny":114,"refTime":"2022-11-13T18:00:00:Z","depth":0,"parameterNumber":2,"parameterNumberName":"U-component_of_WINDS"},"data":[0.0,0.0,0.0,0.0,0.0,0.0,0.0,0.0,0.0,0.0,0.0,0.0,0.0,0.0,0.0,0.0,0.0,0.0,0.0,0.0,0.0,0.0,0.0,0.0,0.0,0.0,0.0,0.0,0.0,0.0,0.0,0.0,0.0,0.0,0.0,0.0,0.0,0.0,0.0,0.0,0.0,0.0,0.0,0.0,0.0,0.0,0.0,0.0,0.0,0.0,0.0,0.0,0.0,0.0,0.0,0.0,0.0,0.0,0.0,0.0,0.0,0.0,0.0,0.0,0.0,0.0,0.0,0.0,0.0,0.0,0.0,0.0,0.0,0.0,0.0,0.0,0.0,0.0,0.0,0.0,0.0,0.0,0.0,0.0,0.0,0.0,0.0,0.0,0.0,0.0,0.0,0.0,0.0,0.0,0.0,0.0,0.0,0.0,0.0,0.0,0.0,0.0,0.0,0.0,0.0,0.0,0.0,0.0,0.0,0.0,0.0,0.0,0.0,0.0,0.0,0.0,0.0,0.0,0.0,0.0,0.0,0.0,0.0,0.0,0.0,0.0,0.0,0.0,0.0,0.0,0.0,0.0,0.0,0.0,0.0,0.0,0.0,0.0,0.0,0.0,0.0,0.0,0.0,0.0,0.0,0.0,0.0,0.0,0.0,0.0,0.0,0.0,0.0,0.0,0.0,0.0,0.0,0.0,0.0,0.0,0.0,0.0,0.0,0.0,0.0,0.0,0.0,0.0,0.0,0.0,0.0,0.0,0.0,0.0,0.0,0.0,0.0,0.0,0.0,0.0,0.0,0.0,0.0,0.0,0.0,0.0,0.0,0.0,0.0,0.0,0.0,0.0,0.0,0.0,0.0,0.0,0.0,0.0,0.0,0.0,0.0,0.0,0.0,0.0,0.0,0.0,0.0,0.0,0.0,0.0,0.0,0.0,0.0,0.0,0.0,0.0,0.0,0.0,0.0,0.0,0.0,0.0,0.0,0.0,0.0,0.0,0.0,0.0,0.0,0.0,0.0,0.0,0.0,0.0,0.0,0.0,0.0,0.0,0.0,0.0,0.0,0.0,0.0,0.0,0.0,0.0,0.0,0.0,0.0,0.0,0.0,0.0,0.0,0.0,0.0,0.0,0.0,0.0,0.0,0.0,0.0,0.0,0.0,0.0,0.0,0.0,0.0,0.0,0.0,0.0,0.0,0.0,0.0,0.0,0.0,0.0,0.0,0.0,0.0,0.0,0.0,0.0,0.0,0.0,0.0,0.0,0.0,0.0,0.0,0.0,0.0,0.0,0.0,0.0,0.0,0.0,0.0,0.0,0.0,0.0,0.0,0.0,0.0,0.0,0.0,0.0,0.0,0.0,0.0,0.0,0.0,0.0,0.0,0.0,0.0,0.0,0.0,0.0,0.0,0.0,0.0,0.0,0.0,0.0,0.0,0.0,0.0,0.0,0.0,0.0,0.0,0.0,0.0,0.0,0.0,0.0,0.0,0.0,0.0,0.0,0.0,0.0,0.0,0.0,0.0,0.0,0.0,0.0,0.0,0.0,0.0,0.0,0.0,0.0,0.0,0.0,0.0,0.0,0.0,0.0,0.0,0.0,0.0,0.0,0.0,0.0,0.0,0.0,0.0,0.0,0.0,0.0,0.0,0.0,0.0,0.0,0.0,0.0,0.0,0.0,0.0,0.0,0.0,0.0,0.0,0.0,0.0,0.0,0.0,0.0,0.0,0.0,0.0,0.0,0.0,0.0,0.0,0.0,0.0,0.0,0.0,0.0,0.0,0.0,0.0,0.0,0.0,0.0,0.0,0.0,0.0,0.0,0.0,0.0,0.0,0.0,0.0,0.0,0.0,0.0,0.0,0.0,0.0,0.0,0.0,0.0,0.0,0.0,0.0,0.0,0.0,0.0,0.0,0.0,0.0,0.0,0.0,0.0,0.0,0.0,0.0,0.0,0.0,0.0,0.0,0.0,0.0,0.0,0.0,0.0,0.0,0.0,0.0,0.0,0.0,0.0,0.0,0.0,0.0,0.0,0.0,0.0,0.0,0.0,0.0,0.0,0.0,0.0,0.0,0.0,0.0,0.0,0.0,0.0,0.0,0.0,0.0,0.0,0.0,0.0,0.0,0.0,0.0,0.0,0.0,0.0,0.0,0.0,0.0,0.0,0.0,0.0,0.0,0.0,0.0,0.0,0.0,0.0,0.0,0.0,0.0,0.0,0.0,0.0,0.0,0.0,0.0,0.0,0.0,0.0,0.0,0.0,0.0,0.0,0.0,0.0,0.0,0.0,0.0,0.0,0.0,0.0,0.0,0.0,0.0,0.0,0.0,0.0,0.0,0.0,0.0,0.0,0.0,0.0,0.0,0.0,0.0,0.0,0.0,0.0,0.0,0.0,0.0,0.0,0.0,0.0,0.0,0.0,0.0,0.0,0.0,0.0,0.0,0.0,0.0,0.0,0.0,0.0,0.0,0.0,0.0,0.0,0.0,0.0,0.0,0.0,0.0,0.0,0.0,0.0,0.0,0.0,0.0,0.0,0.0,0.0,0.0,0.0,0.0,0.0,0.0,0.0,0.0,0.0,0.0,0.0,0.0,0.0,0.0,0.0,0.0,0.0,0.0,0.0,0.0,0.0,0.0,0.0,0.0,0.0,0.0,0.0,0.0,0.0,0.0,0.0,0.0,0.0,0.0,0.0,0.0,0.0,0.0,0.0,0.0,0.0,0.0,0.0,0.0,0.0,0.0,0.0,0.0,0.0,0.0,0.0,0.0,0.0,0.0,0.0,0.0,0.0,0.0,0.0,0.0,0.0,0.0,0.0,0.0,0.0,0.0,0.0,0.0,0.0,0.0,0.0,0.0,0.0,0.0,0.0,0.0,0.0,0.0,0.0,0.0,0.0,0.0,0.0,0.0,0.0,0.0,0.0,0.0,0.0,0.0,0.0,0.0,0.0,0.0,0.0,0.0,0.0,0.0,0.0,0.0,0.0,0.0,0.0,0.0,0.0,0.0,0.0,0.0,0.0,0.0,0.0,0.0,0.0,0.0,0.0,0.0,0.0,0.0,0.0,0.0,0.0,0.0,0.0,0.0,0.0,0.0,0.0,0.0,0.0,0.0,0.0,0.0,0.0,0.0,0.0,0.0,0.0,0.0,0.0,0.0,0.0,0.0,0.0,0.0,0.0,0.0,0.0,0.0,0.0,0.0,0.0,0.0,0.0,0.0,0.0,0.0,0.0,0.0,0.0,0.0,0.0,0.0,0.0,0.0,0.0,0.0,0.0,0.0,0.0,0.0,0.0,0.0,0.0,0.0,0.0,0.0,0.0,0.0,0.0,0.0,0.0,0.0,0.0,0.0,0.0,0.0,0.0,0.0,0.0,0.0,0.0,0.0,0.0,0.0,0.0,0.0,0.0,0.0,0.0,0.0,0.0,0.0,0.0,0.0,0.0,0.0,0.0,0.0,0.0,0.0,0.0,0.0,0.0,0.0,0.0,0.0,0.0,0.0,0.0,0.0,0.0,0.0,0.0,0.0,0.0,0.0,0.0,0.0,0.0,0.0,0.0,0.0,0.0,0.0,0.0,0.0,0.0,0.0,0.0,0.0,0.0,0.0,0.0,0.0,0.0,0.0,0.0,0.0,0.0,0.0,0.0,0.0,0.0,0.0,0.0,0.0,0.0,0.0,0.0,0.0,0.0,0.0,0.0,0.0,0.0,0.0,0.0,0.0,0.0,0.0,0.0,0.0,0.0,0.0,0.0,0.0,0.0,0.0,0.0,0.0,0.0,0.0,0.0,0.0,0.0,0.0,0.0,0.0,0.0,0.0,0.0,0.0,0.0,0.0,0.0,0.0,0.0,0.0,0.0,0.0,0.0,0.0,0.0,0.0,0.0,0.0,0.0,0.0,0.0,0.0,0.0,0.0,0.0,0.0,0.0,0.0,0.0,0.0,0.0,0.0,0.0,0.0,0.0,0.0,0.0,0.0,0.0,0.0,0.0,0.0,0.0,0.0,0.0,0.0,0.0,0.0,0.0,0.0,0.0,0.0,0.0,0.0,0.0,0.0,0.0,0.0,0.0,0.0,0.0,0.0,0.0,0.0,0.0,0.0,0.0,0.0,0.0,0.0,0.0,0.0,0.0,0.0,0.0,0.0,0.0,0.0,0.0,0.0,0.0,0.0,0.0,0.0,0.0,0.0,0.0,0.0,0.0,0.0,0.0,0.0,0.0,0.0,0.0,0.0,0.0,0.0,0.0,0.0,0.0,0.0,0.0,0.0,0.0,0.0,0.0,0.0,0.0,0.0,0.0,0.0,0.0,0.0,0.0,0.0,0.0,0.0,0.0,0.0,0.0,0.0,0.0,0.0,0.0,0.0,0.0,0.0,0.0,0.0,0.0,0.0,0.0,0.0,0.0,0.0,0.0,0.0,0.0,0.0,0.0,0.0,0.0,0.0,0.0,0.0,0.0,0.0,0.0,0.0,0.0,0.0,0.0,0.0,0.0,0.0,0.0,0.0,0.0,0.0,0.0,0.0,0.0,0.0,0.0,0.0,0.0,0.0,0.0,0.0,0.0,0.0,0.0,0.0,0.0,0.0,0.0,0.0,0.0,0.0,0.0,0.0,0.0,0.0,0.0,0.0,0.0,0.0,0.0,0.0,0.0,0.0,0.0,0.0,0.0,0.0,0.0,0.0,0.0,0.0,0.0,0.0,0.0,0.0,0.0,0.0,0.0,0.0,0.0,0.0,0.0,0.0,0.0,0.0,0.0,0.0,0.0,0.0,0.0,0.0,0.0,0.0,0.0,0.0,0.0,0.0,0.0,0.0,0.0,0.0,0.0,0.0,0.0,0.0,0.0,0.0,0.0,0.0,0.0,0.0,0.0,0.0,0.0,0.0,0.0,0.0,0.0,0.0,0.0,0.0,0.0,0.0,0.0,0.0,0.0,0.0,0.0,0.0,0.0,0.0,0.0,0.0,0.0,0.0,0.0,0.0,0.0,0.0,0.0,0.0,0.0,0.0,0.0,0.0,0.0,0.0,0.0,0.0,0.0,0.0,0.0,0.0,0.0,0.0,0.0,0.0,0.0,0.0,0.0,0.0,0.0,0.0,0.0,0.0,0.0,0.0,0.0,0.0,0.0,0.0,0.0,0.0,0.0,0.0,0.0,0.0,0.0,0.0,0.0,0.0,0.0,0.0,0.0,0.0,0.0,0.0,0.0,0.0,0.0,0.0,0.0,0.0,0.0,0.0,0.0,0.0,0.0,0.0,0.0,0.0,0.0,0.0,0.0,0.0,0.0,0.0,0.0,0.0,0.0,0.0,0.0,0.0,0.0,0.0,0.0,0.0,0.0,0.0,0.0,0.0,0.0,0.0,0.0,0.0,0.0,0.0,0.0,0.0,0.0,0.0,0.0,0.0,0.0,0.0,0.0,0.0,0.0,0.0,0.0,0.0,0.0,0.0,0.0,0.0,0.0,0.0,0.0,0.0,0.0,0.0,0.0,0.0,0.0,0.0,0.0,0.0,0.0,0.0,0.0,0.0,0.0,0.0,0.0,0.0,0.0,0.0,0.0,0.0,0.0,0.0,0.0,0.0,0.0,0.0,0.0,0.0,0.0,0.0,0.0,0.0,0.0,0.0,0.0,0.0,0.0,0.0,0.0,0.0,0.0,0.0,0.0,0.0,0.0,0.0,0.0,0.0,0.0,0.0,0.0,0.0,0.0,0.0,0.0,0.0,0.0,0.0,0.0,0.0,0.0,0.0,0.0,0.0,0.0,0.0,0.0,0.0,0.0,0.0,0.0,0.0,0.0,0.0,0.0,0.0,0.0,0.0,0.0,0.0,0.0,0.0,0.0,0.0,0.0,0.0,0.0,0.0,0.0,0.0,0.0,0.0,0.0,0.0,0.0,0.0,0.0,0.0,0.0,0.0,0.0,0.0,0.0,0.0,0.0,0.0,0.0,0.0,0.0,0.0,0.0,0.0,0.0,0.0,0.0,0.0,0.0,0.0,0.0,0.0,0.0,0.0,0.0,0.0,0.0,0.0,0.0,0.0,0.0,0.0,0.0,0.0,0.0,0.0,0.0,0.0,0.0,0.0,0.0,2.2211,1.968,0.0,0.0,0.0,0.0,0.0,0.0,0.0,0.0,0.0,0.0,0.0,0.0,0.0,0.0,0.0,0.0,0.0,0.0,0.0,0.0,0.0,0.0,0.0,0.8215,0.8324,0.8324,0.8722,0.0,0.0,0.0,0.0,0.0,0.0,0.0,0.869,0.8877,0.9493,1.0547,1.0956,1.2383,1.4687,1.3766,1.2779,1.1736,0.0,0.0,0.0,0.0,0.0,0.0,0.0,0.0,0.0,0.0,0.0,0.0,0.0,0.0,0.0,0.0,0.0,0.0,0.0,0.0,0.0,0.0,0.0,0.0,0.0,0.0,0.0,0.0,0.0,0.0,0.0,0.0,0.0,0.0,0.0,0.0,0.0,0.0,0.0,0.0,0.0,0.0,0.0,0.0,0.0,0.0,0.0,0.0,0.0,0.0,0.0,0.0,0.0,0.0,0.0,0.0,0.0,0.0,0.0,0.0,0.0,0.0,0.0,0.0,0.0,0.0,0.0,0.0,0.0,0.0,2.4546,2.2669,0.0,0.0,0.0,0.0,0.0,0.0,0.0,0.0,0.0,0.0,0.0,0.0,0.0,0.0,0.0,0.0,0.0,0.0,0.0,0.0,0.0,0.8029,0.8553,0.8906,0.9171,0.9317,0.963,0.9718,0.9473,0.9316,0.0,0.0,0.0,0.0,0.9336,0.9806,1.0868,1.2533,1.401,1.5918,1.8191,1.8259,1.7314,1.5478,1.3489,0.0,0.0,0.0,0.0,0.0,0.0,0.0,0.0,0.0,0.0,0.0,0.0,0.0,0.0,0.0,0.0,0.0,0.0,0.0,0.0,0.0,0.0,0.0,0.0,0.0,0.0,0.0,0.0,0.0,0.0,0.0,0.0,0.0,0.0,0.0,0.0,0.0,0.0,0.0,0.0,0.0,0.0,0.0,0.0,0.0,0.0,0.0,0.0,0.0,0.0,0.0,0.0,0.0,0.0,0.0,0.0,0.0,0.0,0.0,0.0,0.0,0.0,0.0,2.6109,2.6489,2.6928,2.7409,2.8611,3.0148,2.7361,2.6585,2.7053,2.4498,0.0,0.0,0.0,0.0,0.0,0.0,0.0,0.0,0.0,0.0,0.0,0.0,0.0,0.0,0.0,0.0,0.0,0.0,0.0,0.8602,0.9367,0.9494,0.9825,1.0576,1.0693,1.0879,1.1233,1.0547,0.0,0.0,0.0,1.0293,1.0634,1.1443,1.2503,1.3847,1.7744,2.0224,2.1299,2.167,2.1659,2.1249,1.8064,1.6377,1.5829,0.0,0.0,0.0,0.0,0.0,0.0,0.0,0.0,0.0,0.0,0.0,0.0,0.0,0.0,0.0,0.0,0.0,0.0,0.0,0.0,0.0,0.0,0.0,0.0,0.0,0.0,0.0,0.0,0.0,0.0,0.0,0.0,0.0,0.0,0.0,0.0,0.0,0.0,0.0,0.0,0.0,2.2543,2.2757,0.0,0.0,0.0,0.0,0.0,0.0,0.0,0.0,0.0,0.0,0.0,0.0,0.0,2.6021,2.6172,2.8612,2.9835,2.9848,3.1298,3.2051,3.2113,3.2202,3.2378,3.2617,3.2183,0.0,2.8613,2.8199,0.0,0.0,0.0,0.0,0.0,0.0,0.0,0.0,0.0,0.0,0.0,0.0,0.0,0.0,0.0,0.0,0.0,0.0,0.0,0.0,0.0,1.2088,1.2871,1.3756,1.4271,1.4111,1.3076,1.2656,0.0,0.0,1.1115,1.1212,1.1619,1.2966,1.5254,1.8469,2.1602,2.345,2.403,2.4215,2.4167,2.3909,2.2394,2.04,1.8066,1.6576,0.0,0.0,0.0,0.0,0.0,0.0,0.0,0.0,0.0,0.0,0.0,0.0,0.0,0.0,0.0,0.0,0.0,0.0,0.0,0.0,0.0,0.0,0.0,0.0,0.0,0.0,0.0,0.0,0.0,0.0,0.0,0.0,0.0,0.0,0.0,0.0,0.0,0.0,0.0,2.2155,2.3572,2.4858,2.3263,2.1832,0.0,0.0,0.0,0.0,0.0,0.0,0.0,0.0,0.0,2.8003,2.9459,3.0502,3.1097,3.2943,3.3859,3.3859,3.3768,3.3718,3.373,3.4033,3.4167,3.4214,3.5043,3.4688,3.3379,3.0878,2.8509,2.6435,0.0,0.0,0.0,0.0,2.632,2.6248,0.0,0.0,0.0,0.0,0.0,0.0,0.0,0.0,0.0,0.0,0.0,0.0,1.3352,1.458,1.5689,1.6656,1.7243,1.6904,1.5362,1.464,1.3769,1.2621,1.2163,1.2267,1.3003,1.4997,1.8232,2.2726,2.4144,2.5242,2.604,2.604,2.5864,2.5581,2.5473,2.3636,2.0508,1.9004,1.783,1.6838,0.0,0.0,0.0,0.0,0.0,0.0,0.0,0.0,0.0,0.0,0.0,0.0,0.0,0.0,0.0,0.0,0.0,0.0,0.0,0.0,0.0,0.0,0.0,0.0,0.0,0.0,0.0,0.0,0.0,0.0,0.0,0.0,0.0,0.0,0.0,0.0,0.0,2.3813,2.5218,2.6909,2.5607,2.4277,0.0,0.0,0.0,0.0,0.0,0.0,2.8083,2.8693,2.9774,3.1466,3.2859,3.3787,3.4212,3.5186,3.5673,3.5673,3.4569,3.4047,3.4058,3.4456,3.4846,3.5261,3.6369,3.7058,3.7111,3.3386,3.1352,3.0458,2.9256,2.8271,2.77,2.8976,2.9123,2.9059,0.0,0.0,0.0,0.0,0.0,0.0,0.0,0.0,0.0,0.0,0.0,1.3411,1.5083,1.6063,1.7106,1.8364,1.8166,1.8079,1.8354,1.6113,1.4907,1.5205,1.3672,1.3587,1.52,1.796,2.1181,2.4926,2.4405,2.5103,2.6928,2.6928,2.6918,2.6904,2.6504,2.5518,2.4001,2.1913,2.0762,2.0112,1.7467,0.0,0.0,0.0,0.0,0.0,0.0,0.0,0.0,0.0,0.0,0.0,0.0,0.0,0.0,0.0,0.0,0.0,0.0,0.0,0.0,0.0,0.0,0.0,0.0,0.0,0.0,0.0,0.0,0.0,0.0,0.0,0.0,0.0,0.0,0.0,0.0,0.0,0.0,2.8769,2.8681,0.0,0.0,0.0,0.0,2.701,2.8041,2.9848,3.2625,3.3269,3.3705,3.4016,3.4598,3.427,3.2896,3.3462,3.3746,3.3746,3.3667,3.3641,3.3615,3.3675,3.4419,3.5756,3.5833,3.6668,3.7826,3.6008,3.4336,3.2954,3.3049,3.2104,3.0817,3.1889,3.2261,3.2319,0.0,0.0,0.0,0.8995,0.8995,0.9189,0.9755,0.9951,1.0557,1.2003,1.3535,1.5166,1.6894,1.8586,2.0001,2.1025,2.122,2.0879,1.996,1.8232,1.7191,1.7074,1.5133,1.515,1.7479,1.9237,2.1376,2.4008,2.4068,2.5116,2.705,2.705,2.7466,2.8223,2.7803,2.7197,2.6412,2.4502,2.3051,2.1899,2.0622,1.9274,0.0,0.0,0.0,0.0,0.0,0.0,0.0,0.0,0.0,0.0,0.0,0.0,0.0,0.0,0.0,0.0,0.0,0.0,0.0,0.0,0.0,0.0,0.0,0.0,0.0,0.0,0.0,0.0,0.0,0.0,0.0,0.0,0.0,0.0,0.0,0.0,0.0,3.047,3.052,0.0,2.9227,2.9459,2.9628,2.9618,3.0612,3.1697,3.2843,3.3086,3.3386,3.3791,3.433,3.4355,3.3841,3.4397,3.4681,3.4669,3.3715,3.3285,3.3285,3.3285,3.356,3.4153,3.6076,3.718,3.7678,3.7705,3.691,3.5739,3.5824,3.5277,3.4497,3.487,3.501,3.4978,0.0,0.9681,0.0,0.9918,0.9953,1.0139,1.0693,1.1015,1.182,1.3525,1.5225,1.7044,1.9092,2.083,2.2185,2.3054,2.3386,2.3006,2.1759,2.0293,1.9115,1.8276,1.6726,1.7015,1.9423,2.0253,2.1725,2.3853,2.3638,2.4507,2.631,2.6836,2.7535,2.8319,2.862,2.8435,2.7829,2.6675,2.524,2.3707,2.3083,2.1907,2.0394,0.0,0.0,0.0,0.0,0.0,0.0,0.0,0.0,0.0,0.0,0.0,0.0,0.0,0.0,0.0,0.0,0.0,0.0,0.0,0.0,0.0,0.0,0.0,0.0,0.0,0.0,0.0,0.0,0.0,0.0,0.0,0.0,0.0,0.0,2.8845,3.0397,3.0921,3.1204,3.1081,3.0365,3.1096,3.1591,3.1541,3.2199,3.2822,3.3302,3.3343,3.3365,3.342,3.3775,3.3731,3.3217,3.3622,3.381,3.381,3.2815,3.2369,3.2369,3.2369,3.2644,3.3208,3.5156,3.6584,3.7547,3.8165,3.8276,3.8014,3.7613,3.7236,3.6934,3.6934,3.6934,3.6884,0.0,1.1018,1.1188,1.171,1.1794,1.1787,1.1729,1.2423,1.355,1.5204,1.6911,1.8978,2.1602,2.2625,2.3474,2.4323,2.4391,2.4215,2.3773,2.2113,2.0406,1.8747,1.8425,1.913,2.0944,2.1111,2.2291,2.4586,2.3144,2.3204,2.4703,2.6316,2.71,2.7215,2.8897,2.9158,2.835,2.834,2.7353,2.5688,2.4759,2.3493,2.2178,0.0,0.0,0.0,0.0,0.0,0.0,0.0,0.0,0.0,0.0,0.0,0.0,0.0,0.0,0.0,0.0,0.0,0.0,0.0,0.0,0.0,0.0,0.0,0.0,0.0,0.0,0.0,0.0,0.0,0.0,0.0,0.0,0.0,2.9582,2.9599,2.9689,3.0191,3.092,3.0971,2.9919,3.1177,3.2247,3.2734,3.2768,3.3215,3.4235,3.4279,3.3901,3.3067,3.3021,3.234,3.0918,3.0889,3.0889,3.0889,3.0889,3.0889,3.0889,3.0889,3.1681,3.3021,3.3077,3.4725,3.7385,3.7412,3.8269,3.9469,3.8442,3.8052,3.8052,3.8052,3.8015,3.7953,1.1553,1.1581,1.1636,1.1765,1.1763,1.182,1.209,1.2049,1.2927,1.5566,1.6878,1.8674,2.1569,2.292,2.3828,2.4342,2.4391,2.3861,2.2588,2.1139,1.9578,1.7896,1.923,2.0135,2.0411,2.0702,2.124,2.2072,2.169,2.2296,2.3932,2.5537,2.6921,2.8113,2.9451,2.9893,2.9658,2.9373,2.8584,2.7487,2.63,2.5137,2.4058,0.0,0.0,0.0,0.0,0.0,0.0,0.0,0.0,0.0,0.0,0.0,0.0,0.0,0.0,0.0,0.0,0.0,0.0,0.0,0.0,0.0,0.0,0.0,0.0,0.0,0.0,0.0,0.0,0.0,0.0,0.0,2.8163,2.9707,2.8762,3.0238,3.1479,3.1628,3.2432,3.2849,3.2568,3.2901,3.2939,3.2397,3.2358,3.2231,3.1889,3.1862,3.1751,3.1517,3.1488,3.1305,3.0889,3.0889,3.0889,3.0889,3.0889,3.0889,3.0889,3.0889,3.1112,3.1546,3.2644,3.3575,3.4392,3.5469,3.6135,3.6692,3.8524,3.9233,3.9233,3.9233,3.8321,3.7058,1.2048,1.2093,1.2235,1.2693,1.2503,1.2437,1.2893,1.2644,1.3477,1.65,1.7626,1.9385,2.26,2.3769,2.4502,2.4908,2.5113,2.4387,2.2384,2.058,1.936,1.8851,1.9775,2.0346,2.0401,2.0708,2.0942,2.1109,2.1109,2.1601,2.2584,2.4232,2.5863,2.7464,2.883,2.9738,3.0176,2.996,2.9471,2.8787,2.8044,2.6838,2.5487,2.5135,2.4819,2.4623,2.4888,2.4927,2.4942,2.5365,0.0,0.0,0.0,0.0,0.0,0.0,0.0,0.0,0.0,0.0,0.0,0.0,0.0,0.0,0.0,0.0,0.0,0.0,0.0,0.0,0.0,0.0,0.0,0.0,2.9123,3.0156,2.8954,3.0412,3.1706,3.1928,3.2078,3.2184,3.2184,3.2346,3.2257,3.1704,3.1667,3.1428,3.0937,3.0889,3.0889,3.0889,3.0889,3.0976,3.1152,3.1152,3.125,3.1455,3.1455,3.1455,3.1455,3.1455,3.1455,3.1475,3.2149,3.2779,3.3397,3.4099,3.4736,0.0,0.0,0.0,0.0,0.0,3.7127,3.6101,1.2499,1.2579,1.2899,1.3921,1.3533,1.3262,1.3813,1.3584,1.4409,1.7405,1.849,2.0319,2.3824,2.4686,2.5138,2.5441,2.5876,2.5068,2.2523,2.0252,1.948,2.0545,2.0144,2.016,2.0746,2.0975,2.1109,2.1109,2.1109,2.1109,2.1141,2.3014,2.4625,2.6067,2.7871,2.9277,3.0273,3.0273,3.0029,2.9667,2.9667,2.8474,2.6722,2.7163,2.682,2.6286,2.7427,2.7276,2.6609,2.7041,0.0,0.0,0.0,0.0,0.0,0.0,0.0,0.0,0.0,0.0,0.0,0.0,0.0,0.0,0.0,0.0,0.0,0.0,0.0,0.0,0.0,0.0,0.0,0.0,2.93,3.0179,2.9716,3.0335,3.0973,3.1407,3.0742,3.0273,3.0273,3.0644,3.0889,3.0889,3.0889,3.0889,3.0889,3.0889,0.0,0.0,0.0,3.1143,3.1514,3.1562,3.1787,3.2198,3.2198,3.2198,3.2198,3.2198,3.2198,3.2179,3.1758,3.2294,3.341,3.3072,3.3656,3.4831,3.5178,3.5288,3.5288,3.5288,3.5085,3.477,1.306,1.3056,1.3273,1.3988,1.3505,1.3223,1.3815,1.3035,1.3379,1.6177,1.7193,1.9015,2.257,2.3892,2.442,2.4107,2.4363,2.3503,2.1067,1.9665,1.9224,1.9938,2.0338,2.0668,2.1022,2.1082,2.1109,2.1109,2.1109,2.1109,2.1172,2.4132,2.5711,2.6128,2.9107,3.0568,3.0752,3.0752,3.0488,3.0078,3.0078,2.9414,2.8379,2.8177,2.8359,2.8742,2.8638,2.8841,2.9398,3.0977,2.9947,2.8163,2.9051,2.7946,0.0,0.0,0.0,0.0,0.0,0.0,0.0,0.0,0.0,0.0,0.0,0.0,0.0,0.0,0.0,0.0,0.0,0.0,0.0,2.9468,3.0769,3.1377,3.0247,3.0541,3.0782,3.0485,3.0641,3.0752,3.0752,3.084,3.0889,3.0889,3.0889,3.0889,3.0889,3.0889,3.0889,3.0889,3.1221,3.1406,3.1484,3.1865,3.212,3.2198,3.2198,0.0,3.2198,3.2198,3.2198,3.2189,3.211,3.2016,3.1929,3.185,3.1778,3.1998,3.4359,3.5288,3.5288,3.5288,3.3686,3.1509,1.3198,1.3198,1.347,1.4353,1.3664,1.3286,1.4172,1.3049,1.3032,1.5605,1.6399,1.7767,2.0649,2.1674,2.201,2.1617,2.1343,2.11,2.0861,1.9773,1.9472,2.0207,2.0661,2.0962,2.1109,2.1109,2.1109,2.1109,2.1109,2.1109,2.1141,2.2788,2.4432,2.6067,2.7721,2.9353,3.0889,3.0889,3.0752,3.0547,3.0547,3.0293,2.9834,2.918,2.9213,2.9546,2.9466,2.9694,3.0294,3.2087,3.1788,3.0828,3.1914,3.1097,2.9315,0.0,0.0,0.0,0.0,0.0,0.0,0.0,0.0,0.0,0.0,0.0,0.0,0.0,0.0,2.8283,2.9016,0.0,2.9857,3.0008,3.0704,3.1069,3.0623,3.0742,3.0801,3.0576,3.0752,3.0889,3.0889,3.0889,3.0889,3.0889,3.0889,3.0889,3.0889,3.0889,3.0889,3.0889,3.1299,3.1621,3.1846,3.2266,3.2588,3.2793,3.2793,3.2793,3.2793,3.2793,3.2793,3.2773,3.2384,3.2071,3.1807,3.1377,3.0584,2.9796,3.1282,3.1856,3.1856,3.1856,3.0354,2.8318,1.3198,1.3198,1.3522,1.4552,1.3769,1.3343,1.437,1.3206,1.2932,1.4917,1.5558,1.6534,1.8407,1.9102,1.937,1.9193,1.8458,1.8773,2.0628,2.0006,1.9903,2.0672,2.0955,2.1109,2.1109,2.1109,2.1109,2.1109,2.1109,2.1109,2.1109,2.1751,2.3458,2.6037,2.6681,2.8426,3.0889,3.0889,3.0889,3.0889,3.0889,3.0889,3.081,3.0126,2.9803,2.9748,2.9947,2.995,3.0182,3.2235,3.2781,3.2842,3.4138,3.3771,3.247,3.0588,2.9421,0.0,0.0,0.0,0.0,0.0,0.0,0.0,0.0,2.866,2.8753,3.0134,3.0272,3.0057,2.9764,2.984,3.0046,3.0279,3.0332,3.0459,3.084,3.0889,3.0889,3.0889,3.0889,3.0889,3.0889,3.0889,3.0889,3.0889,3.0889,3.0889,3.0889,3.0967,3.1016,3.1016,3.1504,3.1934,3.2316,3.2715,3.3086,3.3386,3.3386,3.3386,3.3386,3.3386,3.3347,3.3252,3.2412,3.188,3.1539,3.0739,2.9433,2.7931,2.7931,2.7751,2.7512,2.7811,2.6931,2.5528,1.3198,1.3198,1.3385,1.4008,1.3497,1.3204,1.3807,1.3178,1.2785,1.3243,1.421,1.517,1.6006,1.709,1.7863,1.8072,1.7345,1.7528,1.9065,1.9768,2.0301,2.0692,2.0955,2.1109,2.1109,2.1109,2.1109,2.1109,2.1109,2.1109,2.1172,2.4093,2.565,2.6128,2.9039,3.0548,3.0889,3.0889,3.0889,3.0889,3.0889,3.0889,3.0879,3.0781,3.0488,3.0097,2.9785,2.939,2.9509,3.2641,3.307,3.2866,3.589,3.6056,3.4981,3.4264,3.2629,3.0758,2.9566,2.8253,2.755,2.8982,2.99,3.1208,0.0,3.3344,3.2591,3.4066,3.2412,3.0948,3.1707,3.0923,3.0299,3.0752,3.081,3.083,3.0889,3.0889,3.0889,3.0889,3.0889,3.0889,3.0889,3.0889,3.0889,3.0889,3.0889,3.0889,3.0889,3.124,3.1416,3.1416,3.2236,3.2676,3.2725,3.3144,3.3347,3.3386,3.3386,3.3386,3.3386,3.3386,3.3223,3.2822,3.1963,3.0775,2.9422,2.8885,2.7721,2.6288,2.6288,2.5414,2.4301,2.5741,2.5261,2.3876,1.3198,1.3198,1.318,1.3085,1.3029,1.3183,1.3725,1.3039,1.262,1.3056,1.3466,1.3885,1.4365,1.4523,1.4743,1.5127,1.5513,1.6466,1.8263,1.9239,2.0013,2.0679,2.0826,2.0935,2.1109,2.1109,2.1109,2.1109,2.1109,2.1109,2.1141,2.2514,2.4155,2.6067,2.7452,2.9098,3.0889,3.0889,3.0889,3.0889,3.0889,3.0889,3.0889,3.0889,3.0605,3.0137,2.9745,2.9287,0.0,3.2413,3.2976,3.3031,3.6567,3.666,3.5458,3.5219,3.3859,3.2437,3.2604,3.2141,3.1835,3.2865,3.3159,3.3479,3.4513,3.3493,3.2517,3.3238,3.2426,3.1567,3.1469,3.019,2.9529,3.0704,2.9285,2.8703,3.0645,3.005,2.9805,3.0762,3.0889,3.0889,3.0889,3.0889,3.0889,3.0889,3.1123,3.126,3.126,3.166,3.1894,3.1894,3.248,3.2793,3.2793,3.3213,3.3386,3.3386,3.3386,3.3386,3.3386,3.3386,3.2527,3.0981,3.0604,2.9246,2.7275,2.7082,2.6053,2.4594,2.4594,2.3597,2.2341,2.3985,2.3559,2.216,1.3198,1.3198,1.3032,1.2488,1.2631,1.2945,1.3315,1.2845,1.2575,1.2907,1.288,1.2784,1.2726,1.2293,1.2238,1.2783,1.3921,1.5438,1.7402,1.8617,1.9595,2.0311,2.0468,2.0695,2.0982,2.0989,2.1029,2.1109,2.1109,2.1109,2.1109,2.2027,2.373,2.6037,2.6953,2.8673,3.0889,3.0889,3.0889,3.0889,3.0889,3.081,3.0703,3.0703,3.0273,2.9648,2.9463,2.9043,2.8945,3.1476,3.2204,3.267,3.6038,3.6259,3.5357,3.5845,3.4904,3.3834,3.4173,3.4565,3.499,3.5278,3.5373,3.5247,3.4638,3.3355,3.2205,3.1829,3.1428,3.081,2.9759,2.8545,2.8149,2.9344,2.7931,2.7503,2.9873,2.956,2.953,3.0762,3.0889,3.0889,3.0889,3.0889,3.0937,3.1055,3.1348,3.1572,3.1689,3.2109,3.2374,3.2374,3.2754,3.2969,3.2969,3.324,3.3386,3.3386,3.3386,3.3386,3.3377,3.2683,3.1142,2.8959,2.8769,2.7397,2.5344,2.5344,2.4378,2.2897,2.2897,2.216,2.1267,2.2466,2.2128,2.1109,1.3198,1.3198,1.3032,1.2488,1.2414,1.2385,1.2269,1.2605,1.275,1.2384,1.2325,1.1927,1.0901,1.0767,1.1077,1.1865,1.2973,1.4414,1.6237,1.7963,1.9078,1.9421,1.9947,2.0381,2.0712,2.0719,2.0828,2.1109,2.1109,2.1109,2.1172,2.4371,2.5915,2.6128,2.9314,3.0801,3.0889,3.0889,3.0889,3.0889,3.0889,3.0625,3.0215,3.0215,2.9443,2.8398,2.8799,2.8408,2.7974,2.9566,3.0527,3.1482,3.4012,3.4766,3.5042,3.6659,3.6345,3.5082,3.3558,3.4296,3.5391,3.5084,3.5848,3.6402,3.5468,3.4122,3.2605,3.0981,2.9517,2.8033,2.6431,2.6098,2.6098,2.6128,2.7383,2.8358,2.8447,2.9835,3.083,3.0889,3.0889,3.0889,3.0889,3.0889,3.1064,3.1435,3.1484,3.1699,3.2159,3.2549,3.2773,3.2773,3.3184,3.3377,3.3377,3.3386,3.3386,3.3386,3.3386,3.3386,3.3325,3.0912,2.8838,2.7144,2.6415,2.5185,2.3659,2.3659,2.2678,2.1172,2.1172,2.1141,2.1109,2.1172,2.1141,2.1109,1.3198,1.3198,1.2948,1.2136,1.2221,1.2157,1.1448,1.1961,1.2502,1.2681,1.2691,0.0,0.0,0.0,0.0,0.0,1.2635,1.3822,1.5601,1.7006,1.817,1.9038,1.9446,1.9887,2.0368,2.0381,2.0397,2.0497,2.0497,2.0497,2.0535,2.1869,2.3468,2.5334,2.6621,2.8244,3.0038,3.0038,3.0038,3.0038,3.0038,2.995,2.9843,3.0088,2.9238,2.7885,0.0,2.7328,2.7284,2.9815,3.0647,3.1077,3.382,3.3938,3.3072,3.3282,3.3872,3.436,3.3946,3.4474,3.5179,3.5177,3.3917,3.2563,3.2249,3.0219,2.8226,2.7651,2.7168,2.6651,2.6098,2.5138,2.4748,2.5832,2.5566,2.597,2.811,2.8881,2.9648,3.0772,3.0889,3.0889,3.0889,3.0889,3.0947,3.1094,3.1631,3.2042,3.2189,3.2832,3.3213,3.3213,3.3318,3.2829,3.1698,3.1666,3.1079,2.9939,2.9939,2.9839,2.9576,2.8739,2.7205,2.5147,2.4914,2.3729,2.194,2.194,2.1601,2.1109,2.1109,2.1109,2.1109,2.1109,2.1109,2.1109,1.3198,1.3198,1.2908,1.1966,1.2013,0.0,0.0,0.0,0.0,0.0,0.0,0.0,0.0,0.0,0.0,0.0,0.0,1.2824,1.437,1.5682,1.6872,1.7929,1.8257,1.8691,1.9272,1.9185,1.9339,1.9737,1.963,1.979,2.0234,2.0908,2.2543,2.494,2.5671,2.7265,2.9336,2.9336,2.9461,2.9559,2.91,2.8914,2.8875,2.8523,2.7527,0.0,2.6011,2.5796,2.594,2.8064,2.9006,2.9678,3.1911,3.2708,3.2667,3.1901,3.2785,3.4083,3.4399,3.4479,3.4371,3.3773,3.2091,3.0325,2.9215,2.7412,2.5824,2.5261,2.5035,2.4795,2.4223,2.3264,2.3086,2.4711,2.481,2.5536,2.8047,2.903,2.9847,3.0782,3.0362,3.002,3.002,2.9501,2.9685,3.1015,3.1093,3.1144,3.1287,3.1252,3.1217,3.1217,3.1217,3.0724,2.9687,2.9687,2.9174,2.8205,2.8072,2.7589,2.6768,2.6552,2.5275,2.3265,2.315,2.2335,2.1109,2.1109,2.1109,2.1109,2.1109,2.1109,2.1109,2.1109,2.1109,2.1109,1.3198,1.3198,1.2908,0.0,0.0,0.0,0.0,0.0,0.0,0.0,0.0,0.0,0.0,0.0,0.0,0.0,0.0,0.0,1.2643,1.4084,1.5273,1.617,1.6466,1.6894,1.7482,1.7293,1.7682,1.8763,1.8524,1.8965,2.0047,2.1401,2.299,2.4738,2.6375,2.7698,2.8694,2.8694,2.8945,2.9227,2.7995,2.7503,2.7359,2.5722,2.457,2.3844,2.4001,2.4032,2.4099,2.472,2.6103,2.7743,2.8816,3.1312,3.3611,3.2573,3.3156,3.4246,3.4678,3.4159,3.2987,3.0994,3.0355,2.9479,2.6527,2.5885,2.5428,2.3862,2.3367,2.2709,2.1105,2.0862,2.1368,2.2785,2.5025,2.6943,2.7984,2.9918,3.1091,3.0694,2.9255,2.8268,2.8268,2.6893,2.744,3.0959,2.9818,2.9144,2.9514,2.8114,2.7312,2.7312,2.7312,2.7391,2.7586,2.7489,2.7597,2.7884,2.7564,2.6517,2.4898,2.4336,2.317,2.1549,2.1229,2.1109,2.1109,2.1109,2.1109,2.1109,2.1109,2.1109,2.1109,2.1109,2.1109,2.1109,0.0,0.0,0.0,0.0,0.0,0.0,0.0,0.0,0.0,0.0,0.0,0.0,0.0,0.0,0.0,0.0,0.0,0.0,1.1686,1.2751,1.3849,1.4917,1.5273,1.5678,1.6242,1.6444,1.6672,1.6947,1.7094,1.7315,1.7609,1.9024,2.039,2.1777,2.3521,2.4972,2.6079,2.6079,2.5952,2.5674,2.5063,2.4977,2.5239,2.5139,2.4733,2.4299,2.4671,2.446,2.427,2.6072,2.8566,3.115,3.2281,3.2722,3.2891,3.2988,3.3091,3.3032,3.2476,3.1853,3.0981,2.9342,2.7159,2.5176,2.4378,2.4201,2.3909,2.2833,2.3521,2.3872,2.2506,2.3043,2.3322,2.2164,2.4343,2.5847,2.4948,2.6319,2.7366,2.7271,2.6862,2.6621,2.6621,2.6249,2.6382,2.7332,2.7311,2.7269,2.7385,2.7319,2.7312,2.7312,2.7312,2.6817,2.5772,2.4444,2.3677,2.3568,2.3483,2.3105,2.2498,2.2346,2.1865,2.1216,2.1142,2.1109,2.1109,2.1109,2.1109,2.1109,2.1109,2.1109,2.1109,2.1109,2.1109,2.1109,0.0,0.0,0.0,0.0,0.0,0.0,0.0,0.0,0.0,0.0,0.0,0.0,0.0,0.0,0.0,0.0,0.0,0.0,0.0,1.1387,1.2295,1.3313,1.3541,1.4061,1.4996,1.4705,1.4982,1.5862,1.5742,1.601,1.6683,1.7594,1.8768,2.0209,2.1223,2.2428,2.3694,2.3694,2.3824,0.0,0.0,2.335,2.3995,2.3495,2.3404,2.3611,2.3927,2.4952,2.6448,2.8423,3.0645,3.2623,3.2867,3.3091,3.323,3.3112,3.2314,3.1419,3.1124,2.9843,2.8199,2.6673,2.5475,2.437,2.3284,2.3581,2.3795,2.2725,2.3116,2.3194,2.1783,2.2423,2.2846,2.1863,2.3676,2.5067,2.471,2.5581,2.6197,2.6031,2.5375,2.4962,2.4962,2.4286,2.3854,2.3854,2.4742,2.5295,2.5295,2.4827,2.458,2.458,2.458,2.4237,2.3579,2.2681,2.2151,2.1984,2.189,2.1743,2.1614,2.1448,2.1269,2.1109,2.1109,2.1109,2.1109,2.1109,2.1109,2.1109,2.1109,2.1109,2.1109,2.1109,2.1109,2.1109,0.0,0.0,0.0,0.0,0.0,0.0,0.0,0.0,0.0,1.2526,1.2754,1.262,1.1876,1.1279,0.0,0.0,0.0,0.0,0.0,0.0,1.0932,1.1753,1.1884,1.2516,1.38,1.2889,1.3259,1.4993,1.4574,1.5021,1.6287,1.6712,1.7726,1.9188,1.9365,2.0266,2.1607,2.1607,2.2211,2.3049,2.1894,2.2113,2.2989,0.0,2.1612,2.2536,2.2947,2.5583,2.9132,3.0708,3.2096,3.3058,3.2431,3.2896,3.3485,3.2741,3.0987,2.9403,2.9852,2.8051,2.565,2.4271,2.4962,2.5394,2.3125,2.3818,2.4572,2.322,2.2838,2.2248,2.0545,2.1009,2.1664,2.1652,2.2984,2.436,2.5224,2.5649,2.573,2.5377,2.4108,2.327,2.327,2.194,2.1109,2.1109,2.2435,2.327,2.327,2.1877,2.1109,2.1109,2.1149,2.1269,2.1522,2.1816,2.1911,2.1864,2.1642,2.1529,2.1515,2.1229,2.1109,2.1109,2.1109,2.1109,2.1109,2.1109,2.1109,2.1109,2.1109,2.1109,2.1109,2.1109,2.1109,2.1116,0.0,0.0,0.0,0.0,0.0,0.0,0.0,0.0,0.0,0.0,1.3499,1.262,0.0,0.0,0.0,0.0,0.0,0.0,0.0,0.0,0.0,1.121,1.1775,1.2305,1.2829,1.2871,1.3054,1.3403,1.3899,1.4292,1.4564,1.5887,1.6676,1.7009,1.8227,1.9297,2.0157,2.0157,2.0401,2.0742,2.0194,2.0304,2.081,2.0957,2.1566,0.0,2.4435,2.6744,2.9049,3.007,3.1747,3.3624,3.4752,3.3073,3.0759,3.0914,2.8943,2.6683,2.6781,2.6423,2.5915,2.565,2.5794,2.5704,2.4539,2.5256,2.5716,2.4053,2.4457,2.4467,2.234,2.3183,2.3451,2.1241,2.2252,2.2989,2.2093,2.2013,2.2027,2.1971,2.1688,2.1538,2.1538,2.126,2.1109,2.1109,2.1355,2.1538,2.1538,2.126,2.1109,2.1109,2.1381,2.1415,2.1189,2.1515,2.1535,2.1263,2.1209,2.1189,2.1182,2.1129,2.1109,2.1109,2.1109,2.1109,2.1109,2.1109,2.1109,2.1109,2.1109,2.1109,2.1109,2.1109,2.1109,2.1149,0.0,0.0,0.0,0.0,0.0,0.0,0.0,1.3824,1.447,1.5968,1.562,1.4751,1.3503,1.2432,1.1678,0.0,0.0,0.0,0.0,0.0,0.0,1.1191,0.0,0.0,1.2735,1.2471,1.2621,1.3211,0.0,1.3563,1.3756,1.4736,1.5387,1.577,1.6751,1.7719,1.8615,1.8894,1.9327,1.9779,1.9569,1.9876,2.0526,0.0,0.0,0.0,2.5121,2.6838,2.8592,2.9293,2.9738,3.0248,3.1663,3.1123,2.9735,2.8387,2.6456,2.4924,2.5763,2.5383,2.4955,2.5794,2.6621,2.684,2.5314,2.608,2.6488,2.4292,2.4316,2.3921,2.1363,2.1882,2.1969,1.9664,2.047,2.1259,2.094,2.1015,2.1109,2.1109,2.1109,2.1109,2.1109,2.1109,2.1109,2.1109,2.1109,2.1109,2.1109,2.1109,2.1109,2.1109,2.1249,2.1256,2.1109,2.1249,2.1249,2.1109,2.1109,2.1109,2.1109,2.1109,2.1109,2.1109,2.1109,2.1109,2.1109,2.1109,2.1109,2.1109,2.1109,2.1109,2.1109,2.1109,2.1109,2.1156,0.0,0.0,0.0,0.0,0.0,0.0,1.4701,1.5041,1.5828,1.7693,1.7702,1.6979,1.5513,1.3693,1.2435,0.0,0.0,0.0,0.0,0.0,0.0,0.0,0.0,0.0,0.0,0.0,0.0,1.3299,1.3118,0.0,0.0,0.0,0.0,0.0,1.573,1.6471,1.7447,1.7985,1.8631,0.0,0.0,1.9889,0.0,0.0,0.0,0.0,0.0,2.6288,2.7521,2.8101,2.7499,2.6631,2.7375,2.7924,2.7921,2.6143,2.4365,2.3415,2.5442,2.5077,2.4509,2.6106,2.7651,2.824,2.619,2.661,2.6734,2.431,2.3711,2.283,2.0081,2.0196,2.0136,1.8387,1.9025,1.9963,2.0619,2.0922,2.1109,2.1109,2.1109,2.1109,2.1109,2.1109,2.1109,2.1109,2.1109,2.1109,2.1109,2.1109,2.1109,2.1109,2.1109,2.1109,2.1109,2.1109,2.1109,2.1109,2.1109,2.1109,2.1109,2.1109,2.1109,2.1109,2.1109,2.1109,2.1109,2.1109,2.1109,2.1109,2.1109,2.1109,2.1109,2.1109,2.1109,2.1156,0.0,0.0,0.0,0.0,0.0,0.0,1.4702,1.5525,1.6876,1.9346,1.8654,1.7744,1.7223,1.5906,1.4468,0.0,0.0,0.0,0.0,0.0,0.0,0.0,0.0,0.0,0.0,0.0,0.0,1.2958,1.3275,0.0,0.0,0.0,0.0,0.0,0.0,1.6419,1.7175,1.7719,0.0,0.0,0.0,0.0,0.0,0.0,0.0,0.0,0.0,2.5051,2.5393,2.6111,2.599,2.5341,2.4318,2.3412,2.3098,2.5043,2.3392,2.1709,2.5073,2.5885,2.6167,2.7781,2.9105,2.9598,2.7861,2.6984,2.5986,2.4193,2.3454,2.2498,2.0275,2.0187,1.9998,1.866,1.9013,1.9736,2.0585,2.0922,2.1109,2.1109,2.1109,2.1109,2.1109,2.1109,2.1109,2.1109,2.1109,2.1109,2.1109,2.1109,2.1109,2.1109,2.1109,2.1109,2.1109,2.1109,2.1109,2.1109,2.1109,2.1109,2.1109,2.1109,2.1109,2.1109,2.1109,2.1109,0.0,2.1109,2.1109,2.1109,2.1109,2.1109,2.1109,2.1109,2.1109,2.1156,0.0,0.0,0.0,0.0,0.0,0.0,1.568,1.6048,1.7292,2.0654,2.043,1.9571,1.8633,1.7598,1.5869,1.3137,0.0,0.0,0.0,0.0,0.0,0.0,0.0,0.0,0.0,0.0,1.3079,1.3443,1.392,0.0,0.0,0.0,0.0,0.0,0.0,1.6966,1.7332,1.8191,0.0,0.0,0.0,0.0,0.0,0.0,0.0,0.0,0.0,0.0,2.3707,2.4234,2.3494,2.2337,2.2344,2.1804,2.1542,2.3471,2.3431,2.3312,2.5948,2.6667,2.7055,2.8715,2.9276,2.8984,2.7311,2.6245,2.5131,2.3379,2.2859,2.2026,1.9726,1.9609,1.9398,1.7954,1.8057,1.8572,1.9287,1.992,2.0321,2.0321,2.0635,2.0915,2.1089,2.1109,2.1109,2.1109,2.1109,2.1109,2.1109,2.1109,2.1109,2.1109,2.1109,2.1109,2.1109,2.1109,2.1109,2.1109,2.1109,2.1109,2.1109,2.1109,2.1109,2.1109,2.1109,2.1109,0.0,2.1109,2.1109,2.1109,2.1109,2.1109,2.1109,2.1109,2.1109,2.1156,0.0,0.0,0.0,0.0,0.0,1.3962,1.6004,1.6406,1.766,2.0879,2.0928,2.0235,1.9209,1.7871,1.6084,1.3665,1.313,0.0,0.0,0.0,0.0,0.0,0.0,0.0,0.0,0.0,1.3879,1.4301,1.5024,1.5398,0.0,0.0,1.6702,1.6406,0.0,0.0,0.0,0.0,0.0,0.0,0.0,0.0,0.0,0.0,0.0,0.0,0.0,0.0,0.0,0.0,0.0,2.0664,2.1284,2.1318,2.1401,2.2687,2.3407,2.4261,2.6553,2.7122,2.7501,2.9187,2.9053,2.8174,2.6719,2.5532,2.43,2.2812,2.2412,2.1613,1.9297,1.9091,1.8807,1.7289,1.7287,1.7755,1.851,1.9225,1.9733,1.9907,2.0294,2.0661,2.0955,2.1056,2.1109,2.1109,2.1109,2.1109,2.1109,2.1109,2.1109,2.1109,2.1109,2.1109,2.1109,2.1109,2.1109,2.1109,2.1109,2.1109,2.1109,2.1109,2.1109,2.1109,2.1109,2.1109,0.0,2.1109,2.1109,2.1109,2.1109,2.1109,2.1109,2.1109,2.1109,2.1136,0.0,0.0,0.0,0.0,0.0,0.0,1.5259,1.6549,1.8005,1.9707,1.957,1.9141,1.8656,1.6357,1.4819,1.478,1.3639,0.0,0.0,0.0,0.0,0.0,0.0,0.0,0.0,0.0,1.5474,1.5474,1.6617,1.7214,1.7279,1.783,1.8117,1.8165,0.0,0.0,0.0,0.0,0.0,0.0,0.0,0.0,2.2513,0.0,0.0,0.0,0.0,0.0,0.0,0.0,0.0,0.0,0.0,2.1784,2.2568,2.3054,2.3111,2.3651,2.6516,2.7216,2.7501,2.9187,2.865,2.7477,2.6607,2.5049,2.3555,2.2674,2.2178,2.1273,1.9172,1.8796,1.8361,1.6925,1.6986,1.7595,1.8751,1.9178,1.9615,2.013,2.0204,2.0354,2.0679,2.0942,2.1109,2.1109,2.1109,2.1109,2.1109,2.1109,2.1109,2.1109,2.1109,2.1109,2.1109,2.1109,2.1109,2.1109,2.1109,2.1109,2.1109,2.1109,2.1109,2.1109,2.1109,2.1109,0.0,2.1109,2.1109,2.1109,2.1109,2.1109,2.1109,2.1109,2.1109,2.1109,0.0,0.0,0.0,0.0,0.0,0.0,1.4822,1.5356,1.6246,1.7976,1.8083,1.793,1.7793,1.624,1.5268,1.5406,1.387,0.0,0.0,0.0,0.0,0.0,0.0,0.0,0.0,1.5623,1.6495,1.728,1.8787,1.9555,1.964,2.0173,2.0077,1.9439,1.943,1.9561,0.0,0.0,0.0,0.0,0.0,2.2717,2.3138,0.0,0.0,0.0,0.0,0.0,0.0,0.0,0.0,0.0,0.0,0.0,0.0,2.1534,2.3149,2.5045,2.5967,2.6418,2.6674,2.6894,2.6416,2.5688,2.4828,2.374,2.2654,2.1796,2.1513,2.0967,1.9489,1.8845,1.8436,1.8173,1.761,1.7521,1.849,1.9225,1.9659,1.9639,2.0347,2.0869,2.0962,2.1056,2.1109,2.1109,2.1109,2.1109,2.1109,2.1109,2.1109,2.1109,2.1109,2.1109,2.1109,2.1109,2.1109,2.1109,2.1109,2.1109,2.1109,2.1109,2.1109,2.1109,2.1109,2.1109,2.1109,2.1109,2.1109,2.1109,2.1109,2.1109,2.1109,2.1109,2.1109,2.1109,0.0,0.0,0.0,0.0,0.0,0.0,1.4506,1.493,1.5612,1.6931,1.7104,1.7144,1.7232,1.5979,1.5286,1.5673,1.4397,0.0,0.0,0.0,0.0,0.0,0.0,0.0,1.5716,1.661,1.784,1.9376,2.0833,2.1673,2.1961,2.2485,2.2084,2.0901,2.0909,2.0979,0.0,0.0,0.0,0.0,2.2783,2.3042,2.3467,0.0,0.0,0.0,0.0,0.0,0.0,0.0,0.0,0.0,0.0,0.0,0.0,0.0,2.2432,2.4353,2.4764,2.5501,2.6074,2.5776,2.5249,2.4639,2.3968,2.3008,2.208,2.1337,2.1084,2.0657,1.9598,1.8733,1.8167,1.8128,1.7204,1.6939,1.8143,1.8791,1.9279,1.9646,2.0434,2.0949,2.0949,2.1042,2.1109,2.1109,2.1109,2.1109,2.1109,2.1109,2.1109,2.1109,2.1109,2.1109,2.1109,2.1109,2.1109,2.1109,2.1109,2.1109,2.1109,2.1109,2.1109,2.1109,2.1109,2.1109,0.0,2.1109,2.1109,2.1109,2.1109,2.1109,2.1109,2.1109,2.1109,2.1109,0.0,0.0,0.0,0.0,0.0,0.0,0.0,1.5109,1.5852,1.6396,1.6497,1.6594,1.6809,1.5558,1.4971,1.5634,0.0,0.0,0.0,0.0,0.0,0.0,0.0,0.0,1.73,1.7978,1.9384,2.1557,2.2706,2.3643,2.434,2.4803,2.419,2.2684,2.2644,2.268,0.0,0.0,0.0,0.0,2.2992,2.3097,0.0,0.0,0.0,0.0,0.0,0.0,0.0,0.0,0.0,0.0,0.0,0.0,0.0,0.0,0.0,0.0,0.0,2.4352,2.5474,2.5445,2.482,2.4121,2.3711,2.2695,0.0,2.1259,2.0859,2.037,1.9654,1.8569,1.7651,1.7281,1.6243,1.6099,1.7862,1.8156,1.8716,2.0104,2.0541,2.0739,2.0739,2.0949,2.1109,2.1109,2.1109,2.1109,2.1109,2.1109,2.1109,2.1109,2.1109,2.1109,2.1109,2.1109,2.1109,2.1109,2.1109,2.1109,2.1109,2.1109,2.1109,2.1109,2.1109,2.1109,2.1109,2.1109,2.1109,2.1109,2.1109,2.1109,2.1109,2.1109,2.1109,2.1109,0.0,0.0,0.0,0.0,0.0,0.0,0.0,0.0,0.0,0.0,1.5417,1.5521,1.5266,1.4927,1.4948,0.0,0.0,0.0,0.0,0.0,0.0,0.0,0.0,0.0,1.6712,1.8481,2.0313,2.2106,2.4067,2.5906,2.759,2.7292,2.6581,2.552,2.5106,2.4351,0.0,0.0,0.0,0.0,2.3456,2.3475,0.0,0.0,0.0,0.0,2.1204,2.109,0.0,0.0,0.0,0.0,0.0,0.0,0.0,0.0,1.9961,2.0498,2.1117,0.0,2.3171,2.2871,2.2637,2.2363,0.0,2.1581,2.124,2.083,2.0674,2.0635,2.0752,1.8935,1.7849,1.9239,1.7732,1.7021,1.8826,1.9662,2.0267,2.0835,2.0962,2.1009,2.1009,2.1069,2.1109,2.1109,2.1109,2.1109,2.1109,2.1109,2.1109,2.1109,2.1109,2.1109,2.1109,2.1109,2.1109,2.1109,2.1109,2.1109,2.1109,2.1109,2.1109,2.1109,2.1109,2.1109,2.1109,2.1109,2.1109,2.1109,2.1109,2.1109,2.1109,2.1109,2.1109,2.1109,0.0,0.0,0.0,0.0,0.0,0.0,0.0,0.0,0.0,0.0,1.5725,1.5659,1.5175,1.5366,0.0,0.0,0.0,0.0,0.0,0.0,0.0,0.0,0.0,1.6624,1.6911,1.8568,2.0626,2.3088,2.5237,2.7371,2.9473,2.9305,2.8381,2.68,2.5379,2.4302,0.0,0.0,0.0,2.358,2.3306,0.0,0.0,0.0,0.0,0.0,2.0631,2.0423,0.0,2.0145,2.0274,2.049,0.0,0.0,0.0,0.0,1.9132,1.9405,1.9882,2.1094,2.2168,2.1943,2.2052,2.206,2.1631,2.1357,2.1015,2.04,2.0439,2.0498,2.0117,1.8876,1.8124,1.8855,1.7924,1.7682,1.9361,2.0321,2.0935,2.1089,2.1109,2.1109,2.1109,2.1109,2.1109,2.1109,2.1109,2.1109,2.1109,2.1109,2.1109,2.1109,2.1109,2.1109,2.1109,2.1109,2.1109,2.1109,2.1109,2.1109,2.1109,2.1109,2.1109,2.1109,2.1109,2.1109,2.1109,2.1109,2.1109,2.1109,2.1109,2.1109,2.1109,2.1109,2.1109,2.1109,0.0,0.0,0.0,0.0,0.0,0.0,0.0,0.0,0.0,0.0,0.0,0.0,0.0,0.0,0.0,0.0,0.0,0.0,0.0,0.0,0.0,0.0,1.6531,1.6862,1.7625,1.8619,2.0764,2.4117,2.6213,2.8454,3.0756,3.1167,2.9959,2.7382,2.4979,2.3684,2.3281,0.0,0.0,2.3411,2.2793,0.0,0.0,0.0,0.0,0.0,0.0,0.0,0.0,1.9602,1.9903,2.0306,1.9711,0.0,0.0,0.0,0.0,0.0,1.9228,2.0566,2.1758,2.1641,2.1953,2.2207,2.1777,2.1396,2.0898,2.0166,2.0217,2.0124,1.9203,1.8708,1.832,1.7922,1.7902,1.8404,1.9686,2.0588,2.1109,2.1109,2.1109,2.1109,2.1109,2.1109,2.1109,2.1109,2.1109,2.1109,2.1109,2.1109,2.1109,2.1109,2.1109,2.1109,2.1109,2.1109,2.1109,2.1109,2.1109,2.1109,2.1109,2.1109,2.1109,2.1109,2.1109,0.0,2.1109,2.1109,2.1109,2.1109,2.1109,2.1109,2.1109,2.1109,2.1109,2.1109,0.0,0.0,0.0,0.0,0.0,0.0,0.0,0.0,0.0,0.0,0.0,0.0,0.0,0.0,0.0,0.0,0.0,0.0,0.0,0.0,0.0,1.7157,1.6731,1.7202,1.8719,1.9359,2.1316,2.4678,2.6872,2.9483,3.2435,3.3354,3.1827,2.8317,2.6213,2.4048,2.1989,2.1889,0.0,2.2778,2.2124,0.0,0.0,0.0,0.0,0.0,0.0,0.0,0.0,1.8325,1.8724,1.93,1.8147,0.0,0.0,0.0,0.0,0.0,1.9502,2.0537,2.1132,2.0381,2.081,2.1298,2.0889,2.0732,2.0644,2.0517,2.0011,1.9771,2.0438,1.8966,1.8082,1.9335,1.9501,1.9626,2.007,2.0677,2.1109,2.1109,2.1109,2.1109,2.1109,2.1109,2.1109,2.1109,2.1109,2.1109,2.1109,2.1109,2.1109,2.1109,2.1109,2.1109,2.1109,2.1109,2.1109,2.1109,2.1109,2.1109,2.1109,2.1109,2.1109,2.1109,0.0,2.1109,2.1109,2.1109,2.1109,2.1109,2.1109,2.1109,2.1109,2.1109,2.1109,2.1109,0.0,0.0,0.0,0.0,0.0,0.0,0.0,0.0,0.0,0.0,0.0,0.0,0.0,0.0,0.0,0.0,0.0,0.0,0.0,0.0,1.701,1.8171,1.7981,1.8347,1.9411,2.085,2.3085,2.6151,2.8871,3.1251,3.3263,3.202,3.023,2.7946,2.5237,2.3156,2.1695,2.1695,2.1884,2.2124,0.0,0.0,0.0,0.0,0.0,0.0,0.0,0.0,0.0,0.0,1.8353,1.9141,1.8303,0.0,0.0,0.0,0.0,0.0,1.8447,1.9687,2.0771,2.039,2.1445,2.2559,2.2375,2.1576,2.0762,2.0356,1.9581,1.8968,1.897,1.8661,1.8825,2.0117,2.0158,2.0157,2.061,2.0935,2.1109,2.1109,2.1109,2.1109,2.1109,2.1109,2.1109,2.1109,2.1109,2.1109,2.1109,2.1109,2.1109,2.1109,2.1109,2.1109,2.1109,2.1109,2.1109,2.1109,2.1109,2.1109,2.1109,2.1109,2.1109,2.1109,0.0,2.1109,2.1109,2.1109,2.1109,2.1109,2.1109,2.1109,2.1109,2.1109,2.1109,2.1109,0.0,0.0,0.0,0.0,0.0,0.0,0.0,0.0,0.0,0.0,0.0,0.0,0.0,0.0,0.0,0.0,0.0,0.0,0.0,1.6763,1.7368,1.8902,1.9244,1.9889,2.0953,2.2752,2.513,2.8059,3.0887,3.2816,3.3831,3.0862,2.8712,2.7132,2.4216,2.2298,2.1225,2.1225,2.1321,2.1445,0.0,0.0,0.0,0.0,0.0,0.0,0.0,0.0,0.0,0.0,0.0,0.0,0.0,0.0,0.0,1.8086,1.791,1.8137,1.8152,1.9363,2.0674,2.0967,2.2218,2.3418,2.3721,2.23,2.0846,2.0569,1.9513,1.8497,1.7954,1.873,1.9682,2.0466,2.0494,2.0564,2.1017,2.1109,2.1109,2.1109,2.1109,2.1109,2.1109,2.1109,2.1109,2.1109,2.1109,2.1109,2.1109,2.1109,2.1109,2.1109,2.1109,2.1109,2.1109,2.1109,2.1109,2.1109,2.1109,2.1109,2.1109,2.1109,2.1109,2.1109,2.1109,2.1109,2.1109,2.1109,2.1109,2.1109,2.1109,2.1109,2.1109,2.1109,2.1109,2.1109,0.0,0.0,0.0,0.0,0.0,0.0,0.0,0.0,0.0,0.0,0.0,0.0,0.0,0.0,0.0,0.0,0.0,0.0,0.0,1.7514,1.7738,1.8848,1.9983,2.1785,2.4375,2.5087,2.7042,3.0349,3.2147,3.3521,3.4395,3.2051,2.9286,2.6222,2.4363,2.2169,1.9842,1.9842,2.0198,2.0675,1.9554,0.0,0.0,0.0,0.0,0.0,0.0,0.0,0.0,0.0,0.0,0.0,0.0,0.0,1.9228,1.8683,1.8529,1.8812,2.0038,2.0488,2.0879,2.207,2.2197,2.2355,2.3516,2.2018,2.0682,2.1821,2.0313,1.893,1.9425,1.987,2.0147,2.021,2.0702,2.1062,2.1102,2.1109,2.1109,2.1109,2.1109,2.1109,2.1109,2.1109,2.1109,2.1109,2.1109,2.1109,2.1109,2.1109,2.1109,2.1109,2.1109,2.1109,2.1109,2.1109,2.1109,2.1109,2.1109,2.1109,2.1109,2.1109,2.1109,2.1109,2.1109,2.1109,2.1109,2.1109,2.1109,2.1109,2.1109,2.1109,2.1109,2.1109,2.1109,2.1109,0.0,0.0,0.0,0.0,0.0,0.0,0.0,0.0,0.0,0.0,0.0,0.0,0.0,0.0,0.0,0.0,0.0,0.0,0.0,1.7595,1.8107,1.9879,2.0758,2.2322,2.4754,2.7042,2.9503,3.2139,3.3119,3.3822,3.416,3.0558,2.7993,2.6325,2.3617,2.1869,2.0896,2.0043,2.0327,2.1192,1.9545,1.8857,0.0,0.0,0.0,0.0,0.0,0.0,0.0,0.0,1.7515,1.8818,1.8369,1.9319,2.0393,1.9346,1.8651,1.8342,1.8848,1.9774,2.0605,2.0585,2.1204,2.208,2.2963,2.1463,2.0123,2.0958,1.9794,1.8801,1.941,2.0055,2.0508,2.0508,2.0848,2.1109,2.1109,2.1109,2.1109,2.1109,2.1109,2.1109,2.1109,2.1109,2.1109,2.1109,2.1109,2.1109,2.1109,2.1109,2.1109,2.1109,2.1109,2.1109,2.1109,2.1109,2.1109,2.1109,2.1109,2.1109,2.1109,2.1109,2.1109,2.1109,2.1109,2.1109,2.1109,2.1109,2.1109,2.1109,2.1109,2.1109,2.1109,2.1109,2.1109,2.1109,0.0,0.0,0.0,0.0,0.0,0.0,0.0,0.0,0.0,0.0,0.0,0.0,0.0,0.0,0.0,0.0,0.0,0.0,1.8593,1.7947,1.8294,1.9991,2.0822,2.2272,2.4503,2.7821,3.052,3.2562,3.3303,3.3461,3.3004,2.9294,2.7391,2.6943,2.3952,2.2727,2.2817,2.1076,2.0866,2.1525,1.9469,1.8429,0.0,0.0,0.0,0.0,0.0,0.0,0.0,0.0,1.747,1.9058,1.8918,1.9788,2.0732,1.9987,1.9324,1.8789,1.8635,1.9338,2.0053,1.9904,2.0165,2.0683,2.1618,2.0225,1.9139,2.0676,1.9878,1.888,1.8851,1.9758,2.0568,2.0692,2.0922,2.1109,2.1109,2.1109,2.1109,2.1109,2.1109,2.1109,2.1109,2.1109,2.1109,2.1109,2.1109,2.1109,2.1109,2.1109,2.1109,2.1109,2.1109,2.1109,2.1109,2.1109,2.1109,2.1109,2.1109,2.1109,2.1109,2.1109,2.1109,2.1109,2.1109,2.1109,2.1109,2.1109,2.1109,2.1109,2.1109,2.1109,2.1109,2.1109,2.1109,2.1109,0.0,0.0,0.0,0.0,0.0,0.0,0.0,0.0,0.0,0.0,0.0,0.0,0.0,0.0,0.0,0.0,0.0,0.0,1.9681,1.8698,1.8338,1.8882,2.0046,2.1722,2.3916,2.7175,2.9684,3.1386,3.2525,3.2321,3.0824,2.8695,2.7836,2.7983,2.5653,2.4978,2.5412,2.2806,2.17,2.1491,1.9082,1.811,1.7977,0.0,0.0,0.0,0.0,0.0,0.0,0.0,1.7388,1.789,2.0085,2.0285,1.9858,2.0572,2.0691,2.0468,1.9991,1.9437,1.9295,2.0545,1.9185,1.7901,1.936,1.8199,1.7789,2.1262,2.0799,1.9349,1.7916,1.9052,2.0304,2.0659,2.0922,2.1109,2.1109,2.1109,2.1109,2.1109,2.1109,2.1109,2.1109,2.1109,2.1109,2.1109,2.1109,2.1109,2.1109,2.1109,2.1109,2.1109,2.1109,2.1109,2.1109,2.1109,2.1109,2.1109,2.1109,2.1109,2.1109,2.1109,2.1109,2.1109,2.1109,2.1109,2.1109,2.1109,2.1109,2.1109,2.1109,2.1109,2.1109,2.1109,2.1109,2.1109,0.0,0.0,0.0,0.0,0.0,0.0,0.0,0.0,0.0,0.0,0.0,0.0,0.0,0.0,0.0,0.0,0.0,0.0,1.9699,1.8698,1.8338,1.8882,1.9645,2.0577,2.1659,2.4528,2.7602,3.0846,3.0796,3.0308,2.9382,2.7991,2.7244,2.6988,2.5779,2.4876,2.4127,2.1871,2.1228,2.1561,1.994,1.8848,1.8134,0.0,0.0,0.0,0.0,0.0,0.0,0.0,0.0,0.0,1.8884,1.9886,2.0743,1.9966,1.9489,1.8967,1.788,1.8095,1.8496,1.7882,1.8551,1.9236,1.8924,1.8555,1.8823,2.0699,1.9918,1.9062,1.9677,2.036,2.0808,2.0726,2.0922,2.1109,2.1109,2.1109,2.1109,2.1109,2.1109,2.1109,2.1109,2.1109,2.1109,2.1109,2.1109,2.1109,2.1109,2.1109,2.1109,2.1109,2.1109,2.1109,2.1109,2.1109,2.1109,2.1109,2.1109,2.1109,2.1109,2.1109,2.1109,2.1109,2.1109,2.1109,2.1109,2.1109,2.1109,2.1109,2.1109,2.1109,2.1109,2.1109,2.1109,2.1109,0.0,0.0,0.0,0.0,0.0,0.0,0.0,0.0,0.0,0.0,1.9216,1.9216,0.0,0.0,0.0,0.0,0.0,0.0,1.9708,1.8698,1.8338,1.8882,1.9074,1.9748,2.0993,2.3502,2.5519,2.6992,2.7745,2.7868,2.7329,2.7373,2.7575,2.7847,2.7385,2.6538,2.5361,2.3244,2.2369,2.2265,2.0997,1.9938,1.9104,0.0,0.0,0.0,0.0,0.0,0.0,0.0,0.0,0.0,1.8036,1.8722,1.9441,1.938,1.8991,1.8499,1.823,1.825,1.8293,1.807,1.8575,1.9114,1.917,1.929,1.9283,1.8828,1.9079,1.9468,1.9764,2.0443,2.0915,2.0855,2.0995,2.1109,2.1109,2.1109,2.1109,2.1109,2.1109,2.1109,2.1109,2.1109,2.1109,2.1109,2.1109,2.1109,2.1109,2.1109,2.1109,2.1109,2.1109,2.1109,2.1109,2.1109,2.1109,2.1109,2.1109,2.1109,2.1109,2.1109,2.1109,2.1109,2.1109,2.1109,2.1109,2.1109,2.1109,2.1109,2.1109,2.1109,2.1109,2.1109,2.1109,2.1109,0.0,0.0,0.0,0.0,0.0,0.0,0.0,0.0,0.0,1.9708,1.9708,1.9708,0.0,0.0,0.0,1.9708,1.9729,1.9738,1.9708,1.8698,1.8338,1.8882,1.8604,1.9397,2.1457,2.3472,2.3434,2.1267,2.3979,2.5186,2.4986,2.6728,2.8296,2.9621,2.9506,2.8855,2.7702,2.5526,2.4042,2.3049,2.1956,2.112,2.042,1.9433,0.0,0.0,0.0,0.0,0.0,0.0,0.0,0.0,1.7377,1.7141,1.6894,1.8617,1.8777,1.8636,1.9722,1.906,1.8397,1.9826,1.887,1.7958,1.9572,1.9985,1.9257,1.6728,1.8505,2.0151,1.895,1.9827,2.0833,2.1069,2.1109,2.1109,2.1109,2.1109,2.1109,2.1109,2.1109,2.1109,2.1109,2.1109,2.1109,2.1109,2.1109,2.1109,2.1109,2.1109,2.1109,2.1109,2.1109,2.1109,2.1109,2.1109,2.1109,2.1109,2.1109,2.1109,2.1109,2.1109,2.1109,2.1109,2.1109,2.1109,2.1109,2.1109,2.1109,2.1109,2.1109,2.1109,2.1109,2.1109,2.1109,2.1109,0.0,0.0,0.0,0.0,0.0,0.0,0.0,0.0,1.9708,1.9708,1.9708,1.9708,1.9708,1.9982,0.0,1.9735,1.9991,2.0043,1.9711,1.8698,1.8338,1.8882,1.9709,2.0577,2.1482,2.1964,2.1323,1.9547,2.1868,2.3273,2.3804,2.5669,2.7129,2.8216,2.7818,2.6711,2.4991,2.2615,2.149,2.1297,2.1441,2.0877,1.994,1.9724,1.8694,0.0,0.0,0.0,0.0,0.0,0.0,0.0,1.6367,1.662,1.6816,1.6397,1.6891,1.7384,1.6563,1.6963,1.7668,1.7865,1.7521,1.7298,1.8004,1.8264,1.868,1.9745,1.9428,1.9281,2.0348,2.0796,2.1036,2.1096,2.1109,2.1109,2.1109,2.1109,2.1109,2.1109,2.1109,2.1109,2.1109,2.1109,2.1109,2.1109,2.1109,2.1109,2.1109,2.1109,2.1109,2.1109,2.1109,2.1109,2.1109,2.1109,2.1109,2.1109,2.1109,2.1109,2.1109,2.1109,2.1109,2.1109,2.1109,2.1109,2.1109,2.1109,2.1109,2.1109,2.1109,2.1109,2.1109,2.1109,2.1109,2.1109,0.0,0.0,0.0,0.0,0.0,0.0,0.0,0.0,1.9764,1.9956,1.9991,1.9991,1.9991,1.9916,0.0,0.0,1.9407,1.9347,1.887,1.8365,1.8242,1.8543,1.9659,2.0281,2.031,2.0549,1.9858,1.8193,1.963,2.1067,2.2541,2.432,2.6006,2.7538,2.7042,2.5674,2.3642,2.2382,2.1543,2.1118,2.167,2.1368,2.0552,2.0012,1.8806,1.7311,1.6712,0.0,0.0,0.0,0.0,0.0,0.0,0.0,1.5508,1.5683,1.5806,1.5993,1.6561,1.7034,1.7461,1.7909,1.8082,1.8278,1.8738,1.8924,1.9388,2.0825,2.0392,2.0036,2.0912,2.1109,2.1109,2.1109,2.1109,2.1109,2.1109,2.1109,2.1109,2.1109,2.1109,2.1109,2.1109,2.1109,2.1109,2.1109,2.1109,2.1109,2.1109,2.1109,2.1109,2.1109,2.1109,2.1109,2.1109,2.1109,2.1109,2.1109,2.1109,2.1109,2.1109,2.1109,2.1109,2.1109,2.1109,2.1109,2.1109,2.1109,2.1109,2.1109,2.1109,2.1109,2.1109,2.1109,2.1109,2.1109,0.0,0.0,0.0,0.0,0.0,0.0,0.0,0.0,0.0,2.0246,2.018,2.0144,2.0219,1.9677,1.9119,0.0,0.0,0.0,1.7948,1.8036,1.8134,1.8201,1.922,1.9632,1.9281,1.9624,1.908,1.7584,1.8003,1.9239,0.0,0.0,0.0,2.6881,2.633,2.4924,2.2945,2.2541,2.1881,2.1104,2.1542,2.1454,2.0953,1.9924,1.8643,1.7311,1.6712,1.65,1.6523,1.6624,0.0,0.0,0.0,0.0,1.431,1.5475,1.5024,1.4671,1.7015,1.7377,1.7342,1.8297,1.8759,1.9125,1.9635,1.9796,1.9959,2.0535,2.0881,2.1109,2.1109,2.1109,2.1109,2.1109,2.1109,2.1109,2.1109,2.1109,2.1109,2.1109,2.1109,2.1109,2.1109,2.1109,2.1109,2.1109,2.1109,2.1109,2.1109,2.1109,2.1109,2.1109,2.1109,2.1109,2.1109,2.1109,2.1109,2.1109,2.1109,2.1109,2.1109,2.1109,2.1109,2.1109,2.1109,2.1109,2.1109,2.1109,2.1109,2.1109,2.1109,2.1109,2.1046,2.0748,2.0849,2.1046,0.0,0.0,0.0,0.0,0.0,0.0,0.0,0.0,0.0,0.0,1.9743,1.9503,1.9909,1.935,1.878,1.8308,1.8909,1.8918,1.796,0.0,0.0,1.8202,1.9228,1.9986,2.0374,2.0009,1.9461,1.8775,1.8387,1.8888,0.0,0.0,0.0,2.5283,0.0,0.0,2.2282,2.0362,1.9459,1.9346,1.9409,1.9396,1.9271,1.8644,1.799,1.7311,1.6712,1.65,1.6586,1.7099,1.7229,0.0,0.0,0.0,1.5199,1.4748,1.4136,1.3754,1.4476,1.5705,1.6819,1.7033,1.7214,1.7434,1.7839,1.808,1.8322,1.8756,2.0068,2.1109,2.1109,2.1109,2.1109,2.1109,2.1109,2.1109,2.1109,2.1109,2.1109,2.1109,2.1109,2.1109,2.1109,2.1109,2.1109,2.1109,2.1109,2.1109,2.1109,2.1109,2.1109,2.1109,2.1109,2.1109,2.1109,2.1109,2.1109,2.1109,2.1109,2.1109,2.1109,2.1109,2.1109,2.1109,2.1109,2.1109,2.1109,2.1109,2.1109,2.1109,2.1109,2.1109,2.0912,1.9387,1.9807,2.0881,0.0,0.0,0.0,0.0,0.0,0.0,0.0,0.0,0.0,0.0,0.0,2.0138,1.9923,1.9493,1.8825,1.7795,1.8339,1.8522,1.8045,1.7804,1.7856,1.819,1.864,1.9137,1.9649,1.9424,1.8717,1.7542,1.7656,0.0,0.0,2.1515,2.3485,0.0,0.0,0.0,0.0,0.0,1.8524,1.852,1.8179,1.8994,2.0213,1.8429,1.8165,1.8494,1.6656,1.6216,1.6532,1.6766,1.6868,1.6781,1.6115,0.0,0.0,0.0,1.3338,1.2994,1.4251,1.563,1.6907,1.7772,1.8164,1.846,1.895,1.9137,1.9326,1.9853,2.0557,2.1109,2.1109,2.1109,2.1109,2.1109,2.1109,2.1109,2.1109,2.1109,2.1109,2.1109,2.1109,2.1109,2.1109,2.1109,2.1109,2.1109,2.1109,2.1109,2.1109,2.1109,2.1109,2.1109,2.1109,2.1109,2.1109,2.1109,2.1109,2.1109,2.1109,2.1109,2.1109,2.1109,2.1109,2.1109,2.1109,2.1109,2.1109,2.1109,2.1109,2.1109,2.1109,2.1109,2.1014,2.0227,2.0424,2.0982,0.0,0.0,0.0,0.0,0.0,0.0,0.0,0.0,0.0,0.0,0.0,2.0385,1.9946,0.0,0.0,0.0,1.7623,1.7882,1.8039,1.7716,1.7707,1.815,1.8301,1.8476,1.8687,1.8697,1.7935,1.6389,0.0,0.0,1.8754,2.0882,2.3127,0.0,2.3493,2.2329,0.0,0.0,0.0,1.8333,1.76,1.8814,2.0836,1.8786,1.9098,2.0231,1.7145,1.6501,1.7043,1.6558,1.6328,1.6188,1.5834,1.5239,0.0,0.0,0.0,1.2158,1.3327,1.4701,1.6129,1.7438,1.841,1.9225,1.9953,2.015,2.035,2.0895,2.1056,2.1109,2.1109,2.1109,2.1109,2.1109,2.1109,2.1109,2.1109,2.1109,2.1109,2.1109,2.1109,2.1109,2.1109,2.1109,2.1109,2.1109,2.1109,2.1109,2.1109,2.1109,2.1109,2.1109,2.1109,2.1109,2.1109,2.1109,2.1109,2.1109,2.1109,2.1109,2.1109,2.1109,2.1109,2.1109,2.1109,2.1109,2.1109,2.1109,2.1109,2.1109,2.1109,2.1109,2.1046,2.0589,2.0716,2.1046,0.0,0.0,0.0,0.0,0.0,0.0,0.0,0.0,0.0,0.0,0.0,1.945,1.986,1.8416,1.7375,1.7316,1.6977,1.7094,1.786,1.801,1.807,1.8098,1.8592,0.0,1.8157,1.8137,1.7565,1.6389,0.0,0.0,1.982,2.0401,2.2769,2.6484,2.5726,2.4233,2.2115,0.0,0.0,1.8859,1.7752,1.8344,1.9864,1.9734,2.1031,2.2439,1.859,1.7882,1.854,1.6932,1.6021,1.5655,1.6185,1.5548,1.4505,0.0,0.0,0.0,1.0212,1.1641,1.36,1.4495,1.6398,1.8389,1.9559,2.0034,2.029,2.0635,2.0915,2.1109,2.1109,2.1109,2.1109,2.1109,2.1109,2.1109,2.1109,2.1109,2.1109,2.1109,2.1109,2.1109,2.1109,2.1109,2.1109,2.1109,2.1109,2.1109,2.1109,2.1109,2.1109,2.1109,2.1109,2.1109,2.1109,2.1109,2.1109,2.1109,2.1109,2.1109,2.1109,2.1109,2.1109,2.1109,2.1109,2.1109,2.1109,2.1109,2.1109,2.1109,2.1109,2.1109,2.0912,1.9253,1.9674,2.0849,0.0,0.0,0.0,0.0,0.0,0.0,0.0,0.0,0.0,0.0,0.0,0.0,0.0,1.9162,1.8526,1.7393,1.7326,1.75,1.7881,1.8346,1.8612,1.8612,1.8807,1.865,1.8116,1.8106,1.7174,0.0,0.0,1.6812,1.8706,1.9996,2.2158,2.4892,2.3996,2.3212,2.234,1.9071,0.0,1.8152,1.8139,1.9454,2.1452,2.1779,2.2863,2.3869,2.1351,0.0,1.9243,1.86,1.7061,1.541,1.5587,1.4915,1.3882,1.283,1.1933,1.1275,1.12,1.187,1.2916,1.419,1.6017,1.7682,1.8477,1.9332,2.0094,2.0612,2.0793,2.0889,2.1076,2.1109,2.1109,2.1109,2.1109,2.1109,2.1109,2.1109,2.1109,2.1109,2.1109,2.1109,2.1109,2.1109,2.1109,2.1109,2.1109,2.1109,2.1109,2.1109,2.1109,2.1109,2.1109,2.1109,2.1109,2.1109,2.1109,2.1109,2.1109,2.1109,2.1109,2.1109,2.1109,2.1109,2.1109,2.1109,2.1109,2.1109,2.1109,2.1109,2.1109,2.1109,2.1014,2.0392,2.0551,2.1007,0.0,0.0,0.0,0.0,0.0,0.0,0.0,0.0,0.0,2.0715,0.0,0.0,0.0,0.0,1.8944,1.7555,1.7791,1.8072,1.8159,1.881,1.9169,1.9169,1.8996,1.865,1.8116,1.7927,1.68,0.0,0.0,0.0,0.0,1.9184,2.1094,2.3271,2.2037,2.204,0.0,1.9948,1.8771,1.8846,1.9287,2.0558,2.2239,2.304,2.3814,2.4282,2.2508,2.1172,2.0213,1.9707,1.8146,1.6321,1.5765,1.4636,1.3268,1.2135,1.1485,1.1175,1.1376,1.1495,1.1997,1.376,1.503,1.6264,1.7816,1.8205,1.8503,1.9416,1.9744,1.9962,2.0117,2.0682,2.1109,2.1109,2.1109,2.1109,2.1109,2.1109,2.1109,2.1109,2.1109,2.1109,2.1109,2.1109,2.1109,2.1109,2.1109,2.1109,2.1109,2.1109,2.1109,2.1109,2.1109,2.1109,2.1109,2.1109,2.1109,2.1109,2.1109,2.1109,2.1109,2.1109,2.1109,2.1109,2.1109,2.1109,2.1109,2.1109,2.1109,2.1109,2.1109,2.1109,2.1109,2.1109,2.1109,2.1109,0.0,0.0,0.0,0.0,0.0,0.0,0.0,0.0,1.9856,2.0246,0.0,0.0,0.0,0.0,0.0,1.7823,1.8339,1.8683,1.8659,1.9274,1.9633,1.9648,1.9146,1.8617,1.8096,1.7565,1.6457,0.0,0.0,0.0,0.0,0.0,1.9601,2.1823,2.0201,2.0915,2.3273,2.2395,2.1598,2.0932,2.1103,2.1462,2.205,2.335,2.3898,2.3742,2.2005,2.1511,2.1478,2.0179,1.9198,1.8264,1.6757,1.4726,1.2761,1.2043,1.1341,1.073,0.0,0.0,0.0,1.2914,1.3327,1.4054,1.7516,1.6665,1.5581,1.7062,1.7855,1.8278,1.8351,1.9865,2.1109,2.1096,2.1102,2.1109,2.1109,2.1109,2.1109,2.1109,2.1109,2.1109,2.1109,2.1109,2.1109,2.1109,2.1109,2.1109,2.1109,2.1109,2.1109,2.1109,2.1109,2.1109,2.1109,2.1109,2.1109,2.1109,2.1109,2.1109,2.1109,2.1109,2.1109,2.1109,2.1109,2.1077,2.1046,2.1077,2.1109,2.1109,2.1109,2.1109,2.1109,2.1109,2.1109,2.1109,0.0,0.0,0.0,0.0,0.0,1.9845,2.0237,2.0219,2.0176,0.0,0.0,0.0,0.0,0.0,0.0,1.9307,1.9026,1.846,1.7598,1.7808,1.8134,1.853,1.8021,1.7669,1.7524,1.7384,1.6457,0.0,0.0,0.0,0.0,0.0,0.0,1.9672,1.9192,1.9056,1.9095,1.8237,1.8382,1.9256,1.997,2.1035,2.2406,2.4469,2.5345,2.5519,2.5808,2.4867,2.3418,2.3046,2.0199,1.639,1.4143,1.3192,1.2859,1.2666,1.1742,1.0774,1.0688,0.0,0.0,0.0,0.0,0.0,1.3373,1.3663,1.4316,1.6329,1.6956,1.7675,1.9347,2.0444,2.1042,2.0828,2.0969,2.1109,2.1109,2.1109,2.1109,2.1109,2.1109,2.1109,2.1109,2.1109,2.1109,2.1109,2.1109,2.1109,2.1109,2.1109,2.1109,2.1109,2.1109,2.1109,2.1109,2.1109,2.1109,2.1109,2.1109,2.1109,2.1109,2.1109,2.1109,2.1109,2.1109,2.0392,1.9317,2.0589,2.1109,2.1109,2.1109,2.1109,2.1109,2.1109,2.1109,2.1109,0.0,0.0,1.9789,2.0073,2.0357,2.0706,2.1218,2.1057,2.0981,0.0,0.0,0.0,0.0,0.0,0.0,1.99,1.9498,1.8777,1.7598,1.7384,1.7537,1.8088,1.7372,1.7069,1.7299,1.7087,1.6222,1.4698,0.0,0.0,0.0,0.0,0.0,1.6588,1.6588,1.6395,1.6039,1.5453,1.6393,1.848,2.0649,2.1646,2.2127,2.4756,2.5158,2.4546,2.6075,2.5377,2.3839,2.4378,2.1163,1.6605,1.4695,1.3314,1.2463,1.2797,1.1886,1.0793,1.0956,1.0235,0.9538,1.0094,0.0,0.0,1.3043,1.2573,1.2723,1.6029,1.6329,1.6599,1.8665,1.9955,2.0657,2.0521,2.0635,2.0797,2.1076,2.1109,2.1109,2.1109,2.1109,2.1109,2.1109,2.1109,2.1109,2.1109,2.1109,2.1109,2.1109,2.1109,2.1109,2.1109,2.1109,2.1109,2.1109,2.1109,2.1109,2.1109,2.1109,2.1109,2.1109,2.1109,2.1109,2.1046,2.0329,1.9451,1.8506,1.88,1.9355,2.01,2.0817,2.1109,2.1109,2.1109,2.1109,2.1014,0.0,0.0,2.0058,2.0787,2.147,2.2169,2.2912,2.2453,2.2228,0.0,2.2286,0.0,0.0,0.0,0.0,0.0,1.9863,1.9232,1.8095,1.7466,1.7356,1.79,1.6943,1.6658,1.7196,1.6678,1.5843,1.4698,1.4629,1.4025,1.2915,0.0,0.0,1.3425,1.3425,1.363,1.3968,1.3963,1.5529,1.8312,2.1845,2.2512,2.1715,2.4493,2.4235,2.2627,2.4334,2.4187,2.3274,2.4047,2.1558,1.7899,1.6599,1.4296,1.2177,1.2622,1.1893,1.0987,1.1226,1.0546,0.9968,1.0684,1.035,0.0,1.4178,1.2282,1.105,1.5447,1.546,1.5168,1.6827,1.858,1.9743,1.9677,1.9857,2.025,2.0962,2.1062,2.1076,2.1109,2.1109,2.1109,2.1109,2.1109,2.1109,2.1109,2.1109,2.1109,2.1109,2.1109,2.1109,2.1109,2.1109,2.1109,2.1109,2.1109,2.1109,2.1109,2.1109,2.1109,2.1109,2.1109,2.1109,2.1014,1.9253,1.8506,1.8378,1.6824,1.7114,1.864,2.0195,2.0912,2.1109,2.1109,2.0976,2.0589,1.9708,2.0124,2.0887,2.2094,2.2827,2.364,2.4852,2.4466,2.4022,2.3983,2.331,0.0,0.0,0.0,0.0,0.0,2.0325,1.875,1.7602,1.6578,1.6248,1.679,1.6209,1.6109,1.6646,1.6072,1.5421,1.4698,1.4213,1.3612,1.2905,1.2981,0.0,0.0,1.301,1.3059,1.3216,1.453,1.6217,1.8114,1.9369,2.1017,2.287,2.4167,2.5019,2.5397,2.4361,2.3798,2.3142,2.0258,1.8884,1.78,1.4616,1.403,1.4189,1.2443,1.2194,1.2277,1.1376,1.0791,1.0345,1.0028,1.0356,0.0,0.9839,0.9702,1.0218,1.1972,1.2413,1.3113,1.5098,1.6346,1.6887,1.642,1.7742,1.9285,2.0575,2.0793,2.0848,2.1082,2.1109,2.1109,2.1109,2.1109,2.1109,2.1109,2.1109,2.1109,2.1109,2.1109,2.1109,2.1109,2.1109,2.1109,2.1109,2.1109,2.1109,2.1109,2.1109,2.1109,2.1109,2.1109,2.1109,2.1014,1.9253,1.8506,1.8474,1.8116,1.818,1.8538,1.8864,1.9871,2.1109,2.1109,2.0195,1.896,1.9768,2.0507,2.162,2.2917,2.3847,2.4851,2.6241,2.5771,2.5331,2.5576,0.0,0.0,0.0,0.0,0.0,0.0,0.0,0.0,1.6977,1.5868,1.5491,1.6027,1.5823,1.5809,1.605,1.5742,1.5163,1.4248,1.3945,1.3481,1.2905,1.2905,1.3343,1.4102,1.3274,1.3492,1.449,1.4463,1.5459,1.7295,1.9969,2.2263,2.4219,2.5303,2.5658,2.5453,2.4301,2.3467,2.246,1.962,1.8231,1.7327,1.5289,1.4446,1.3984,1.2914,1.2594,1.2417,1.1578,1.1085,1.0758,1.0595,1.0684,0.0,0.0,1.0124,1.0291,1.2781,1.2496,1.2467,1.459,1.5227,1.5351,1.5227,1.6692,1.8003,1.8445,1.9776,2.0782,2.1076,2.0982,2.0949,2.1096,2.0982,2.0955,2.1096,2.1109,2.1109,2.1109,2.1109,2.1109,2.1109,2.1109,2.1109,2.1109,2.1109,2.1109,2.1109,2.1109,2.1109,2.1109,2.1109,2.0621,1.9712,1.7956,1.7211,1.7146,1.6269,1.692,1.8506,1.8506,1.903,1.9712,1.8832,1.7956,1.7082,1.9833,2.0776,2.2068,2.322,2.4532,2.5789,2.697,2.6579,2.637,2.6957,0.0,0.0,0.0,0.0,0.0,0.0,0.0,0.0,1.7278,1.6172,1.5772,1.6217,1.5986,1.5969,1.624,1.57,1.4892,1.3792,1.3684,1.3372,1.2905,1.2905,1.3626,1.4883,1.3939,1.433,1.5664,1.4746,1.5303,1.7118,2.107,2.3127,2.4051,2.5598,2.5296,2.4011,2.3582,2.2546,2.1154,1.9539,1.8111,1.692,1.6197,1.5006,1.3797,1.339,1.3089,1.2744,1.2035,1.1675,1.1476,1.1352,1.1202,1.1313,0.0,0.0,0.0,1.3612,1.2653,1.1871,1.3647,1.3794,1.3714,1.3935,1.5316,1.6187,1.5682,1.7923,1.9803,2.0287,2.0494,2.0615,2.0681,2.0368,2.0401,2.0982,2.0762,2.0728,2.1009,2.1082,2.1109,2.1109,2.1109,2.1109,2.1109,2.1109,2.1109,2.1109,2.1109,2.1109,2.1077,2.0748,1.9839,1.841,1.6662,1.6075,1.6302,1.4879,1.6172,1.896,1.8634,1.8506,1.8314,1.692,1.5978,1.5204,1.9833,2.0776,2.1936,2.2668,2.4661,2.626,2.6554,2.684,2.7164,0.0,0.0,0.0,2.7644,2.6209,2.5365,2.565,0.0,0.0,2.0188,1.9008,1.8396,1.8511,1.7168,1.7067,1.849,1.6076,1.448,1.3792,1.3262,1.2978,1.2905,1.2905,1.3001,1.3255,1.497,1.521,1.4478,1.6586,1.8142,1.93,2.0252,2.0156,1.9709,2.2293,2.2503,2.139,2.1026,2.0053,1.8769,1.7789,1.7342,1.6853,1.4951,1.5252,1.5789,1.3201,1.3669,1.4691,1.3095,1.2983,1.2934,1.143,1.1984,1.2278,0.9845,0.0,1.0656,1.0025,0.0,0.9995,1.0252,0.0,0.0,1.0336,1.1986,1.3286,1.3219,1.4613,1.613,1.7494,1.9192,1.9963,1.9216,1.8651,1.8985,2.0632,1.9519,1.9381,2.0692,2.0969,2.1109,2.1109,2.1109,2.1109,2.1109,2.1109,2.1109,2.1109,2.1109,2.1109,2.1046,1.9515,1.8704,1.841,1.6662,1.6786,1.818,1.7988,1.9056,2.0652,1.9094,1.8506,1.8474,1.8282,1.6242,1.3582,1.9768,2.0779,2.1809,2.2174,2.3518,2.4723,2.521,2.6414,2.7412,2.7831,2.81,2.7934,2.7161,2.587,2.4858,2.4423,2.2349,2.0597,1.9457,1.8993,1.8234,1.7088,1.6668,1.6527,1.669,1.504,1.3885,1.3274,1.3029,1.2905,1.2905,1.2905,1.3561,1.4793,1.5694,1.677,1.7871,1.7952,1.8162,1.847,1.8691,1.7703,1.6596,2.1253,2.2148,2.0838,2.0133,1.876,1.7291,0.0,1.5679,1.4232,1.3883,1.4163,1.4403,1.3007,1.3561,1.4384,1.3132,1.3186,1.33,1.2071,1.2225,1.2184,1.0276,0.9907,0.9903,0.975,0.0,0.0,0.0,0.0,0.0,0.0,1.1156,1.2094,1.1584,1.3239,1.4959,1.6233,1.6854,0.0,1.8083,1.7916,1.8504,2.0287,1.8891,1.8758,2.0612,2.0826,2.0935,2.1109,2.1109,2.1109,2.1109,2.1109,2.1109,2.1109,2.1109,2.0557,1.9578,1.8832,1.7404,1.5497,1.5784,1.6307,1.7082,1.8084,1.9546,2.0912,1.9189,1.7891,1.6856,1.5848,1.3905,1.1795,1.9708,2.0504,2.1233,2.1309,2.216,2.3165,2.4128,2.5244,2.6332,2.7285,2.7655,2.7455,2.651,2.5735,2.5077,2.4474,2.3075,2.1671,2.0362,1.9952,1.9188,1.7889,1.7151,1.6683,1.6532,1.4977,1.3737,1.2905,1.2905,1.3052,1.3358,1.3052,1.3902,1.5714,1.6343,1.7846,1.9834,1.899,1.8627,1.8574,1.8083,1.6976,1.606,2.0051,2.0851,1.9729,1.8992,1.756,1.5929,1.5692,1.4222,0.0,1.2964,1.3387,1.3678,1.3326,1.4078,1.4839,1.3802,1.3848,1.3853,1.2406,1.2184,1.1911,1.0437,0.9893,0.9744,0.9945,0.9732,0.0,0.0,0.0,0.0,0.0,0.0,1.1126,1.0323,1.1677,1.32,1.4447,1.4609,1.5231,0.0,1.6491,1.7074,1.931,1.7862,1.7936,2.0338,2.0619,2.0806,2.0982,2.1069,2.1109,2.1109,2.1109,2.1109,2.1077,2.0621,1.9706,1.8474,1.7506,1.5951,1.4068,1.5367,1.6172,1.6759,1.8474,1.9973,2.0912,1.9189,1.7436,1.5691,1.3938,1.2186,1.0688,1.9708,1.9839,1.9939,1.9874,2.0861,2.2188,2.3765,2.3239,2.337,2.5407,2.5363,2.5381,2.6053,2.6431,2.7016,2.7964,2.7276,2.621,2.4893,2.3347,2.2716,2.3238,1.9657,1.8445,2.0093,1.6795,1.4346,1.2905,1.2905,1.3459,1.4516,1.3425,1.3534,1.4744,1.695,1.7981,1.8168,1.9614,2.0591,2.1009,1.9116,1.873,1.9097,1.7861,1.7276,1.7132,1.7079,0.0,0.0,1.3695,1.3334,0.0,0.0,0.0,0.0,1.4421,1.5785,1.718,1.5705,0.0,1.5041,1.216,1.1866,1.1697,0.9392,0.994,1.0717,0.9881,1.0575,1.1159,0.0,0.0,0.0,0.0,0.0,0.0,0.0,0.9303,0.9903,1.1379,1.2781,1.4134,0.0,1.3647,1.3915,0.0,1.6063,1.6471,1.9659,2.0368,2.0712,2.0719,2.0962,2.1109,2.1109,2.1109,2.1109,2.1077,1.9381,1.8538,1.8378,1.5009,1.4325,1.5816,1.5886,1.6856,1.8538,2.0297,2.1046,2.0912,1.9189,1.7436,1.5691,1.3938,1.2186,1.0688,1.9173,1.8965,1.8747,1.8697,1.8934,1.9748,2.1483,2.2331,2.3553,2.5763,2.6249,2.6526,2.6915,2.709,2.7125,2.7016,2.6754,2.6045,2.4684,2.3761,2.3144,2.2853,1.988,1.867,1.9629,1.6783,1.4766,1.3685,1.3437,1.3563,1.4047,1.327,1.3638,1.5007,1.6795,1.814,1.9111,1.9956,2.0096,1.9535,1.6797,1.6404,1.7462,0.0,1.705,1.685,1.5784,1.4391,0.0,1.2666,1.1684,1.0582,1.0447,1.181,1.3482,1.3451,1.5125,1.6894,0.0,0.0,1.638,1.3821,0.0,0.0,1.0199,1.0229,1.0546,0.9841,1.0615,0.0,0.0,0.0,0.0,0.0,0.0,0.0,0.0,0.979,1.0107,1.0608,1.1734,1.2644,0.0,0.0,0.0,0.0,1.619,0.0,1.9408,1.9887,2.0274,2.0699,2.0799,2.0915,2.1109,2.1109,2.1109,2.1077,1.9323,1.7891,1.6689,1.4358,1.3615,1.4232,1.5394,1.6888,1.8634,2.0392,2.1109,2.0817,1.7923,1.6431,1.5691,1.3938,1.2935,1.2574,1.9219,1.8467,1.7867,1.8068,1.8079,1.8628,2.0344,2.1801,2.3425,2.5432,2.6087,2.6599,2.719,2.7413,2.7386,2.7098,2.7197,2.6602,2.4967,2.4655,2.4201,2.3462,2.1431,2.051,2.0879,1.8203,1.6299,1.5269,1.4381,1.4162,1.4528,1.3558,1.3847,1.5193,1.6407,1.7751,1.9178,1.9711,1.9932,1.9643,1.653,1.5496,1.5788,0.0,1.5229,1.5025,0.0,1.2723,1.1348,1.1348,1.048,0.9454,0.9622,1.0942,1.2493,1.2655,1.4664,1.6737,1.6438,1.7029,0.0,1.509,1.4409,0.0,1.1392,1.1369,1.1651,1.0948,1.1456,0.0,0.0,0.0,0.0,0.0,0.0,0.0,0.0,0.9987,1.0122,1.0122,1.0705,1.1414,0.0,0.0,0.0,0.0,0.0,0.0,0.0,1.9486,1.9867,2.0347,2.0599,2.0768,2.0955,2.1056,2.0779,2.0164,1.841,1.6657,1.4912,1.3161,1.3062,1.4293,1.5394,1.7243,1.9515,2.0652,2.1109,2.0817,1.7956,1.6824,1.6463,1.3484,1.2771,1.3648,1.9727,1.8388,1.7417,1.8034,1.8215,1.8762,2.0295,2.1497,2.2795,2.4416,2.4964,2.5698,2.7002,2.7536,2.7946,2.832,2.8701,2.803,2.6001,2.6069,2.5926,2.5296,2.4213,2.3724,2.389,2.0928,1.8748,1.7487,1.5708,1.5178,1.5837,1.4242,1.409,1.5179,1.5749,1.6819,1.8267,1.8843,1.9908,2.1001,1.7973,1.5827,1.4277,1.2697,1.1913,1.1731,1.1997,1.111,0.9792,0.9792,0.9792,0.9792,0.9792,1.0899,1.2213,1.2213,1.447,1.6809,1.5991,1.6879,1.7669,1.5959,1.5498,0.0,0.0,0.0,1.3942,1.3098,1.3159,0.0,0.0,0.0,0.0,0.0,0.0,0.0,0.0,0.0,0.0,0.0,0.0,0.0,0.0,0.0,0.0,0.0,0.0,1.4948,0.0,1.914,1.9441,1.9786,2.0371,2.0672,2.0686,2.0848,2.0113,1.8457,1.6657,1.4912,1.3226,1.1501,1.261,1.5913,1.5913,1.7891,2.1109,2.1109,2.1109,2.0912,1.9094,1.8282,1.7532,1.2738,1.1956,1.3779,1.8779,1.8834,1.8964,1.872,1.8146,1.8151,1.9437,2.0439,2.1987,2.4639,2.5873,2.7129,2.8767,2.9041,2.9149,2.9266,2.9043,2.8664,2.8108,2.6984,2.6699,2.7448,2.5376,2.451,2.5191,2.1953,1.9784,1.8817,1.6416,1.5273,1.5277,1.4073,1.3892,1.4606,1.4563,1.5515,1.7135,1.6347,1.618,1.6234,1.4227,1.3078,1.2378,0.0,1.0407,1.0188,1.0353,1.0149,0.9792,0.9792,0.9792,0.9792,0.9792,1.0899,1.2213,1.2213,1.447,1.695,1.6727,1.782,1.8758,1.7622,1.6842,1.6059,0.0,0.0,0.0,0.0,0.0,0.0,0.0,0.0,0.0,0.0,0.0,0.0,0.0,0.0,0.0,1.1779,0.0,0.0,0.0,0.0,0.0,0.0,0.0,0.0,1.8477,1.7829,1.813,1.9746,1.9947,2.0127,2.0341,1.9368,1.864,1.8167,1.5321,1.3742,1.3226,1.1501,1.261,1.5913,1.5913,1.7891,2.1109,2.1109,2.1109,2.0817,1.7763,1.4977,1.2836,1.4101,1.4036,1.3615,1.9296,1.9929,2.0183,1.9243,1.8664,1.8748,1.9948,2.1045,2.2552,2.4799,2.6402,2.7744,2.8914,2.954,2.9872,2.9872,2.9619,2.916,2.8418,2.7998,2.7878,2.8044,2.6963,2.6596,2.7093,2.4284,2.2041,2.0449,1.7991,1.6177,1.4959,1.3958,1.3525,1.3582,1.3872,1.4237,1.4609,1.4437,1.3939,1.3176,1.2473,1.1677,0.0,1.0231,0.9913,0.9792,0.9968,0.9947,0.989,0.989,0.9846,0.9792,0.9792,1.0418,1.1287,1.2006,1.3969,1.6109,1.6821,1.8163,1.9274,1.8744,1.8243,1.7602,1.6587,1.648,1.6466,0.0,1.6157,1.6182,0.0,0.0,0.0,0.0,0.0,0.0,0.0,0.0,0.0,0.0,1.2982,0.0,0.0,0.0,0.0,0.0,0.0,0.0,0.0,1.686,1.7542,1.9359,1.8875,1.8709,1.8984,1.7554,1.6518,1.5902,1.4137,1.2902,1.2153,1.1927,1.332,1.5946,1.6722,1.857,2.1109,2.1109,2.0652,1.9674,1.6953,1.4232,1.2055,1.4036,1.4134,1.355,2.0514,2.1221,2.1193,1.9787,1.9544,1.998,2.1191,2.2241,2.3378,2.4708,2.6337,2.7628,2.824,2.9291,3.0044,3.0255,3.0234,2.957,2.8122,2.9012,2.91,2.7995,2.8613,2.9004,2.9004,2.6889,2.4528,2.1984,1.9718,1.7269,1.4687,1.3887,1.3109,1.2431,1.3234,1.2803,1.1554,1.2828,1.2569,1.1309,1.1751,1.1084,0.9839,1.0011,1.0076,1.0096,1.0283,1.0226,1.0049,1.0049,0.9961,0.9846,0.9829,0.9971,1.0417,1.1804,1.3497,1.5222,1.6609,1.8163,1.9395,1.9395,1.9395,1.912,1.8077,1.7842,1.7769,1.7541,1.6827,1.6682,0.0,0.0,0.0,0.0,0.0,0.0,0.0,0.0,0.0,0.0,0.0,0.0,0.0,0.0,0.0,0.0,0.0,0.0,0.0,0.0,1.7148,1.8843,1.7672,1.7082,1.728,1.5663,1.4206,1.2967,1.2945,1.2262,1.1078,1.238,1.4166,1.6302,1.7597,1.9158,2.0748,2.0748,1.961,1.7661,1.614,1.4488,1.2964,1.2964,1.2964,1.3193,2.0969,2.1688,2.2019,2.1032,2.0594,2.0824,2.2153,2.1787,2.1944,2.3494,2.489,2.6411,2.8201,2.8575,2.9262,3.0645,3.042,3.0068,2.9775,2.9667,2.95,2.9276,2.9403,2.9481,2.9481,2.7389,2.5,2.2381,1.9854,1.7096,1.4211,1.3727,1.2938,1.1914,1.1529,1.0766,0.983,1.1149,1.1077,1.0107,1.0319,1.0222,1.0008,1.031,1.0412,1.0436,1.0588,1.047,1.0239,1.0239,1.0222,1.0178,1.0018,1.0894,1.1992,1.2139,1.4297,1.6639,1.6909,1.8163,1.9395,1.9395,1.9395,1.9341,1.9127,1.908,1.9067,1.902,1.8886,1.8498,1.7582,0.0,0.0,0.0,0.0,0.0,0.0,0.0,0.0,0.0,0.0,0.0,0.0,0.0,0.0,0.0,0.0,0.0,0.0,0.0,1.5892,0.0,1.7673,1.6883,0.0,0.0,1.2725,1.2335,1.1443,1.1627,1.2804,1.1666,1.3681,1.7988,1.6856,1.7339,1.896,1.896,1.7082,1.4166,1.3877,1.2705,1.1144,1.1144,1.1144,1.1211,2.1457,2.1978,2.2241,2.1435,2.1037,2.1023,2.1665,2.1249,2.1451,2.3171,2.4163,2.5069,2.6071,2.7508,2.8724,2.953,3.019,3.0557,3.0557,3.0371,2.9891,2.9018,2.8783,2.8671,2.8671,2.7201,2.5163,2.2488,2.0586,1.7737,1.4081,1.3077,1.2138,1.1238,1.007,0.9346,0.9041,0.9758,0.9839,0.9507,0.9863,0.9987,1.0049,1.0378,1.049,1.051,1.0666,1.0629,1.0497,1.0415,1.0373,1.0453,1.1247,1.2056,1.2942,1.4464,1.6112,1.7607,1.8259,1.9118,1.978,1.9633,1.9622,1.9582,1.9435,1.9395,1.9395,1.9395,1.9395,1.8893,1.7247,1.594,0.0,0.0,0.0,0.0,0.0,0.0,0.0,0.0,0.0,0.0,0.0,0.0,0.0,0.0,0.0,0.0,0.0,0.0,1.5504,0.0,0.0,0.0,1.5526,0.0,1.1918,1.1201,1.0816,1.107,1.1989,1.2964,1.4264,1.5848,1.6824,1.7211,1.7082,1.6177,1.4814,1.3226,1.2314,1.1439,1.0688,1.0688,1.0688,1.0688,2.1747,2.1838,2.1865,2.1348,2.0929,2.0731,2.0963,2.0886,2.1413,2.3202,2.3444,2.3734,2.4432,2.6224,2.7512,2.7871,2.9098,2.9873,2.9873,2.9873,2.9412,2.8447,2.7766,2.7752,2.8452,2.7367,2.5597,2.3193,2.1632,1.873,1.4603,1.2806,1.142,1.0387,0.8906,0.8395,0.871,0.0,0.9076,0.9373,0.9849,1.0069,1.0099,1.0429,1.0541,1.0558,1.0677,1.0688,1.0733,1.1,1.1009,1.1158,1.2535,1.3429,1.4476,1.6835,1.7943,1.8624,1.9611,2.003,2.015,1.9947,1.9846,1.974,1.9542,1.9441,1.9395,1.9395,1.9395,1.8873,1.7121,1.6309,0.0,0.0,0.0,0.0,0.0,0.0,0.0,0.0,0.0,0.0,0.0,0.0,0.0,0.0,0.0,0.0,1.4571,0.0,1.5384,0.0,1.6338,1.4999,1.4145,0.0,1.1222,1.0188,1.0514,1.0885,1.1339,1.3713,1.4456,1.397,1.6372,1.663,1.5204,1.3484,1.2738,1.261,1.1244,1.0688,1.0688,1.0688,1.0688,1.0688,2.1633,2.0876,2.0502,2.0812,2.0128,1.9879,2.0845,2.1036,2.1682,2.3371,2.2317,2.2503,2.5495,2.4754,2.4632,2.6106,2.637,2.647,2.647,2.647,2.7043,2.8328,2.6979,2.7549,3.0548,2.8676,2.693,2.5391,0.0,1.9951,1.6399,1.37,1.1334,0.9295,0.8169,0.0,0.0,0.8832,0.9227,0.9788,1.0124,1.0259,1.029,1.0585,1.0667,1.0667,1.0714,1.0688,1.0946,1.2525,1.3025,1.3016,1.3071,1.5174,1.763,1.7809,1.8868,2.0008,2.014,2.0184,2.0197,2.017,1.9993,1.9793,1.9766,1.9582,1.9395,1.9395,1.9395,1.8933,1.744,1.7909,1.8087,0.0,0.0,0.0,0.0,0.0,0.0,0.0,0.0,0.0,0.0,0.0,0.0,0.0,1.323,0.0,0.0,0.0,1.5194,1.682,1.4426,1.2941,1.2617,1.1008,1.0095,0.9839,1.0304,1.1421,1.2997,1.1765,1.2836,1.5589,1.4325,1.3676,1.3419,1.1666,1.0946,1.0916,1.075,1.0688,1.0688,1.0688,1.0688,1.0688,2.2088,2.1366,2.1044,2.1248,2.0763,2.085,2.2341,2.1713,2.2059,2.4678,2.2726,2.1601,2.2913,2.338,2.424,2.5855,2.6006,2.6401,2.7383,2.6522,2.5863,2.5544,2.4901,2.5177,2.6495,2.6385,2.5749,0.0,0.0,2.0371,1.6697,1.3803,1.1134,0.8777,0.0,0.8874,0.8858,0.949,0.988,1.0114,1.0324,1.0409,1.0429,1.0639,1.0688,1.0688,1.0688,1.0688,1.0982,1.2705,1.3292,1.3668,1.5711,1.726,1.8497,1.9342,2.0144,2.0722,2.0548,2.0628,2.0715,2.0541,2.0281,2.0013,1.984,1.9579,1.9395,1.9395,1.9395,1.9214,1.8618,1.7989,1.7926,1.8984,0.0,0.0,0.0,0.0,0.0,0.0,0.0,0.0,0.0,0.0,0.0,0.0,0.0,0.0,0.0,0.0,1.3958,1.4461,1.4825,1.4004,1.1887,1.1702,1.1156,1.0226,1.0497,1.1015,1.1762,1.2088,1.3033,1.4232,1.2512,1.1729,1.1696,1.0979,1.0688,1.0688,1.0688,1.0688,1.0688,1.0688,1.0688,1.0688,2.2127,2.1822,2.1801,2.2127,2.195,2.2171,2.3401,2.2191,2.1933,2.4247,2.2546,2.1292,2.179,2.2435,2.3318,2.4463,2.4555,2.5039,2.6167,2.5192,2.4286,2.3636,2.3146,2.3535,2.497,2.5345,2.5516,2.5573,2.3838,2.139,1.8306,1.4219,1.1074,0.0,0.9399,0.9516,0.9345,1.0012,1.0312,1.0325,1.0436,1.049,1.051,1.0663,1.0688,1.0688,1.0688,1.0688,1.1045,1.3292,1.4068,1.4586,1.7564,1.8864,1.9477,2.0511,2.0949,2.1069,2.0862,2.0955,2.1056,2.0855,2.0581,2.0257,1.9993,1.97,1.9502,1.9415,1.9395,1.9395,1.9395,1.8364,1.7993,1.9563,0.0,0.0,0.0,2.36,0.0,0.0,2.331,2.2369,2.0097,1.7829,0.0,0.0,0.0,0.0,0.0,0.0,0.0,0.0,0.0,0.0,1.1296,1.1764,1.1479,1.0493,1.0646,1.0688,1.0754,1.196,1.2545,1.2479,1.1244,1.0688,1.0688,1.0688,1.0688,1.0688,1.0688,1.0688,1.0688,1.0688,1.0688,1.0688,2.1437,2.1933,2.2473,2.3403,2.3582,2.359,2.3597,2.2191,2.1109,2.1134,2.1109,2.1727,2.3387,2.2097,2.1141,2.1172,2.1172,2.1172,2.1204,2.1172,2.1877,0.0,2.2003,2.3396,2.8239,2.6794,2.7139,2.9531,0.0,2.3412,2.2002,1.5255,1.1264,0.9766,0.937,0.9623,1.0263,1.0308,1.0312,1.0325,1.0436,1.049,1.051,1.0663,1.0688,1.0688,1.0688,1.0688,1.1244,1.4716,1.5881,1.6177,1.7956,1.9674,2.1077,2.1102,2.1109,2.1109,2.1109,2.1109,2.1109,2.1109,2.0882,2.0625,2.0264,2.0,1.9713,1.9455,1.9395,1.9395,1.9395,1.9381,1.8886,1.7486,0.0,0.0,0.0,2.1737,0.0,2.1226,1.8995,1.7741,1.8373,1.5397,0.0,0.0,0.0,0.0,0.0,0.0,0.0,1.4292,1.335,0.0,1.0711,1.0447,1.0383,1.0493,1.0646,1.0688,1.0688,1.0717,1.0721,1.0721,1.0721,1.0688,1.0688,1.0688,1.0688,1.0688,1.0688,1.0688,1.0688,1.0688,1.0688,1.0688,2.144,2.1348,2.1524,2.1829,2.1908,2.2278,2.3419,2.2191,2.1513,2.2654,2.1821,2.1292,2.1853,2.1418,2.1576,2.2709,2.1758,2.1607,0.0,2.1727,2.1324,2.1877,2.1387,2.1846,2.3396,2.4047,2.4588,2.5016,0.0,0.0,0.0,1.2727,1.0563,1.0148,1.0101,1.023,1.0432,1.0534,1.0578,1.0585,1.0629,1.0649,1.0653,1.0667,1.0688,1.0688,1.0688,1.0688,1.1045,1.3357,1.4912,1.6205,1.7956,1.9712,2.1109,2.1109,2.1109,2.1109,2.1109,2.1109,2.1109,2.1109,2.0895,2.0679,2.0561,2.0154,1.9773,1.9679,1.9535,1.9395,1.9395,1.9395,1.9241,1.8766,2.0202,0.0,2.2757,0.0,2.4336,2.4177,2.4032,2.3676,0.0,1.9748,0.0,0.0,0.0,0.0,0.0,0.0,0.0,0.0,1.3229,0.0,0.9849,1.0135,1.0402,1.0649,1.0664,1.0688,1.0688,1.0688,1.0688,1.0688,1.0688,1.0688,1.0688,1.0688,1.0688,1.0688,1.0688,1.0688,1.0688,1.0688,1.0688,1.0688,2.1292,2.1601,2.2034,2.2034,2.2034,2.2404,2.345,2.2191,2.1481,2.2529,2.1758,2.1109,2.1109,2.1109,0.0,2.256,2.1695,2.1538,2.2584,2.1695,2.1109,2.1109,2.1109,2.1387,2.2034,2.3052,0.0,2.3815,2.2178,1.8793,1.3794,1.2045,1.0925,1.0368,1.0514,1.0578,1.0582,1.0647,1.0688,1.0688,1.0688,1.0688,1.0688,1.0688,1.0688,1.0688,1.0688,1.0688,1.0982,1.2705,1.446,1.6205,1.7956,1.9712,2.1109,2.1109,2.1109,2.1109,2.1109,2.1109,2.1109,2.1109,2.0969,2.0808,2.0733,2.0221,1.98,1.98,1.9602,1.9395,1.9395,1.9395,1.9395,1.9395,2.0644,2.2117,2.3599,2.4711,2.5329,0.0,0.0,0.0,0.0,2.0739,1.913,0.0,0.0,0.0,0.0,0.0,1.4292,1.2019,1.3718,1.308,0.978,1.0144,1.048,1.0688,1.0688,1.1045,1.1666,1.1012,1.0688,1.0688,1.0688,1.0688,1.0688,1.0688,1.0688,1.0688,1.0688,1.0688,1.0688,1.0688,1.0688,1.0688,2.1109,2.2372,2.3419,2.3419,2.3419,2.3419,2.3419,2.2097,2.1109,2.1109,2.1109,2.1109,2.1109,2.1109,2.1109,2.1109,0.0,0.0,2.1109,2.1109,2.1109,2.1109,2.1109,2.1821,2.3387,2.3318,2.3687,2.4631,2.1141,1.7121,1.2697,1.2746,1.1939,1.0514,1.0623,1.0688,1.0688,1.0688,1.0688,1.0688,1.0688,1.0688,1.0688,1.0688,1.0688,1.0688,1.0688,1.0688,1.0949,1.2578,1.4362,1.6172,1.7795,1.961,2.1109,2.1109,2.1109,2.1109,2.1109,2.1109,2.1109,2.1109,2.1109,2.1036,2.0768,2.0267,1.9853,1.9833,1.9599,1.9421,1.9401,1.9395,1.9395,1.9395,2.0644,2.2117,2.3599,2.4655,2.5095,2.4582,0.0,0.0,2.1746,1.9207,1.8354,0.0,0.0,1.837,1.837,0.0,1.4419,1.4213,1.4476,1.3256,1.034,1.0422,1.0568,1.0688,1.0688,1.1534,1.3062,1.1439,1.0688,1.0688,1.0688,1.0688,1.0688,1.0688,1.0688,1.0688,1.0688,1.0688,1.0688,1.0688,1.0688,1.0688,0.0,0.0,2.1695,2.1695,2.1695,2.1695,2.1695,2.1355,2.1109,2.1109,2.1109,2.1109,2.1109,2.1109,2.1109,2.1109,2.1109,2.1109,2.1109,2.1109,2.1109,2.1109,2.1109,2.1292,2.1695,2.0392,1.9082,1.781,1.5746,1.4065,1.2822,1.1626,1.0906,1.0633,1.0704,1.0688,1.0688,1.0688,1.0688,1.0688,1.0688,1.0688,1.0688,1.0688,1.0688,1.0688,1.0688,1.0688,1.075,1.1178,1.3353,1.5978,1.6404,1.864,2.1109,2.1109,2.1109,2.1109,2.1109,2.1109,2.1109,2.1109,2.1109,2.1089,2.1022,2.0728,2.0408,2.0144,1.99,1.9633,1.9435,1.9395,1.9395,1.9395,2.0644,2.2117,2.3599,2.4025,2.4546,2.5587,2.4271,2.3278,2.3278,2.1421,1.9933,0.0,0.0,1.7128,1.7128,1.5588,1.4579,1.4215,1.3405,1.2097,1.0312,1.0422,1.0568,1.0688,1.0688,1.0916,1.1306,1.0883,1.0688,1.0688,1.0688,1.0688,1.0688,1.0688,1.0688,1.0688,1.0688,1.0688,1.0688,1.0688,1.0688,1.0688,2.1109,2.1109,2.1109,2.1109,2.1109,2.1109,2.1109,2.1109,2.1109,2.1109,2.1109,2.0817,2.0005,1.9903,1.9578,1.88,2.0164,2.1109,2.1109,2.1109,2.1109,2.1109,2.0329,1.9903,1.9903,1.8212,1.6374,1.4488,1.3621,1.2755,1.1888,1.0985,1.0639,1.0688,1.0688,1.0688,1.0688,1.0688,1.0688,1.0688,1.0688,1.0688,1.0688,1.0688,1.0688,1.0688,1.0688,1.0688,1.0817,1.1633,1.3681,1.6043,1.6856,1.8928,2.1109,2.1109,2.1109,2.1109,2.1109,2.1109,2.1109,2.1109,2.1109,2.1109,2.1109,2.0882,2.0666,2.0468,2.01,1.9753,1.9622,1.9488,1.9395,1.9395,2.0644,2.189,2.2674,2.3375,2.41,2.4958,2.371,2.2786,2.2786,2.1295,1.9982,1.9188,1.8391,0.0,1.6894,1.5489,1.46,1.4397,1.3097,1.1728,1.0312,1.049,1.1027,1.1894,1.1078,1.1111,1.1861,1.1045,1.0688,1.0688,1.0688,1.0688,1.0688,1.0688,1.0688,1.0688,1.0688,1.0688,1.0688,1.0688,1.0688,1.0688,2.1109,2.1109,2.1109,2.1109,2.1109,2.1109,2.1109,2.1109,2.1014,2.0754,2.0722,2.003,1.8314,1.8122,1.7506,1.6048,1.8602,2.0329,2.0329,2.0329,2.0329,2.0329,1.8896,1.8122,1.8122,1.6404,1.4651,1.2902,1.2902,1.2153,1.0688,1.0688,1.0688,1.0688,1.0688,1.0688,1.0688,1.0688,1.0688,1.0688,1.0688,1.0688,1.0688,1.0688,1.0688,1.0688,1.0688,1.0883,1.1306,1.2804,1.4619,1.656,1.802,1.9712,2.1109,2.1109,2.1109,2.1109,2.1109,2.1109,2.1109,2.1109,2.1109,2.1109,2.1109,2.0915,2.0759,2.0719,2.0247,1.9853,1.9806,1.9589,1.9341,1.9154,2.0323,2.1271,2.1317,2.238,2.3215,2.3431,2.2173,2.128,2.128,2.0148,1.9395,1.9395,1.9395,1.8706,1.7085,1.5459,1.45,1.4262,1.2839,1.1533,1.0376,1.0595,1.1439,1.2902,1.1406,1.1468,1.2869,1.1372,1.0688,1.0688,1.0688,1.0688,1.0688,1.0688,1.0688,1.0688,1.0688,1.0688,1.0688,1.0688,1.0688,1.0688,2.1109,2.1109,2.1109,2.1109,2.1109,2.1109,2.1109,2.1109,2.0557,1.9094,1.8896,1.825,1.6496,1.6302,1.6205,1.5913,1.6404,1.6722,1.6722,1.6722,1.6722,1.6722,1.6463,1.6302,1.6302,1.4586,1.2836,1.1111,1.1111,1.0982,1.0688,1.0688,1.0688,1.0688,1.0688,1.0688,1.0688,1.0688,1.0688,1.0688,1.0688,1.0688,1.0688,1.0688,1.0688,1.0688,1.0688,1.1666,1.2935,1.3226,1.5427,1.8154,1.841,1.9712,2.1109,2.1109,2.1109,2.1109,2.1109,2.1109,2.1109,2.1109,2.1109,2.1109,2.1109,2.1076,2.0969,2.0759,2.0401,2.0064,1.9846,1.9589,1.9067,1.805,1.8921,1.9814,2.0038,2.0084,2.0537,2.1784,2.0651,1.9729,1.9729,1.9533,1.9395,1.9395,1.9395,1.8706,1.7085,1.5459,1.4031,1.2782,1.1373,1.0628,1.0649,1.0664,1.085,1.1111,1.0817,1.085,1.1078,1.0817,1.0688,1.0688,1.0688,1.0688,1.0688,1.0688,1.0688,1.0688,1.0688,1.0688,1.0688,1.0688,1.0688,1.0688,1.9712,2.0456,2.1109,2.1109,2.1109,2.1109,2.1109,2.0291,1.9413,1.8602,1.7667,1.6436,1.4684,1.4488,1.4134,1.3193,1.3095,1.3095,1.3095,1.4847,1.5913,1.5913,1.5009,1.4068,1.3128,1.2318,1.1501,1.0688,1.0688,1.0688,1.0688,1.0688,1.0688,1.0688,1.0688,1.0688,1.0688,1.0688,1.0688,1.0688,1.0688,1.0688,1.0688,1.0688,1.0688,1.0688,1.0688,1.1828,1.3451,1.4395,1.6404,1.8672,1.961,2.0456,2.1109,2.1109,2.1109,2.1109,2.1109,2.1109,2.1109,2.1109,2.1109,2.1109,2.1109,2.1109,2.1069,2.0935,2.0675,2.0381,2.0057,1.98,1.9401,1.8685,1.9033,1.9452,1.9569,1.9488,1.9642,2.0335,1.9809,1.9395,1.9395,1.9395,1.9033,1.8163,1.8104,1.7032,1.4564,1.3706,1.2612,1.1042,1.0605,1.046,1.0595,1.0647,1.0688,1.0688,1.0688,1.0688,1.0688,1.0688,1.0688,1.0688,1.0688,1.0688,1.0688,1.0688,1.0688,1.0688,1.0688,1.0688,1.0688,1.0688,1.0688,1.0688,1.8506,1.9903,2.1109,2.1109,2.0748,2.0487,2.0487,1.9024,1.7763,1.7339,1.614,1.4619,1.2902,1.2705,1.2153,1.0817,1.0688,1.0688,1.0688,1.3193,1.4684,1.4684,1.3419,1.2055,1.0721,1.0688,1.0688,1.0688,1.0688,1.0688,1.0688,1.0688,1.0688,1.0688,1.0688,1.0688,1.0688,1.0688,1.0688,1.0688,1.0688,1.0688,1.0688,1.0688,1.0688,1.0754,1.1144,1.2413,1.4166,1.5918,1.7667,1.9349,2.0684,2.1109,2.1109,2.1109,2.1109,2.1109,2.1109,2.1109,2.1109,2.1109,2.1109,2.1109,2.1109,2.1109,2.1109,2.1109,2.0882,2.0612,2.0257,1.9993,1.9613,1.9073,1.9214,1.9179,1.8529,1.866,1.8706,1.8321,1.8292,1.8292,1.8292,1.8292,1.7783,1.6521,1.6433,1.5187,1.2363,1.2213,1.1488,0.9903,1.0209,1.0405,1.0443,1.0592,1.0633,1.0633,1.0704,1.0688,1.0688,1.0688,1.0688,1.0688,1.0688,1.0688,1.0688,1.0688,1.0688,1.0688,1.0688,1.0688,1.0688,1.0688,1.0688,1.0688,1.8506,1.9903,2.1109,2.1109,1.9776,1.8704,1.8704,1.7211,1.5524,1.3905,1.3582,1.2836,1.1078,1.0883,1.085,1.0721,1.0688,1.0688,1.0688,1.0949,1.1078,1.1078,1.0949,1.0817,1.0688,1.0688,1.0688,1.0688,1.0688,1.0688,1.0688,1.0688,1.0688,1.0688,1.0688,1.0688,1.0688,1.0688,1.0688,1.0688,1.0688,1.0688,1.0688,1.0688,1.0688,1.0916,1.2545,1.4232,1.5978,1.7731,1.9483,2.0912,2.1046,2.1109,2.1109,2.1109,2.1109,2.1109,2.1109,2.1109,2.1109,2.1109,2.1109,2.1109,2.1109,2.1109,2.1109,2.1109,2.0882,2.0612,2.0257,1.9993,1.9345,1.797,1.8672,1.8487,1.5871,1.6482,1.6615,1.5138,1.496,1.496,1.496,1.496,1.4901,1.4782,1.4782,1.4034,1.2303,1.2213,1.1513,1.0029,1.0035,1.012,1.0293,1.0436,1.051,1.051,1.0653,1.0688,1.0688,1.0688,1.0688,1.0688,1.0688,1.0688,1.0688,1.0688,1.0688,1.0688,1.0688,1.0688,1.0688,1.0688,1.0688,1.0688,1.5269,1.6695,1.7891,1.7891,1.7339,1.6888,1.6888,1.5394,1.3663,1.187,1.1673,1.0998,0.9205,1.0047,1.0688,1.0688,1.0688,1.0688,1.0688,1.0688,1.0688,1.0688,1.0688,1.0688,1.0688,1.0688,1.0688,1.0688,1.0688,1.0688,1.0688,1.0688,1.0688,1.0688,1.0688,1.0688,1.0688,1.0688,1.0688,1.0688,1.0688,1.0688,1.0688,1.0688,1.1372,1.2413,1.3062,1.5107,1.7602,1.8282,1.9642,2.1109,2.1109,2.1109,2.1109,2.1109,2.1109,2.1109,2.1109,2.0982,2.0882,2.1069,2.0969,2.0889,2.1069,2.1109,2.1109,2.1109,2.1022,2.0802,2.029,2.011,1.9766,1.8866,1.8272,1.7542,1.6467,1.5845,1.5281,1.4663,1.4604,1.4604,1.4604,1.4604,1.4183,1.3198,1.3108,1.2423,1.0808,1.0721,1.0447,0.9907,0.9876,0.9998,1.0312,1.0422,1.049,1.0493,1.0646,1.0688,1.0688,1.0688,1.0688,1.0688,1.0688,1.0688,1.0688,1.0688,1.0688,1.0688,1.0688,1.0688,1.0688,1.0688,1.0688,1.0688,1.3292,1.4716,1.5913,1.5913,1.5459,1.4902,1.4326,1.2771,1.1197,0.9957,0.982,0.9609,0.8936,0.9945,1.0688,1.0688,1.0688,1.0688,1.0688,1.0688,1.0688,1.0688,1.0688,1.0688,1.0688,1.0688,1.0688,1.0688,1.0688,1.0688,1.0688,1.0688,1.0688,1.0688,1.0688,1.0688,1.0688,1.0688,1.0688,1.0688,1.0688,1.0688,1.0688,1.0688,1.1795,1.3353,1.3905,1.601,1.857,1.9126,2.01,2.1109,2.1109,2.1109,2.1109,2.1109,2.1109,2.1109,2.1109,2.0895,2.0742,2.1036,2.0895,2.0786,2.1042,2.1109,2.1109,2.1109,2.1036,2.0822,2.0297,1.9724,1.9165,1.8719,1.7302,1.6079,1.5572,1.454,1.3651,1.3138,1.3083,1.3083,1.3083,1.3083,1.2633,1.1529,1.1438,1.0959,0.9852,0.9792,0.9792,0.9792,0.9839,0.9964,1.0205,1.0351,1.0449,1.0493,1.0646,1.0688,1.0688,1.0688,1.0688,1.0688,1.0688,1.0688,1.0688,1.0688,1.0688,1.0688,1.0688,1.0688,1.0688,1.0688,1.0688,1.0688,1.3292,1.4684,1.5848,1.5848,1.4428,1.2648,1.0833,0.9107,0.7997,0.7997,0.7997,0.8701,1.0485,1.0688,1.0688,1.0688,1.0688,1.0688,1.0688,1.0688,1.0688,1.0688,1.0688,1.0688,1.0688,1.0688,1.0688,1.0688,1.0688,1.0688,1.0688,1.0688,1.0688,1.0688,1.0688,1.0688,1.0688,1.0688,1.0688,1.0688,1.0688,1.0688,1.0688,1.0688,1.1795,1.355,1.5269,1.7017,1.8768,2.0526,2.1077,2.1077,2.1077,2.1077,2.1077,2.1109,2.1109,2.1109,2.1109,2.0895,2.0742,2.1036,2.0895,2.0786,2.1042,2.1109,2.1109,2.1109,2.0882,2.0581,2.025,1.8662,1.7321,1.7038,1.5636,1.4034,1.2423,1.2183,1.1585,1.0001,0.9792,0.9792,0.9792,0.9792,0.9792,0.9792,0.9792,0.9792,0.9792,0.9792,0.9792,0.9792,0.994,0.9987,0.9987,1.0205,1.0383,1.0493,1.0646,1.0688,1.0688,1.0688,1.0688,1.0688,1.0688,1.0688,1.0688,1.0688,1.0688,1.0688,1.0688,1.0688,1.0688,1.0688,1.0688,1.0688,1.1468,1.1894,1.2248,1.2248,1.0783,0.9383,0.8847,0.8324,0.7564,0.6331,0.8338,0.9609,0.887,0.9945,1.0688,1.0688,1.0688,1.0688,1.0688,1.0688,1.0688,1.0688,1.0688,1.0688,1.0688,1.0688,1.0688,1.0688,1.0688,1.0688,1.0688,1.0688,1.0688,1.0688,1.0688,1.0688,1.0688,1.0688,1.0688,1.0688,1.0688,1.0688,1.0688,1.0688,1.2541,1.5204,1.5719,1.7795,2.0392,2.0912,2.0297,1.9285,1.9285,1.9285,1.9515,2.0754,2.1109,2.1109,2.1109,2.0895,2.0742,2.1036,2.0895,2.0786,2.1042,2.1109,2.1049,2.0848,2.0766,2.0207,1.853,1.7763,1.6932,1.5526,1.3974,1.2753,1.2273,1.1227,1.0331,0.9852,0.9792,0.9792,0.9792,0.9792,0.9792,0.9792,0.9792,0.9792,0.9792,0.9792,0.9792,0.9792,0.994,1.0069,1.0212,1.0354,1.0449,1.0493,1.0646,1.0688,1.0688,1.0688,1.0688,1.0688,1.0688,1.0688,1.0688,1.0688,1.0688,1.0688,1.0688,1.0688,1.0688,1.0688,1.0688,1.0688,1.0688,1.0688,1.0485,0.9742,0.9305,0.8604,0.7198,0.7564,0.7631,0.6564,0.8302,0.9474,0.9105,1.0047,1.0688,1.0688,1.0688,1.0688,1.0688,1.0688,1.0688,1.0688,1.0688,1.0688,1.0688,1.0688,1.0688,1.0688,1.0688,1.0688,1.0688,1.0688,1.0688,1.0688,1.0688,1.0688,1.0688,1.0688,1.0688,1.0688,1.0688,1.0688,1.0688,1.0688,1.2446,1.4977,1.5659,1.7243,1.9158,1.9839,1.8896,1.7468,1.7468,1.7468,1.7827,1.9546,2.0068,2.0227,2.0912,2.0982,2.0889,2.1069,2.0895,2.0786,2.1042,2.1022,2.0725,1.9905,1.9569,1.8777,1.6799,1.5847,1.4956,1.3844,1.2303,1.1257,1.1257,1.0422,0.9792,0.9792,0.9792,0.9792,0.9792,0.9792,0.9792,0.9792,0.9792,0.9792,0.9792,0.9792,0.9792,0.9792,0.994,1.0092,1.0312,1.0422,1.0521,1.0582,1.0677,1.0654,1.0629,1.0629,1.0629,1.0629,1.0629,1.0663,1.0688,1.0688,1.0688,1.0688,1.0688,1.0688,1.0688,1.0688,1.0688,1.0688,1.0688,1.0688,1.018,0.8535,0.9474,0.9377,0.6132,0.6965,0.7997,0.7997,0.813,0.887,1.0518,1.0688,1.0688,1.0688,1.0688,1.0688,1.0688,1.0688,1.0688,1.0688,1.0688,1.0688,1.0688,1.0688,1.0688,1.0688,1.0688,1.0688,1.0688,1.0688,1.0688,1.0688,1.0688,1.0688,1.0688,1.0688,1.0688,1.0688,1.0688,1.0688,1.0688,1.0688,1.1894,1.3713,1.5139,1.5881,1.6334,1.7602,1.6985,1.5654,1.5654,1.5654,1.601,1.7763,1.8265,1.8599,2.0195,2.06,2.0612,2.0612,2.0416,2.0329,2.0775,2.0542,1.9829,1.831,1.7581,1.6707,1.5054,1.3351,1.2153,1.2006,1.0751,0.9792,0.9792,0.9792,0.9792,0.9792,0.9792,0.9792,0.9792,0.994,1.0061,1.021,1.0102,1.0021,1.0021,0.9913,0.9832,0.9832,0.9967,1.0106,1.0312,1.0409,1.0558,1.0688,1.0688,1.0639,1.049,1.0507,1.0504,1.049,1.0507,1.0592,1.0688,1.0688,1.0688,1.0688,1.0688,1.0688,1.0688,1.0688,1.0688,1.0688,1.0688,1.0688,1.0585,1.018,0.9271,0.8332,0.7564,0.7764,0.7997,0.7997,0.9238,1.0246,1.0651,1.0688,1.0688,1.0688,1.0688,1.0688,1.0688,1.0688,1.0688,1.0688,1.0688,1.0688,1.0688,1.0688,1.0688,1.0688,1.0688,1.0688,1.0688,1.0688,1.0688,1.0688,1.0688,1.0688,1.0688,1.0688,1.0688,1.0688,1.0688,1.0688,1.0688,1.0688,1.2639,1.5204,1.4232,1.5627,1.757,1.5232,1.4166,1.3872,1.3872,1.3872,1.4199,1.5951,1.6397,1.6382,1.6768,1.6795,1.6721,1.6721,1.6682,1.7015,1.8556,1.7808,1.6584,1.5847,1.5603,1.4963,1.3143,1.2479,1.1796,1.0539,1.0031,0.9792,0.9792,0.9792,0.9792,0.9792,0.9792,0.9792,0.9792,1.0929,1.2213,1.3467,1.2504,1.1828,1.1828,1.0794,1.0181,1.0181,1.0212,1.0246,1.0312,1.0342,1.046,1.0688,1.0688,1.0639,1.0493,1.0616,1.0605,1.05,1.0619,1.0657,1.0688,1.0688,1.0688,1.0688,1.0688,1.0688,1.0688,1.0688,1.0688,1.0688,1.0688,1.0688,1.0416,0.9573,0.9341,0.9003,0.813,0.8737,0.9271,0.9271,1.0114,1.0688,1.0688,1.0688,1.0688,1.0688,1.0688,1.0688,1.0688,1.0688,1.0688,1.0688,1.0688,1.0688,1.0688,1.0688,1.0688,1.0688,1.0688,1.0688,1.0688,1.0688,1.0688,1.0688,1.0688,1.0688,1.0688,1.0688,1.0688,1.0688,1.0688,1.0688,1.0688,1.0688,1.1828,1.3419,1.332,1.4456,1.5627,1.2964,1.2055,1.2055,1.2055,1.2055,1.2413,1.4166,1.4567,1.4626,1.5479,1.5611,1.551,1.551,1.4862,1.4731,1.656,1.6127,1.5077,1.4057,1.3751,1.3144,1.1394,1.105,1.0781,0.994,0.9792,0.9792,0.9792,0.9792,0.9792,0.9792,0.9792,1.0088,1.0868,1.2393,1.3389,1.3551,1.2839,1.211,1.1424,1.0707,1.0312,1.0312,1.0209,1.0205,1.0312,1.0209,1.0287,1.051,1.0578,1.0568,1.0493,1.0575,1.0568,1.0497,1.0575,1.0653,1.0688,1.0688,1.0688,1.0688,1.0688,1.0688,1.0688,1.0688,1.0688,1.0688,1.0688,1.0688,1.0216,0.8734,0.9709,1.018,0.8701,0.9742,1.0688,1.0688,1.0688,1.0688,1.0688,1.0688,1.0688,1.0688,1.0688,1.0688,1.0688,1.0688,1.0688,1.0688,1.0688,1.0688,1.0688,1.0688,1.0688,1.0688,1.0688,1.0688,1.0688,1.0688,1.0688,1.0688,1.0688,1.0688,1.0688,1.0688,1.0688,1.0688,1.0688,1.0688,1.0688,1.0688,1.0883,1.1303,1.241,1.282,1.2599,1.1167,1.0688,1.0688,1.0688,1.0688,1.0979,1.2446,1.2751,1.2931,1.4384,1.4654,1.4527,1.4527,1.3452,1.274,1.4192,1.4329,1.376,1.2388,1.1928,1.1378,1.0061,0.9792,0.9792,0.9792,0.9792,0.9792,0.9792,0.9792,0.9792,0.9792,1.0031,1.0838,1.2453,1.383,1.4201,1.3257,1.269,1.1903,1.077,1.0459,1.0327,1.0354,1.0174,1.0143,1.0312,1.0096,1.0082,1.0243,1.0385,1.0456,1.0456,1.0507,1.0517,1.0493,1.0521,1.0602,1.0688,1.0688,1.0688,1.0688,1.0688,1.0688,1.0688,1.0688,1.0688,1.0688,1.0688,1.0688,1.0621,1.0382,1.0552,1.0621,1.0382,1.0552,1.0688,1.0688,1.0688,1.0688,1.0688,1.0688,1.0688,1.0688,1.0688,1.0688,1.0688,1.0688,1.0688,1.0688,1.0688,1.0688,1.0688,1.0688,1.0688,1.0688,1.0688,1.0688,1.0688,1.0688,1.0688,1.0688,1.0688,1.0688,1.0688,1.0688,1.0688,1.0688,1.0688,1.0688,1.0688,1.0688,1.1633,1.2783,1.1373,1.0875,1.0863,1.0739,1.0688,1.0688,1.0688,1.0688,1.0754,1.0979,1.0878,1.0718,1.0969,1.0807,1.0574,1.0574,1.0395,1.0273,1.0513,1.0638,1.0593,1.0239,1.0163,1.0061,0.9849,0.9792,0.9792,0.9792,0.9792,0.9792,0.9792,0.9792,0.9792,0.9792,1.102,1.2513,1.4123,1.4485,1.5084,1.6301,1.3914,1.2395,1.2385,1.1183,1.0524,1.0623,1.0514,1.0382,1.0315,1.0096,0.9997,1.0052,1.0236,1.0342,1.0317,1.0571,1.0616,1.05,1.0633,1.0667,1.0688,1.0688,1.0688,1.0688,1.0688,1.0688,1.0688,1.0688,1.0688,1.0688,1.0485,0.9878,0.9507,1.0518,1.0688,1.0688,1.0688,1.0688,1.0688,1.0688,1.0688,1.0688,1.0688,1.0688,1.0688,1.0688,1.0688,1.0688,1.0688,1.0688,1.0688,1.0688,1.0688,1.0688,1.0688,1.0688,1.0688,1.0688,1.0688,1.0688,1.0688,1.0688,1.0688,1.0688,1.0688,1.0688,1.0688,1.0688,1.0688,1.0688,1.0688,1.0688,1.0688,1.0688,1.1121,1.1634,1.0712,1.0426,1.0504,1.0568,1.0649,1.0688,1.0688,1.0688,1.0688,1.0688,1.051,1.0312,1.0312,1.0056,0.9792,0.9792,0.9792,0.9792,0.9792,0.9842,0.9869,0.9805,0.9792,0.9792,0.9792,0.9792,0.9792,0.9792,0.9792,0.9792,0.9792,0.9792,0.9792,0.9792,1.1227,1.2483,1.3198,1.4063,1.4565,1.444,1.3179,1.213,1.1488,1.0837,1.0561,1.0714,1.0571,1.0454,1.0315,1.0096,0.9978,0.9893,1.0045,1.0236,1.0405,1.0622,1.0683,1.0622,1.0657,1.0688,1.0688,1.0688,1.0688,1.0688,1.0688,1.0688,1.0688,1.0688,1.0688,1.0688]},{"header":{"parameterUnit":"m.s-1","parameterCategory":1,"la1":30.6,"la2":28.766,"lo1":-90.7593,"lo2":-88.6598,"dx":0.0162,"dy":0.0183,"nx":116,"ny":114,"refTime":"2022-11-13T18:00:00:Z","depth":0,"parameterNumber":3,"parameterNumberName":"V-component_of_WINDS"},"data":[0.0,0.0,0.0,0.0,0.0,0.0,0.0,0.0,0.0,0.0,0.0,0.0,0.0,0.0,0.0,0.0,0.0,0.0,0.0,0.0,0.0,0.0,0.0,0.0,0.0,0.0,0.0,0.0,0.0,0.0,0.0,0.0,0.0,0.0,0.0,0.0,0.0,0.0,0.0,0.0,0.0,0.0,0.0,0.0,0.0,0.0,0.0,0.0,0.0,0.0,0.0,0.0,0.0,0.0,0.0,0.0,0.0,0.0,0.0,0.0,0.0,0.0,0.0,0.0,0.0,0.0,0.0,0.0,0.0,0.0,0.0,0.0,0.0,0.0,0.0,0.0,0.0,0.0,0.0,0.0,0.0,0.0,0.0,0.0,0.0,0.0,0.0,0.0,0.0,0.0,0.0,0.0,0.0,0.0,0.0,0.0,0.0,0.0,0.0,0.0,0.0,0.0,0.0,0.0,0.0,0.0,0.0,0.0,0.0,0.0,0.0,0.0,0.0,0.0,0.0,0.0,0.0,0.0,0.0,0.0,0.0,0.0,0.0,0.0,0.0,0.0,0.0,0.0,0.0,0.0,0.0,0.0,0.0,0.0,0.0,0.0,0.0,0.0,0.0,0.0,0.0,0.0,0.0,0.0,0.0,0.0,0.0,0.0,0.0,0.0,0.0,0.0,0.0,0.0,0.0,0.0,0.0,0.0,0.0,0.0,0.0,0.0,0.0,0.0,0.0,0.0,0.0,0.0,0.0,0.0,0.0,0.0,0.0,0.0,0.0,0.0,0.0,0.0,0.0,0.0,0.0,0.0,0.0,0.0,0.0,0.0,0.0,0.0,0.0,0.0,0.0,0.0,0.0,0.0,0.0,0.0,0.0,0.0,0.0,0.0,0.0,0.0,0.0,0.0,0.0,0.0,0.0,0.0,0.0,0.0,0.0,0.0,0.0,0.0,0.0,0.0,0.0,0.0,0.0,0.0,0.0,0.0,0.0,0.0,0.0,0.0,0.0,0.0,0.0,0.0,0.0,0.0,0.0,0.0,0.0,0.0,0.0,0.0,0.0,0.0,0.0,0.0,0.0,0.0,0.0,0.0,0.0,0.0,0.0,0.0,0.0,0.0,0.0,0.0,0.0,0.0,0.0,0.0,0.0,0.0,0.0,0.0,0.0,0.0,0.0,0.0,0.0,0.0,0.0,0.0,0.0,0.0,0.0,0.0,0.0,0.0,0.0,0.0,0.0,0.0,0.0,0.0,0.0,0.0,0.0,0.0,0.0,0.0,0.0,0.0,0.0,0.0,0.0,0.0,0.0,0.0,0.0,0.0,0.0,0.0,0.0,0.0,0.0,0.0,0.0,0.0,0.0,0.0,0.0,0.0,0.0,0.0,0.0,0.0,0.0,0.0,0.0,0.0,0.0,0.0,0.0,0.0,0.0,0.0,0.0,0.0,0.0,0.0,0.0,0.0,0.0,0.0,0.0,0.0,0.0,0.0,0.0,0.0,0.0,0.0,0.0,0.0,0.0,0.0,0.0,0.0,0.0,0.0,0.0,0.0,0.0,0.0,0.0,0.0,0.0,0.0,0.0,0.0,0.0,0.0,0.0,0.0,0.0,0.0,0.0,0.0,0.0,0.0,0.0,0.0,0.0,0.0,0.0,0.0,0.0,0.0,0.0,0.0,0.0,0.0,0.0,0.0,0.0,0.0,0.0,0.0,0.0,0.0,0.0,0.0,0.0,0.0,0.0,0.0,0.0,0.0,0.0,0.0,0.0,0.0,0.0,0.0,0.0,0.0,0.0,0.0,0.0,0.0,0.0,0.0,0.0,0.0,0.0,0.0,0.0,0.0,0.0,0.0,0.0,0.0,0.0,0.0,0.0,0.0,0.0,0.0,0.0,0.0,0.0,0.0,0.0,0.0,0.0,0.0,0.0,0.0,0.0,0.0,0.0,0.0,0.0,0.0,0.0,0.0,0.0,0.0,0.0,0.0,0.0,0.0,0.0,0.0,0.0,0.0,0.0,0.0,0.0,0.0,0.0,0.0,0.0,0.0,0.0,0.0,0.0,0.0,0.0,0.0,0.0,0.0,0.0,0.0,0.0,0.0,0.0,0.0,0.0,0.0,0.0,0.0,0.0,0.0,0.0,0.0,0.0,0.0,0.0,0.0,0.0,0.0,0.0,0.0,0.0,0.0,0.0,0.0,0.0,0.0,0.0,0.0,0.0,0.0,0.0,0.0,0.0,0.0,0.0,0.0,0.0,0.0,0.0,0.0,0.0,0.0,0.0,0.0,0.0,0.0,0.0,0.0,0.0,0.0,0.0,0.0,0.0,0.0,0.0,0.0,0.0,0.0,0.0,0.0,0.0,0.0,0.0,0.0,0.0,0.0,0.0,0.0,0.0,0.0,0.0,0.0,0.0,0.0,0.0,0.0,0.0,0.0,0.0,0.0,0.0,0.0,0.0,0.0,0.0,0.0,0.0,0.0,0.0,0.0,0.0,0.0,0.0,0.0,0.0,0.0,0.0,0.0,0.0,0.0,0.0,0.0,0.0,0.0,0.0,0.0,0.0,0.0,0.0,0.0,0.0,0.0,0.0,0.0,0.0,0.0,0.0,0.0,0.0,0.0,0.0,0.0,0.0,0.0,0.0,0.0,0.0,0.0,0.0,0.0,0.0,0.0,0.0,0.0,0.0,0.0,0.0,0.0,0.0,0.0,0.0,0.0,0.0,0.0,0.0,0.0,0.0,0.0,0.0,0.0,0.0,0.0,0.0,0.0,0.0,0.0,0.0,0.0,0.0,0.0,0.0,0.0,0.0,0.0,0.0,0.0,0.0,0.0,0.0,0.0,0.0,0.0,0.0,0.0,0.0,0.0,0.0,0.0,0.0,0.0,0.0,0.0,0.0,0.0,0.0,0.0,0.0,0.0,0.0,0.0,0.0,0.0,0.0,0.0,0.0,0.0,0.0,0.0,0.0,0.0,0.0,0.0,0.0,0.0,0.0,0.0,0.0,0.0,0.0,0.0,0.0,0.0,0.0,0.0,0.0,0.0,0.0,0.0,0.0,0.0,0.0,0.0,0.0,0.0,0.0,0.0,0.0,0.0,0.0,0.0,0.0,0.0,0.0,0.0,0.0,0.0,0.0,0.0,0.0,0.0,0.0,0.0,0.0,0.0,0.0,0.0,0.0,0.0,0.0,0.0,0.0,0.0,0.0,0.0,0.0,0.0,0.0,0.0,0.0,0.0,0.0,0.0,0.0,0.0,0.0,0.0,0.0,0.0,0.0,0.0,0.0,0.0,0.0,0.0,0.0,0.0,0.0,0.0,0.0,0.0,0.0,0.0,0.0,0.0,0.0,0.0,0.0,0.0,0.0,0.0,0.0,0.0,0.0,0.0,0.0,0.0,0.0,0.0,0.0,0.0,0.0,0.0,0.0,0.0,0.0,0.0,0.0,0.0,0.0,0.0,0.0,0.0,0.0,0.0,0.0,0.0,0.0,0.0,0.0,0.0,0.0,0.0,0.0,0.0,0.0,0.0,0.0,0.0,0.0,0.0,0.0,0.0,0.0,0.0,0.0,0.0,0.0,0.0,0.0,0.0,0.0,0.0,0.0,0.0,0.0,0.0,0.0,0.0,0.0,0.0,0.0,0.0,0.0,0.0,0.0,0.0,0.0,0.0,0.0,0.0,0.0,0.0,0.0,0.0,0.0,0.0,0.0,0.0,0.0,0.0,0.0,0.0,0.0,0.0,0.0,0.0,0.0,0.0,0.0,0.0,0.0,0.0,0.0,0.0,0.0,0.0,0.0,0.0,0.0,0.0,0.0,0.0,0.0,0.0,0.0,0.0,0.0,0.0,0.0,0.0,0.0,0.0,0.0,0.0,0.0,0.0,0.0,0.0,0.0,0.0,0.0,0.0,0.0,0.0,0.0,0.0,0.0,0.0,0.0,0.0,0.0,0.0,0.0,0.0,0.0,0.0,0.0,0.0,0.0,0.0,0.0,0.0,0.0,0.0,0.0,0.0,0.0,0.0,0.0,0.0,0.0,0.0,0.0,0.0,0.0,0.0,0.0,0.0,0.0,0.0,0.0,0.0,0.0,0.0,0.0,0.0,0.0,0.0,0.0,0.0,0.0,0.0,0.0,0.0,0.0,0.0,0.0,0.0,0.0,0.0,0.0,0.0,0.0,0.0,0.0,0.0,0.0,0.0,0.0,0.0,0.0,0.0,0.0,0.0,0.0,0.0,0.0,0.0,0.0,0.0,0.0,0.0,0.0,0.0,0.0,0.0,0.0,0.0,0.0,0.0,0.0,0.0,0.0,0.0,0.0,0.0,0.0,0.0,0.0,0.0,0.0,0.0,0.0,0.0,0.0,0.0,0.0,0.0,0.0,0.0,0.0,0.0,0.0,0.0,0.0,0.0,0.0,0.0,0.0,0.0,0.0,0.0,0.0,0.0,0.0,0.0,0.0,0.0,0.0,0.0,0.0,0.0,0.0,0.0,0.0,0.0,0.0,0.0,0.0,0.0,0.0,0.0,0.0,0.0,0.0,0.0,0.0,0.0,0.0,0.0,0.0,0.0,0.0,0.0,0.0,0.0,0.0,0.0,0.0,0.0,0.0,0.0,0.0,0.0,0.0,0.0,0.0,0.0,0.0,0.0,0.0,0.0,0.0,0.0,0.0,0.0,0.0,0.0,0.0,0.0,0.0,0.0,0.0,0.0,0.0,0.0,0.0,0.0,0.0,0.0,0.0,0.0,0.0,0.0,0.0,0.0,0.0,0.0,0.0,0.0,0.0,0.0,0.0,0.0,0.0,0.0,0.0,0.0,0.0,0.0,0.0,0.0,0.0,0.0,0.0,0.0,0.0,0.0,0.0,0.0,0.0,0.0,0.0,0.0,0.0,0.0,0.0,0.0,0.0,0.0,0.0,0.0,0.0,0.0,0.0,0.0,0.0,0.0,0.0,0.0,0.0,0.0,0.0,0.0,0.0,0.0,0.0,0.0,0.0,0.0,0.0,0.0,0.0,0.0,0.0,0.0,0.0,0.0,0.0,0.0,0.0,0.0,0.0,0.0,0.0,0.0,0.0,0.0,0.0,0.0,0.0,0.0,0.0,0.0,0.0,0.0,0.0,0.0,0.0,0.0,0.0,0.0,0.0,0.0,0.0,0.0,0.0,0.0,0.0,0.0,0.0,0.0,0.0,0.0,0.0,0.0,0.0,0.0,0.0,0.0,0.0,0.0,0.0,0.0,0.0,0.0,0.0,0.0,0.0,0.0,0.0,0.0,0.0,0.0,0.0,0.0,0.0,0.0,0.0,0.0,0.0,0.0,0.0,0.0,0.0,0.0,0.0,0.0,0.0,0.0,0.0,0.0,0.0,0.0,0.0,0.0,0.0,0.0,0.0,0.0,0.0,0.0,0.0,0.0,0.0,0.0,0.0,0.0,0.0,0.0,0.0,0.0,0.0,0.0,0.0,0.0,0.0,0.0,0.0,0.0,0.0,0.0,0.0,0.0,0.0,0.0,0.0,0.0,0.0,0.0,0.0,0.0,0.0,0.0,0.0,0.0,0.0,0.0,0.0,0.0,0.0,0.0,0.0,0.0,0.0,0.0,0.0,0.0,0.0,0.0,0.0,0.0,0.0,0.0,0.0,0.0,0.0,0.0,0.0,0.0,0.0,0.0,0.0,0.0,0.0,0.0,0.0,0.0,0.0,0.0,0.0,0.0,0.0,0.0,0.0,0.0,0.0,0.0,0.0,0.0,0.0,0.0,0.0,0.0,0.0,0.0,0.0,0.0,0.0,0.0,0.0,0.0,0.0,0.0,0.0,0.0,0.0,0.0,0.0,0.0,0.0,0.0,0.0,0.0,0.0,0.0,0.0,0.0,0.0,0.0,0.0,0.0,0.0,0.0,0.0,0.0,0.0,0.0,0.0,0.0,0.0,0.0,0.0,0.0,0.0,0.0,0.0,0.0,0.0,0.0,0.0,0.0,0.0,0.0,0.0,0.0,0.0,0.0,0.0,0.0,0.0,0.0,0.0,0.0,0.0,0.0,0.0,0.0,0.0,0.0,0.0,0.0,0.0,0.0,0.0,0.0,0.0,0.0,2.2259,1.9983,0.0,0.0,0.0,0.0,0.0,0.0,0.0,0.0,0.0,0.0,0.0,0.0,0.0,0.0,0.0,0.0,0.0,0.0,0.0,0.0,0.0,0.0,0.0,1.4247,1.4454,1.4454,1.5126,0.0,0.0,0.0,0.0,0.0,0.0,0.0,1.5032,1.5375,1.6463,1.829,1.9001,2.1448,2.5439,2.3874,2.2189,2.0378,0.0,0.0,0.0,0.0,0.0,0.0,0.0,0.0,0.0,0.0,0.0,0.0,0.0,0.0,0.0,0.0,0.0,0.0,0.0,0.0,0.0,0.0,0.0,0.0,0.0,0.0,0.0,0.0,0.0,0.0,0.0,0.0,0.0,0.0,0.0,0.0,0.0,0.0,0.0,0.0,0.0,0.0,0.0,0.0,0.0,0.0,0.0,0.0,0.0,0.0,0.0,0.0,0.0,0.0,0.0,0.0,0.0,0.0,0.0,0.0,0.0,0.0,0.0,0.0,0.0,0.0,0.0,0.0,0.0,0.0,2.6008,2.4019,0.0,0.0,0.0,0.0,0.0,0.0,0.0,0.0,0.0,0.0,0.0,0.0,0.0,0.0,0.0,0.0,0.0,0.0,0.0,0.0,0.0,1.3925,1.4796,1.5426,1.5905,1.6158,1.6722,1.6874,1.6407,1.6136,0.0,0.0,0.0,0.0,1.617,1.7049,1.8894,2.179,2.4297,2.7571,3.1468,3.1586,2.9989,2.6877,2.3335,0.0,0.0,0.0,0.0,0.0,0.0,0.0,0.0,0.0,0.0,0.0,0.0,0.0,0.0,0.0,0.0,0.0,0.0,0.0,0.0,0.0,0.0,0.0,0.0,0.0,0.0,0.0,0.0,0.0,0.0,0.0,0.0,0.0,0.0,0.0,0.0,0.0,0.0,0.0,0.0,0.0,0.0,0.0,0.0,0.0,0.0,0.0,0.0,0.0,0.0,0.0,0.0,0.0,0.0,0.0,0.0,0.0,0.0,0.0,0.0,0.0,0.0,0.0,3.115,3.1084,3.0705,3.2199,3.3536,3.4453,3.0188,2.9045,2.9914,2.6213,0.0,0.0,0.0,0.0,0.0,0.0,0.0,0.0,0.0,0.0,0.0,0.0,0.0,0.0,0.0,0.0,0.0,0.0,0.0,1.488,1.6265,1.6507,1.7061,1.8341,1.8544,1.8843,1.9383,1.8222,0.0,0.0,0.0,1.7805,1.8443,1.987,2.1739,2.4075,3.0734,3.4985,3.6891,3.7533,3.7562,3.6851,3.1248,2.8366,2.7486,0.0,0.0,0.0,0.0,0.0,0.0,0.0,0.0,0.0,0.0,0.0,0.0,0.0,0.0,0.0,0.0,0.0,0.0,0.0,0.0,0.0,0.0,0.0,0.0,0.0,0.0,0.0,0.0,0.0,0.0,0.0,0.0,0.0,0.0,0.0,0.0,0.0,0.0,0.0,0.0,0.0,2.6926,2.718,0.0,0.0,0.0,0.0,0.0,0.0,0.0,0.0,0.0,0.0,0.0,0.0,0.0,3.0943,3.1122,3.4098,3.5595,3.561,3.73,3.807,3.8018,3.8249,3.8459,3.8615,3.7933,0.0,3.3687,3.2084,0.0,0.0,0.0,0.0,0.0,0.0,0.0,0.0,0.0,0.0,0.0,0.0,0.0,0.0,0.0,0.0,0.0,0.0,0.0,0.0,0.0,2.0964,2.2293,2.3767,2.4687,2.4441,2.2649,2.1921,0.0,0.0,1.9203,1.9395,2.0175,2.2486,2.642,3.2029,3.7369,4.0565,4.1674,4.1995,4.191,4.136,3.8739,3.5289,3.1292,2.8747,0.0,0.0,0.0,0.0,0.0,0.0,0.0,0.0,0.0,0.0,0.0,0.0,0.0,0.0,0.0,0.0,0.0,0.0,0.0,0.0,0.0,0.0,0.0,0.0,0.0,0.0,0.0,0.0,0.0,0.0,0.0,0.0,0.0,0.0,0.0,0.0,0.0,0.0,0.0,2.6462,2.8154,2.9624,2.7724,2.6019,0.0,0.0,0.0,0.0,0.0,0.0,0.0,0.0,0.0,3.341,3.5069,3.6311,3.706,3.926,4.0352,4.0352,4.1793,4.2484,4.2499,4.2882,4.305,4.3013,4.2416,4.1339,3.9735,3.6274,3.316,3.0409,0.0,0.0,0.0,0.0,2.6464,2.6536,0.0,0.0,0.0,0.0,0.0,0.0,0.0,0.0,0.0,0.0,0.0,0.0,2.3098,2.5253,2.7139,2.8813,2.9828,2.9279,2.6674,2.5422,2.3849,2.1806,2.0988,2.1221,2.2578,2.6814,3.2389,3.9314,4.2621,4.4558,4.5159,4.5159,4.4855,4.4251,4.4065,4.0886,3.552,3.2916,3.0231,2.7478,0.0,0.0,0.0,0.0,0.0,0.0,0.0,0.0,0.0,0.0,0.0,0.0,0.0,0.0,0.0,0.0,0.0,0.0,0.0,0.0,0.0,0.0,0.0,0.0,0.0,0.0,0.0,0.0,0.0,0.0,0.0,0.0,0.0,0.0,0.0,0.0,0.0,2.841,3.0087,3.2033,3.0551,2.8964,0.0,0.0,0.0,0.0,0.0,0.0,3.3394,3.4157,3.5799,3.8555,4.0217,4.1677,4.2914,4.4086,4.4647,4.4597,4.5409,4.5802,4.5818,4.6301,4.64,4.6109,4.5315,4.4805,4.4227,3.9831,3.6871,3.496,3.3105,3.1261,2.977,3.0904,3.106,3.1094,0.0,0.0,0.0,0.0,0.0,0.0,0.0,0.0,0.0,0.0,0.0,2.3199,2.6158,2.7893,2.9704,3.1887,3.1505,3.1352,3.187,2.7909,2.5787,2.6336,2.368,2.3504,2.6361,3.4182,3.9836,4.3118,4.5421,4.6598,4.6699,4.6699,4.6682,4.6599,4.5906,4.4198,4.1623,3.8002,3.5915,3.4531,2.8329,0.0,0.0,0.0,0.0,0.0,0.0,0.0,0.0,0.0,0.0,0.0,0.0,0.0,0.0,0.0,0.0,0.0,0.0,0.0,0.0,0.0,0.0,0.0,0.0,0.0,0.0,0.0,0.0,0.0,0.0,0.0,0.0,0.0,0.0,0.0,0.0,0.0,0.0,3.4323,3.4218,0.0,0.0,0.0,0.0,3.2153,3.3455,3.561,3.8838,3.9649,4.1391,4.4381,4.5191,4.605,4.7089,4.7789,4.8139,4.8139,4.8194,4.8212,4.8231,4.826,4.7756,4.6862,4.6803,4.6202,4.508,4.296,4.092,3.897,3.752,3.5773,3.4225,3.5494,3.5947,3.621,0.0,0.0,0.0,1.56,1.56,1.5917,1.6875,1.7236,1.8285,2.0764,2.3444,2.6268,2.9262,3.2232,3.473,3.6462,3.6801,3.6208,3.4529,3.1579,2.9813,2.961,2.8054,3.018,3.6543,4.0962,4.4941,4.8483,4.9758,5.0375,5.0408,5.0408,4.987,4.8883,4.8156,4.7107,4.5689,4.2439,3.9328,3.6401,3.3611,2.9821,0.0,0.0,0.0,0.0,0.0,0.0,0.0,0.0,0.0,0.0,0.0,0.0,0.0,0.0,0.0,0.0,0.0,0.0,0.0,0.0,0.0,0.0,0.0,0.0,0.0,0.0,0.0,0.0,0.0,0.0,0.0,0.0,0.0,0.0,0.0,0.0,0.0,3.6312,3.6372,0.0,3.4831,3.5069,3.6021,3.7782,3.9138,4.1262,4.4385,4.4764,4.5585,4.7101,4.7797,4.8331,4.8668,4.9352,4.9702,4.9686,5.0339,5.0647,5.0647,5.0647,5.0465,5.0042,4.8698,4.791,4.742,4.5638,4.3988,4.2497,4.199,4.1122,4.0169,4.0647,4.081,4.0863,0.0,1.6171,0.0,1.6027,1.6005,1.6464,1.7796,1.8423,1.9967,2.3337,2.637,2.9559,3.3068,3.6124,3.8522,3.9982,4.0557,3.9897,3.764,3.5193,3.3572,3.3013,3.341,3.6804,4.3561,4.644,4.9228,5.204,5.2781,5.3007,5.277,5.2526,5.1854,5.0827,5.0074,4.9189,4.814,4.6145,4.3117,3.9553,3.7853,3.4305,2.9709,0.0,0.0,0.0,0.0,0.0,0.0,0.0,0.0,0.0,0.0,0.0,0.0,0.0,0.0,0.0,0.0,0.0,0.0,0.0,0.0,0.0,0.0,0.0,0.0,0.0,0.0,0.0,0.0,0.0,0.0,0.0,0.0,0.0,0.0,3.5148,3.7537,3.8142,3.9317,3.9737,3.8909,3.9801,4.1171,4.2967,4.3913,4.5488,4.7949,4.8063,4.8546,4.9548,5.0015,5.0422,5.0785,5.122,5.1447,5.1447,5.2134,5.2435,5.2435,5.2435,5.2241,5.1814,5.0442,4.944,4.8712,4.7606,4.6433,4.5254,4.4825,4.4377,4.3967,4.3967,4.3967,4.3908,0.0,1.7274,1.7187,1.686,1.6825,1.721,1.8279,1.9713,2.2139,2.6201,2.9365,3.2953,3.7415,3.9237,4.0709,4.2181,4.23,4.1995,4.128,3.8495,3.6813,3.6744,3.9681,4.3093,4.6903,5.0575,5.2834,5.3638,5.436,5.4335,5.3584,5.2854,5.2478,5.2419,5.16,5.044,4.9103,4.9086,4.7378,4.4437,4.0902,3.8197,3.5796,0.0,0.0,0.0,0.0,0.0,0.0,0.0,0.0,0.0,0.0,0.0,0.0,0.0,0.0,0.0,0.0,0.0,0.0,0.0,0.0,0.0,0.0,0.0,0.0,0.0,0.0,0.0,0.0,0.0,0.0,0.0,0.0,0.0,3.5806,3.7673,3.9354,3.9929,4.3199,4.4906,4.3686,4.531,4.6755,4.7462,4.7511,4.8104,4.9464,4.9529,5.026,5.1905,5.1957,5.2453,5.3484,5.3501,5.3501,5.3501,5.3501,5.3501,5.3501,5.3501,5.2922,5.1957,5.1921,5.0763,4.8886,4.8866,4.8272,4.7246,4.5915,4.5349,4.5349,4.5349,4.5355,4.5381,1.6968,1.6949,1.6911,1.6821,1.7439,1.8244,1.9069,2.0896,2.3472,2.7029,3.0371,3.382,3.7501,3.9698,4.1271,4.2215,4.23,4.2175,4.1874,3.9549,3.9321,4.1905,4.6069,4.9836,5.3086,5.4731,5.5969,5.6758,5.6968,5.6691,5.5956,5.5156,5.4516,5.3933,5.2588,5.1775,5.1369,5.0812,4.9509,4.7549,4.4985,4.2043,3.8973,0.0,0.0,0.0,0.0,0.0,0.0,0.0,0.0,0.0,0.0,0.0,0.0,0.0,0.0,0.0,0.0,0.0,0.0,0.0,0.0,0.0,0.0,0.0,0.0,0.0,0.0,0.0,0.0,0.0,0.0,0.0,3.7544,3.9828,3.9724,4.2343,4.4336,4.4494,4.6317,4.7407,4.7055,4.7537,4.8435,4.9827,4.9946,5.0654,5.2294,5.2379,5.2583,5.3042,5.3059,5.3212,5.3501,5.3501,5.3501,5.3501,5.3501,5.3501,5.3501,5.3501,5.3348,5.3025,5.2241,5.1578,5.0989,5.0246,4.9793,4.936,4.7467,4.6756,4.6756,4.6756,4.6902,4.7113,1.662,1.6587,1.6629,1.6749,1.7448,1.8374,1.9526,2.1928,2.4952,2.8723,3.2211,3.5702,3.9342,4.117,4.2439,4.3196,4.3552,4.338,4.2602,4.2137,4.3418,4.6879,5.0526,5.3613,5.6051,5.6895,5.7538,5.7997,5.7997,5.7774,5.7333,5.6571,5.578,5.5009,5.3797,5.2897,5.2266,5.1827,5.0981,4.9798,4.8512,4.5847,4.247,4.1017,3.8539,3.5618,3.3943,3.2449,3.1146,3.06,0.0,0.0,0.0,0.0,0.0,0.0,0.0,0.0,0.0,0.0,0.0,0.0,0.0,0.0,0.0,0.0,0.0,0.0,0.0,0.0,0.0,0.0,0.0,0.0,4.1981,4.4186,4.5285,4.6552,4.7452,4.7727,4.9103,5.0035,5.0035,5.0348,5.0939,5.1926,5.1994,5.2435,5.345,5.3501,5.3501,5.3501,5.3501,5.3653,5.3957,5.3957,5.4126,5.4414,5.4414,5.4414,5.4414,5.4414,5.4414,5.438,5.3438,5.2778,5.2297,5.1397,5.0779,0.0,0.0,0.0,0.0,0.0,4.8715,4.8899,1.6308,1.6246,1.6343,1.6645,1.7186,1.8128,1.975,2.2804,2.6469,3.0725,3.4187,3.7816,4.1949,4.2919,4.365,4.4625,4.5388,4.5282,4.4026,4.5822,4.8289,5.1334,5.3522,5.539,5.6902,5.7629,5.7997,5.7997,5.7997,5.7997,5.7985,5.7141,5.638,5.5663,5.4848,5.3711,5.2435,5.2435,5.2012,5.1319,5.1319,4.9256,4.6051,4.4653,4.3236,4.1611,3.8853,3.6987,3.5512,3.3468,0.0,0.0,0.0,0.0,0.0,0.0,0.0,0.0,0.0,0.0,0.0,0.0,0.0,0.0,0.0,0.0,0.0,0.0,0.0,0.0,0.0,0.0,0.0,0.0,4.6776,4.8829,5.102,5.0175,4.9508,5.0019,5.148,5.2435,5.2435,5.3078,5.3501,5.3501,5.3501,5.3501,5.3501,5.3501,0.0,0.0,0.0,5.394,5.4583,5.4668,5.5057,5.5699,5.5699,5.5699,5.5699,5.5699,5.5699,5.5665,5.5006,5.4148,5.3144,5.2479,5.1641,5.0738,5.0474,5.0397,5.0397,5.0397,5.0515,5.0709,1.5913,1.5891,1.6066,1.6615,1.78,1.8995,1.9868,2.3636,2.77,3.1367,3.4203,3.7725,4.2504,4.2718,4.3272,4.516,4.6063,4.7076,4.845,5.0002,5.176,5.3683,5.5409,5.6785,5.7758,5.7923,5.7997,5.7997,5.7997,5.7997,5.7973,5.6593,5.5851,5.5635,5.4313,5.355,5.3264,5.3264,5.2807,5.2097,5.2097,5.0947,4.9154,4.8255,4.6965,4.5443,4.4257,4.286,4.1502,4.0829,3.8764,3.6292,3.5281,3.3305,0.0,0.0,0.0,0.0,0.0,0.0,0.0,0.0,0.0,0.0,0.0,0.0,0.0,0.0,0.0,0.0,0.0,0.0,0.0,4.6648,4.8944,5.0705,5.1931,5.237,5.2388,5.1882,5.2673,5.3264,5.3264,5.3416,5.3501,5.3501,5.3501,5.3501,5.3501,5.3501,5.3501,5.3501,5.4076,5.4465,5.46,5.5192,5.5564,5.5699,5.5699,0.0,5.5699,5.5699,5.5699,5.5682,5.5547,5.5037,5.4273,5.4138,5.3614,5.2731,5.1059,5.0397,5.0397,5.0397,5.1318,5.2569,1.5799,1.5799,1.6106,1.7048,1.8194,1.9332,2.0357,2.4096,2.7908,3.1001,3.4526,3.8048,4.1472,4.1915,4.2225,4.2887,4.4372,4.6705,5.013,5.1762,5.35,5.5519,5.6767,5.7593,5.7997,5.7997,5.7997,5.7997,5.7997,5.7997,5.7985,5.721,5.6443,5.5663,5.4924,5.4203,5.3501,5.3501,5.3264,5.2909,5.2909,5.2469,5.1674,5.0541,4.9594,4.869,4.7156,4.6109,4.5178,4.3413,4.1709,4.0131,3.8844,3.706,3.4936,0.0,0.0,0.0,0.0,0.0,0.0,0.0,0.0,0.0,0.0,0.0,0.0,0.0,0.0,3.8574,4.2268,0.0,4.6585,4.9574,5.0911,5.1899,5.2774,5.3247,5.3348,5.2959,5.3264,5.3501,5.3501,5.3501,5.3501,5.3501,5.3501,5.3501,5.3501,5.3501,5.3501,5.3501,5.4211,5.4769,5.5158,5.5886,5.6444,5.6799,5.6799,5.6799,5.6799,5.6799,5.6799,5.6765,5.602,5.5479,5.5091,5.4346,5.4057,5.3961,5.2909,5.2497,5.2497,5.2497,5.3312,5.4399,1.5799,1.5799,1.624,1.7594,1.8481,1.9482,2.0909,2.4166,2.7459,3.0166,3.3991,3.73,3.9474,4.0161,4.0553,4.081,4.2897,4.6173,5.0816,5.2718,5.459,5.6701,5.7574,5.7997,5.7997,5.7997,5.7997,5.7997,5.7997,5.7997,5.7997,5.7696,5.6897,5.5678,5.5393,5.4606,5.3501,5.3501,5.3501,5.3501,5.3501,5.3501,5.3365,5.2114,5.1556,5.1137,4.9109,4.8281,4.7721,4.4828,4.37,4.3189,4.1643,4.0247,3.8739,3.6493,3.5101,0.0,0.0,0.0,0.0,0.0,0.0,0.0,0.0,3.3519,3.4996,3.8097,4.0309,4.2925,4.6946,4.828,4.9574,5.2116,5.2536,5.2756,5.3416,5.3501,5.3501,5.3501,5.3501,5.3501,5.3501,5.3501,5.3501,5.3501,5.3501,5.3501,5.3501,5.3636,5.3721,5.3721,5.4566,5.531,5.5902,5.6664,5.7306,5.79,5.79,5.79,5.79,5.79,5.7832,5.7594,5.6139,5.5567,5.5604,5.4261,5.4138,5.4818,5.4818,5.4909,5.5029,5.4878,5.5294,5.5934,1.5799,1.5799,1.6328,1.803,1.8705,1.9576,2.1262,2.3713,2.636,2.9101,3.0957,3.3288,3.6594,3.6597,3.7982,4.2,4.4388,4.7431,5.159,5.4037,5.5776,5.6756,5.7574,5.7997,5.7997,5.7997,5.7997,5.7997,5.7997,5.7997,5.7973,5.6588,5.5879,5.5635,5.4328,5.3651,5.3501,5.3501,5.3501,5.3501,5.3501,5.3501,5.3484,5.3315,5.2807,5.2063,5.1138,5.0396,4.96,4.8165,4.6847,4.5601,4.4272,4.297,4.1782,4.0879,3.8886,3.6656,3.5235,3.3634,3.2796,3.4501,3.4358,3.5081,0.0,4.045,4.0835,4.4195,4.645,4.8345,5.0131,5.1212,5.215,5.3196,5.3365,5.3399,5.3501,5.3501,5.3501,5.3501,5.3501,5.3501,5.3501,5.3501,5.3501,5.3501,5.3501,5.3501,5.3501,5.411,5.4482,5.4482,5.5835,5.6596,5.6681,5.7408,5.7832,5.79,5.79,5.79,5.79,5.79,5.7543,5.685,5.5361,5.5093,5.5628,5.4829,5.4924,5.5581,5.5581,5.6008,5.6563,5.5836,5.6077,5.6765,1.5799,1.5799,1.6294,1.7846,1.8607,1.9591,2.1338,2.3254,2.5244,2.7335,2.9085,3.0869,3.2792,3.2958,3.4523,3.8586,4.1492,4.5241,5.0261,5.2858,5.4987,5.6719,5.7123,5.7519,5.7997,5.7997,5.7997,5.7997,5.7997,5.7997,5.7985,5.734,5.6562,5.5663,5.5059,5.4296,5.3501,5.3501,5.3501,5.3501,5.3501,5.3501,5.3501,5.3501,5.301,5.2198,5.1455,5.0727,0.0,4.8225,4.6985,4.5988,4.5156,4.3738,4.2351,4.2066,4.0352,3.8614,3.8856,3.7301,3.6221,3.8865,3.9256,3.9855,4.3099,4.3946,4.4962,4.8136,4.9458,5.0518,5.2115,5.309,5.3617,5.3517,5.4218,5.4484,5.3618,5.3864,5.3978,5.3551,5.3501,5.3501,5.3501,5.3501,5.3501,5.3501,5.3907,5.4143,5.4143,5.4837,5.5243,5.5243,5.6258,5.6799,5.6799,5.7526,5.79,5.79,5.79,5.79,5.79,5.79,5.7491,5.6764,5.6146,5.5809,5.5691,5.5373,5.5713,5.6394,5.6394,5.6881,5.7449,5.6677,5.6876,5.754,1.5799,1.5799,1.6237,1.765,1.8336,1.9327,2.1205,2.2646,2.406,2.5537,2.6965,2.8215,2.9182,2.9451,3.1117,3.4942,3.8248,4.2415,4.7893,5.1151,5.3746,5.571,5.6235,5.6859,5.7648,5.7666,5.7776,5.7997,5.7997,5.7997,5.7997,5.757,5.6763,5.5678,5.5262,5.4499,5.3501,5.3501,5.3501,5.3501,5.3501,5.3365,5.3179,5.3179,5.2435,5.1352,5.1031,5.0304,4.914,4.6831,4.5833,4.5381,4.4504,4.3259,4.2231,4.2765,4.1643,4.0322,4.0726,3.9982,3.9767,4.2653,4.3585,4.4262,4.6018,4.7196,4.8599,5.1,5.1728,5.2371,5.3825,5.4544,5.4728,5.4186,5.4818,5.5012,5.3962,5.409,5.4106,5.3551,5.3501,5.3501,5.3501,5.3501,5.3585,5.3788,5.4296,5.4685,5.4888,5.5615,5.6003,5.6003,5.6731,5.7103,5.7103,5.7646,5.79,5.79,5.79,5.79,5.7883,5.7694,5.7432,5.7143,5.6692,5.6327,5.6018,5.6018,5.6487,5.7209,5.7209,5.754,5.7939,5.7401,5.7553,5.7997,1.5799,1.5799,1.6237,1.765,1.7916,1.8667,2.0881,2.186,2.2767,2.3917,2.4124,2.4692,2.6075,2.6236,2.7985,3.2325,3.5704,3.9669,4.4535,4.9352,5.2417,5.3269,5.4803,5.5996,5.6811,5.6829,5.7226,5.7997,5.7997,5.7997,5.7973,5.6469,5.5734,5.5635,5.4202,5.3551,5.3501,5.3501,5.3501,5.3501,5.3501,5.3044,5.2334,5.2334,5.0997,4.9187,4.9881,4.9204,4.749,4.4302,4.3597,4.3782,4.2048,4.1478,4.1807,4.3688,4.3314,4.1901,3.9993,4.0827,4.2838,4.521,4.6718,4.8088,4.984,5.1006,5.1989,5.2859,5.3802,5.4722,5.5492,5.5649,5.5649,5.5635,5.5072,5.462,5.4574,5.3962,5.3534,5.3501,5.3501,5.3501,5.3501,5.3501,5.3805,5.4516,5.46,5.4905,5.5631,5.6376,5.6765,5.6765,5.7476,5.7883,5.7883,5.79,5.79,5.79,5.79,5.79,5.7867,5.7156,5.7292,5.7963,5.6406,5.6154,5.6856,5.6856,5.7296,5.7973,5.7973,5.7985,5.7997,5.7973,5.7985,5.7997,1.5799,1.5799,1.6079,1.7014,1.7575,1.8303,1.9483,2.0744,2.1874,2.276,2.2866,0.0,0.0,0.0,0.0,0.0,3.3851,3.791,4.2791,4.6645,4.9838,5.2307,5.3427,5.4638,5.5959,5.5996,5.6136,5.6411,5.6411,5.6411,5.6418,5.6418,5.5623,5.4174,5.4206,5.3401,5.1962,5.1962,5.1962,5.1962,5.1962,5.181,5.1624,5.2114,4.9761,4.6179,0.0,4.5146,4.3983,4.2188,4.1369,4.1194,4.1348,4.049,3.9457,3.9664,4.0367,4.1359,4.2677,4.3878,4.5384,4.8196,5.0108,5.1484,5.205,5.3344,5.4512,5.4784,5.5091,5.5408,5.5649,5.6132,5.6326,5.5794,5.5938,5.5773,5.4726,5.4389,5.4042,5.3568,5.3501,5.3501,5.3501,5.3501,5.3602,5.3856,5.4786,5.5428,5.5682,5.6867,5.7526,5.7526,5.7781,5.8173,5.8686,5.8703,5.8994,5.9559,5.9559,5.9281,5.8757,5.8519,5.8258,5.8006,5.7469,5.7376,5.7625,5.7625,5.7774,5.7997,5.7997,5.7997,5.7997,5.7997,5.7997,5.7997,1.5799,1.5799,1.6011,1.6679,1.7196,0.0,0.0,0.0,0.0,0.0,0.0,0.0,0.0,0.0,0.0,0.0,0.0,3.5114,3.9415,4.3012,4.6278,4.926,5.016,5.1353,5.2949,5.2711,5.3133,5.4318,5.4025,5.4465,5.5592,5.5551,5.476,5.3409,5.3669,5.2656,5.0811,5.0811,5.0964,5.1133,5.0339,5.0017,4.995,4.9341,4.6326,0.0,4.0977,3.9675,3.8503,3.8056,3.8058,3.833,3.8797,3.9023,3.8931,3.8018,3.9772,4.2467,4.4678,4.6016,4.7526,5.0605,5.2239,5.3261,5.3878,5.4905,5.5777,5.6077,5.59,5.5772,5.6044,5.6512,5.6606,5.583,5.6384,5.636,5.4824,5.4598,5.4334,5.3585,5.3734,5.3881,5.3881,5.4123,5.4178,5.3924,5.5026,5.5826,5.6082,5.7261,5.7946,5.7946,5.7946,5.832,5.9139,5.9139,5.9568,6.0399,6.0116,5.9845,5.9596,5.903,5.8653,5.8408,5.8118,5.7996,5.7997,5.7997,5.7997,5.7997,5.7997,5.7997,5.7997,5.7997,5.7997,5.7997,1.5799,1.5799,1.6011,0.0,0.0,0.0,0.0,0.0,0.0,0.0,0.0,0.0,0.0,0.0,0.0,0.0,0.0,0.0,3.4619,3.8563,4.1892,4.4351,4.5241,4.6416,4.8031,4.7351,4.8498,5.1638,5.0894,5.2105,5.5078,5.3558,5.2874,5.29,5.2256,5.1146,4.9761,4.9761,5.0135,5.0558,4.8428,4.7517,4.7149,4.4328,4.0993,3.7563,3.5499,3.3382,3.1656,3.2435,3.4057,3.5629,3.4995,3.7441,4.0279,3.9034,4.1683,4.5189,4.5915,4.7341,4.9368,5.2421,5.3244,5.3734,5.5381,5.5748,5.5958,5.6644,5.6152,5.5768,5.6353,5.6548,5.64,5.5695,5.6289,5.6329,5.4922,5.4674,5.4398,5.3703,5.4234,5.4666,5.4666,5.5291,5.5414,5.472,5.535,5.606,5.6771,5.7564,5.7992,5.7992,5.7992,5.8408,5.9244,5.9289,5.9691,6.0397,5.962,5.9645,6.0296,5.8753,5.8446,5.9104,5.8327,5.7997,5.7997,5.7997,5.7997,5.7997,5.7997,5.7997,5.7997,5.7997,5.7997,5.7997,0.0,0.0,0.0,0.0,0.0,0.0,0.0,0.0,0.0,0.0,0.0,0.0,0.0,0.0,0.0,0.0,0.0,0.0,3.2161,3.4974,3.7921,4.0983,4.1892,4.3075,4.4699,4.5104,4.5727,4.6562,4.6966,4.7572,4.8379,4.8219,4.753,4.6501,4.7111,4.6536,4.5114,4.5114,4.4894,4.4468,4.3355,4.2297,4.1388,4.1174,3.8223,3.4224,3.427,3.2166,2.9705,3.184,3.4846,3.783,3.8642,4.0454,4.2289,4.2461,4.4517,4.7065,4.8489,5.0362,5.227,5.3831,5.5073,5.6051,5.6487,5.6585,5.6327,5.538,5.4581,5.3617,5.2148,5.3234,5.4284,5.4092,5.516,5.6067,5.6281,5.5804,5.5341,5.5149,5.5306,5.5422,5.5422,5.5578,5.5623,5.5424,5.6152,5.6693,5.6854,5.7599,5.7992,5.7992,5.7992,5.8674,6.0076,6.0692,6.0786,6.0409,6.0191,5.9897,5.9481,5.9079,5.8676,5.829,5.8088,5.7997,5.7997,5.7997,5.7997,5.7997,5.7997,5.7997,5.7997,5.7997,5.7997,5.7997,0.0,0.0,0.0,0.0,0.0,0.0,0.0,0.0,0.0,0.0,0.0,0.0,0.0,0.0,0.0,0.0,0.0,0.0,0.0,3.1231,3.3665,3.6578,3.714,3.8051,3.9516,3.9792,4.0543,4.1798,4.1551,4.2327,4.4035,4.3342,4.2591,4.184,4.2451,4.2071,4.0988,4.0988,4.08,0.0,0.0,3.801,3.7305,3.6396,3.4133,3.1511,3.1933,3.1687,3.1554,3.3873,3.6522,3.9094,4.0588,4.2307,4.3998,4.5108,4.7348,4.9735,5.0976,5.2748,5.446,5.5376,5.598,5.6299,5.5954,5.5639,5.4888,5.3053,5.2072,5.1117,4.98,5.1417,5.2937,5.2864,5.5025,5.6634,5.6407,5.6296,5.6099,5.5745,5.6004,5.6232,5.6232,5.6527,5.6711,5.6711,5.6819,5.6896,5.6896,5.7613,5.7994,5.7994,5.7994,5.8604,5.9859,6.0664,6.086,6.0401,6.004,5.9636,5.9184,5.8829,5.8437,5.7997,5.7997,5.7997,5.7997,5.7997,5.7997,5.7997,5.7997,5.7997,5.7997,5.7997,5.7997,5.7997,0.0,0.0,0.0,0.0,0.0,0.0,0.0,0.0,0.0,2.1613,2.209,2.2391,2.2663,2.2966,0.0,0.0,0.0,0.0,0.0,0.0,2.9484,3.1804,3.1839,3.2393,3.3626,3.3358,3.4429,3.6936,3.5736,3.6946,4.0311,3.8608,3.7852,3.7965,3.8007,3.7668,3.705,3.705,3.7056,3.6887,3.4868,3.401,3.3684,0.0,2.9781,2.9237,2.9536,3.1734,3.4834,3.7004,3.872,4.0281,4.2028,4.4053,4.6142,4.7695,5.0258,5.2705,5.3304,5.4537,5.5879,5.6576,5.6232,5.548,5.4644,5.3812,5.2546,5.0224,4.9045,4.8328,4.8037,5.0025,5.1741,5.1873,5.5148,5.7302,5.6158,5.6609,5.6787,5.6089,5.6624,5.7058,5.7058,5.7625,5.7997,5.7997,5.7413,5.7058,5.7058,5.7649,5.7997,5.7997,5.8107,5.8437,5.9031,5.9838,6.0199,6.007,5.9361,5.9049,5.9013,5.8327,5.7997,5.7997,5.7997,5.7997,5.7997,5.7997,5.7997,5.7997,5.7997,5.7997,5.7997,5.7997,5.7997,5.8015,0.0,0.0,0.0,0.0,0.0,0.0,0.0,0.0,0.0,0.0,2.3352,2.2391,0.0,0.0,0.0,0.0,0.0,0.0,0.0,0.0,0.0,2.8142,2.7953,2.8257,2.92,2.9779,3.0338,3.0825,3.1824,3.2675,3.3345,3.3169,3.3085,3.3114,3.3352,3.313,3.2613,3.2613,3.2022,3.1006,3.001,2.8963,2.7995,2.8032,2.7665,0.0,2.9544,3.2121,3.5005,3.8272,4.1001,4.3377,4.5392,4.8178,5.0877,5.1833,5.3514,5.5089,5.5215,5.5474,5.5734,5.5879,5.5791,5.5359,5.4002,5.2654,5.0882,4.798,4.6301,4.5121,4.4382,4.6625,4.9166,5.0966,5.3971,5.6456,5.7461,5.7722,5.7759,5.7613,5.772,5.7797,5.7797,5.792,5.7997,5.7997,5.7886,5.7797,5.7797,5.792,5.7997,5.7997,5.8646,5.8737,5.8217,5.9013,5.9068,5.8419,5.8272,5.8217,5.8198,5.8052,5.7997,5.7997,5.7997,5.7997,5.7997,5.7997,5.7997,5.7997,5.7997,5.7997,5.7997,5.7997,5.7997,5.8107,0.0,0.0,0.0,0.0,0.0,0.0,0.0,2.2613,2.4322,2.7519,2.7021,2.5809,2.4359,2.3319,2.2765,0.0,0.0,0.0,0.0,0.0,0.0,2.5739,0.0,0.0,2.6514,2.7091,2.7496,2.7737,0.0,2.8435,2.884,2.8308,2.7938,2.7768,2.8192,2.8357,2.8292,2.8647,2.8286,2.7443,2.7089,2.6377,2.5575,0.0,0.0,0.0,2.9939,3.2702,3.5905,3.7961,4.1548,4.5537,4.7669,4.999,5.2158,5.3458,5.5003,5.6227,5.5805,5.6022,5.6214,5.5791,5.5422,5.4425,5.1758,5.0301,4.8469,4.4683,4.3309,4.2769,4.2556,4.474,4.7381,4.9919,5.298,5.5564,5.7143,5.774,5.7997,5.7997,5.7997,5.7997,5.7997,5.7997,5.7997,5.7997,5.7997,5.7997,5.7997,5.7997,5.7997,5.7997,5.8382,5.84,5.7997,5.8382,5.8382,5.7997,5.7997,5.7997,5.7997,5.7997,5.7997,5.7997,5.7997,5.7997,5.7997,5.7997,5.7997,5.7997,5.7997,5.7997,5.7997,5.7997,5.7997,5.8125,0.0,0.0,0.0,0.0,0.0,0.0,2.3356,2.4455,2.6309,3.0492,3.0623,2.9371,2.6835,2.4767,2.3295,0.0,0.0,0.0,0.0,0.0,0.0,0.0,0.0,0.0,0.0,0.0,0.0,2.5445,2.4967,0.0,0.0,0.0,0.0,0.0,2.4251,2.4535,2.4716,2.5389,2.538,0.0,0.0,2.4809,0.0,0.0,0.0,0.0,0.0,3.2645,3.5948,3.7249,4.0961,4.5493,4.8018,5.0376,5.2511,5.4048,5.562,5.6703,5.5909,5.6159,5.6452,5.5667,5.4784,5.3182,4.9582,4.8067,4.6247,4.2053,4.1068,4.1186,4.1923,4.3746,4.6171,4.9342,5.227,5.4755,5.6554,5.7483,5.7997,5.7997,5.7997,5.7997,5.7997,5.7997,5.7997,5.7997,5.7997,5.7997,5.7997,5.7997,5.7997,5.7997,5.7997,5.7997,5.7997,5.7997,5.7997,5.7997,5.7997,5.7997,5.7997,5.7997,5.7997,5.7997,5.7997,5.7997,5.7997,5.7997,5.7997,5.7997,5.7997,5.7997,5.7997,5.7997,5.7997,5.8125,0.0,0.0,0.0,0.0,0.0,0.0,2.3471,2.5967,2.9047,3.3508,3.2351,3.0734,2.9794,2.769,2.525,0.0,0.0,0.0,0.0,0.0,0.0,0.0,0.0,0.0,0.0,0.0,0.0,2.2671,2.3255,0.0,0.0,0.0,0.0,0.0,0.0,2.3099,2.2714,2.338,0.0,0.0,0.0,0.0,0.0,0.0,0.0,0.0,0.0,3.1109,3.3469,3.6818,3.9174,4.1302,4.4847,4.9293,5.336,5.4244,5.5613,5.6646,5.5904,5.5748,5.5638,5.4894,5.3604,5.172,4.8685,4.6914,4.501,4.185,4.0675,4.0744,4.2566,4.3665,4.572,4.999,5.215,5.4132,5.6462,5.7483,5.7997,5.7997,5.7997,5.7997,5.7997,5.7997,5.7997,5.7997,5.7997,5.7997,5.7997,5.7997,5.7997,5.7997,5.7997,5.7997,5.7997,5.7997,5.7997,5.7997,5.7997,5.7997,5.7997,5.7997,5.7997,5.7997,5.7997,5.7997,0.0,5.7997,5.7997,5.7997,5.7997,5.7997,5.7997,5.7997,5.7997,5.8125,0.0,0.0,0.0,0.0,0.0,0.0,2.6193,2.745,2.9912,3.5774,3.5385,3.3941,3.2273,3.048,2.7486,2.2726,0.0,0.0,0.0,0.0,0.0,0.0,0.0,0.0,0.0,0.0,2.2149,2.1884,2.2577,0.0,0.0,0.0,0.0,0.0,0.0,2.2186,2.1451,2.2515,0.0,0.0,0.0,0.0,0.0,0.0,0.0,0.0,0.0,0.0,3.2894,3.4771,3.7461,4.0454,4.2866,4.5905,4.9031,5.1205,5.2937,5.4097,5.3795,5.3705,5.3532,5.2749,5.1745,5.0202,4.7244,4.5401,4.3474,4.0493,3.9643,3.9889,4.1357,4.2232,4.4021,4.794,4.9526,5.0939,5.2902,5.473,5.5831,5.5831,5.6693,5.7464,5.7941,5.7997,5.7997,5.7997,5.7997,5.7997,5.7997,5.7997,5.7997,5.7997,5.7997,5.7997,5.7997,5.7997,5.7997,5.7997,5.7997,5.7997,5.7997,5.7997,5.7997,5.7997,5.7997,5.7997,0.0,5.7997,5.7997,5.7997,5.7997,5.7997,5.7997,5.7997,5.7997,5.8125,0.0,0.0,0.0,0.0,0.0,2.1347,2.7408,2.8416,3.0511,3.6163,3.6248,3.5092,3.3271,3.0954,2.7858,2.3639,2.2685,0.0,0.0,0.0,0.0,0.0,0.0,0.0,0.0,0.0,2.205,2.1709,2.2565,2.243,0.0,0.0,2.2239,2.0741,0.0,0.0,0.0,0.0,0.0,0.0,0.0,0.0,0.0,0.0,0.0,0.0,0.0,0.0,0.0,0.0,0.0,3.8407,4.0135,4.201,4.4431,4.8792,5.0847,5.1807,5.2254,5.2379,5.2203,5.1392,5.0321,4.8798,4.6278,4.4167,4.2036,3.9512,3.8819,3.9091,4.0458,4.1116,4.2616,4.6165,4.7416,4.87,5.0857,5.2821,5.4216,5.4693,5.5757,5.6767,5.7574,5.785,5.7997,5.7997,5.7997,5.7997,5.7997,5.7997,5.7997,5.7997,5.7997,5.7997,5.7997,5.7997,5.7997,5.7997,5.7997,5.7997,5.7997,5.7997,5.7997,5.7997,5.7997,5.7997,0.0,5.7997,5.7997,5.7997,5.7997,5.7997,5.7997,5.7997,5.7997,5.807,0.0,0.0,0.0,0.0,0.0,0.0,2.6034,2.8627,3.1147,3.4134,3.3897,3.3152,3.2395,2.8332,2.5634,2.5567,2.3564,0.0,0.0,0.0,0.0,0.0,0.0,0.0,0.0,0.0,2.1997,2.1997,2.327,2.3343,2.229,2.2975,2.2725,2.1625,0.0,0.0,0.0,0.0,0.0,0.0,0.0,0.0,2.2785,0.0,0.0,0.0,0.0,0.0,0.0,0.0,0.0,0.0,0.0,3.7873,4.0504,4.7862,5.0059,5.0433,5.19,5.2352,5.2203,5.1392,4.9561,4.7532,4.6027,4.3386,4.0798,3.9322,3.8413,3.8476,4.0366,4.0714,4.1853,4.5343,4.659,4.826,5.1518,5.2692,5.3801,5.5401,5.5603,5.5923,5.6719,5.7538,5.7997,5.7997,5.7997,5.7997,5.7997,5.7997,5.7997,5.7997,5.7997,5.7997,5.7997,5.7997,5.7997,5.7997,5.7997,5.7997,5.7997,5.7997,5.7997,5.7997,5.7997,5.7997,0.0,5.7997,5.7997,5.7997,5.7997,5.7997,5.7997,5.7997,5.7997,5.7997,0.0,0.0,0.0,0.0,0.0,0.0,2.5384,2.6564,2.8103,3.1096,3.1282,3.1055,3.0818,2.8129,2.605,2.5263,2.3429,0.0,0.0,0.0,0.0,0.0,0.0,0.0,0.0,2.2107,2.2756,2.2879,2.4678,2.4973,2.3878,2.4553,2.3743,2.1684,2.1297,2.0749,0.0,0.0,0.0,0.0,0.0,2.1487,2.215,0.0,0.0,0.0,0.0,0.0,0.0,0.0,0.0,0.0,0.0,0.0,0.0,4.2492,4.5066,4.6429,4.6905,4.7414,4.7629,4.6876,4.5754,4.4437,4.2949,4.1119,3.9288,3.7799,3.7308,3.7439,3.8404,3.9288,4.1286,4.5551,4.6712,4.8058,5.0802,5.2821,5.4014,5.3959,5.5904,5.7336,5.7593,5.785,5.7997,5.7997,5.7997,5.7997,5.7997,5.7997,5.7997,5.7997,5.7997,5.7997,5.7997,5.7997,5.7997,5.7997,5.7997,5.7997,5.7997,5.7997,5.7997,5.7997,5.7997,5.7997,5.7997,5.7997,5.7997,5.7997,5.7997,5.7997,5.7997,5.7997,5.7997,5.7997,0.0,0.0,0.0,0.0,0.0,0.0,2.4141,2.5002,2.5983,2.7696,2.7911,2.8183,2.8928,2.6332,2.4672,2.496,2.304,0.0,0.0,0.0,0.0,0.0,0.0,0.0,2.0879,2.1942,2.3041,2.4169,2.5929,2.6556,2.6114,2.6797,2.5573,2.2809,2.2349,2.1418,0.0,0.0,0.0,0.0,2.0201,2.0498,2.1107,0.0,0.0,0.0,0.0,0.0,0.0,0.0,0.0,0.0,0.0,0.0,0.0,0.0,4.0468,4.2502,4.4446,4.513,4.5162,4.4702,4.3789,4.2675,4.1461,3.9851,3.8244,3.7049,3.6564,3.6605,3.7447,3.8409,4.0271,4.3968,4.4965,4.6461,4.9848,5.1628,5.2968,5.3977,5.6143,5.7556,5.7556,5.7813,5.7997,5.7997,5.7997,5.7997,5.7997,5.7997,5.7997,5.7997,5.7997,5.7997,5.7997,5.7997,5.7997,5.7997,5.7997,5.7997,5.7997,5.7997,5.7997,5.7997,5.7997,5.7997,0.0,5.7997,5.7997,5.7997,5.7997,5.7997,5.7997,5.7997,5.7997,5.7997,0.0,0.0,0.0,0.0,0.0,0.0,0.0,2.386,2.4615,2.4137,2.4116,2.4805,2.6576,2.3312,2.1989,2.4453,0.0,0.0,0.0,0.0,0.0,0.0,0.0,0.0,2.0617,2.1425,2.3101,2.5663,2.7121,2.8145,2.8783,2.9364,2.7858,2.462,2.3449,2.2118,0.0,0.0,0.0,0.0,1.9271,1.9359,0.0,0.0,0.0,0.0,0.0,0.0,0.0,0.0,0.0,0.0,0.0,0.0,0.0,0.0,0.0,0.0,0.0,4.4561,4.4178,4.4127,4.3044,4.1779,4.1068,3.9309,0.0,3.6868,3.6129,3.6004,3.7307,3.7968,3.9069,4.1338,4.2176,4.4232,4.9077,4.9968,5.151,5.5328,5.6436,5.6884,5.6884,5.7556,5.7997,5.7997,5.7997,5.7997,5.7997,5.7997,5.7997,5.7997,5.7997,5.7997,5.7997,5.7997,5.7997,5.7997,5.7997,5.7997,5.7997,5.7997,5.7997,5.7997,5.7997,5.7997,5.7997,5.7997,5.7997,5.7997,5.7997,5.7997,5.7997,5.7997,5.7997,5.7997,0.0,0.0,0.0,0.0,0.0,0.0,0.0,0.0,0.0,0.0,2.2275,2.2583,2.2473,2.1593,2.1101,0.0,0.0,0.0,0.0,0.0,0.0,0.0,0.0,0.0,1.9938,2.2049,2.4208,2.6375,2.8682,3.0066,3.0507,3.0145,2.798,2.435,2.3566,2.2022,0.0,0.0,0.0,0.0,1.966,1.9698,0.0,0.0,0.0,0.0,2.2689,2.483,0.0,0.0,0.0,0.0,0.0,0.0,0.0,0.0,3.4573,3.5684,3.7467,0.0,4.0185,3.9614,3.9208,3.8734,0.0,3.7427,3.6834,3.6033,3.5718,3.5876,3.682,3.7262,3.8828,4.2959,4.4445,4.6764,5.1636,5.393,5.5684,5.7244,5.7593,5.7721,5.7721,5.7886,5.7997,5.7997,5.7997,5.7997,5.7997,5.7997,5.7997,5.7997,5.7997,5.7997,5.7997,5.7997,5.7997,5.7997,5.7997,5.7997,5.7997,5.7997,5.7997,5.7997,5.7997,5.7997,5.7997,5.7997,5.7997,5.7997,5.7997,5.7997,5.7997,5.7997,5.7997,5.7997,0.0,0.0,0.0,0.0,0.0,0.0,0.0,0.0,0.0,0.0,2.075,2.0922,2.0697,2.0507,0.0,0.0,0.0,0.0,0.0,0.0,0.0,0.0,0.0,1.9833,2.0154,2.2154,2.4608,2.7515,2.9096,3.0599,3.1988,3.0915,2.8381,2.4612,2.2602,2.0986,0.0,0.0,0.0,1.9786,1.9535,0.0,0.0,0.0,0.0,0.0,2.2738,2.4803,0.0,2.8406,3.045,3.2475,0.0,0.0,0.0,0.0,3.318,3.3654,3.4393,3.649,3.8396,3.8007,3.8147,3.821,3.7466,3.7038,3.6491,3.5334,3.5357,3.5819,3.6526,3.786,3.9884,4.3043,4.5503,4.8581,5.3104,5.5831,5.7519,5.7941,5.7997,5.7997,5.7997,5.7997,5.7997,5.7997,5.7997,5.7997,5.7997,5.7997,5.7997,5.7997,5.7997,5.7997,5.7997,5.7997,5.7997,5.7997,5.7997,5.7997,5.7997,5.7997,5.7997,5.7997,5.7997,5.7997,5.7997,5.7997,5.7997,5.7997,5.7997,5.7997,5.7997,5.7997,5.7997,5.7997,0.0,0.0,0.0,0.0,0.0,0.0,0.0,0.0,0.0,0.0,0.0,0.0,0.0,0.0,0.0,0.0,0.0,0.0,0.0,0.0,0.0,0.0,1.9657,2.0118,2.0982,2.2213,2.4773,2.8742,2.9434,3.0882,3.2982,3.1889,2.9089,2.4872,2.1547,1.9874,1.9535,0.0,0.0,1.9622,1.9083,0.0,0.0,0.0,0.0,0.0,0.0,0.0,0.0,3.0004,3.1736,3.2774,3.3589,0.0,0.0,0.0,0.0,0.0,3.3305,3.5622,3.7686,3.7437,3.8024,3.8464,3.7719,3.706,3.6242,3.4928,3.5327,3.6165,3.7036,3.9332,4.1636,4.3335,4.679,5.048,5.4087,5.6565,5.7997,5.7997,5.7997,5.7997,5.7997,5.7997,5.7997,5.7997,5.7997,5.7997,5.7997,5.7997,5.7997,5.7997,5.7997,5.7997,5.7997,5.7997,5.7997,5.7997,5.7997,5.7997,5.7997,5.7997,5.7997,5.7997,5.7997,0.0,5.7997,5.7997,5.7997,5.7997,5.7997,5.7997,5.7997,5.7997,5.7997,5.7997,0.0,0.0,0.0,0.0,0.0,0.0,0.0,0.0,0.0,0.0,0.0,0.0,0.0,0.0,0.0,0.0,0.0,0.0,0.0,0.0,0.0,1.9034,1.946,2.0546,2.2358,2.3097,2.5432,2.9443,3.1707,3.2745,3.2613,3.3573,3.0501,2.4105,2.2117,2.0201,1.843,1.8367,0.0,1.907,1.8543,0.0,0.0,0.0,0.0,0.0,0.0,0.0,0.0,2.8388,3.0743,3.297,3.1313,0.0,0.0,0.0,0.0,0.0,3.3778,3.5616,3.6648,3.5346,3.609,3.6936,3.6135,3.5864,3.5712,3.5492,3.6428,3.793,4.0003,4.1496,4.3586,4.7188,5.0967,5.3922,5.5236,5.6907,5.7997,5.7997,5.7997,5.7997,5.7997,5.7997,5.7997,5.7997,5.7997,5.7997,5.7997,5.7997,5.7997,5.7997,5.7997,5.7997,5.7997,5.7997,5.7997,5.7997,5.7997,5.7997,5.7997,5.7997,5.7997,5.7997,0.0,5.7997,5.7997,5.7997,5.7997,5.7997,5.7997,5.7997,5.7997,5.7997,5.7997,5.7997,0.0,0.0,0.0,0.0,0.0,0.0,0.0,0.0,0.0,0.0,0.0,0.0,0.0,0.0,0.0,0.0,0.0,0.0,0.0,0.0,2.007,2.0927,2.1193,2.1625,2.2256,2.4547,2.7542,3.1165,3.3286,3.4518,3.486,3.1951,2.8066,2.3424,2.1153,1.9409,1.8204,1.8204,1.8343,1.8543,0.0,0.0,0.0,0.0,0.0,0.0,0.0,0.0,0.0,0.0,3.1079,3.3152,3.1742,0.0,0.0,0.0,0.0,0.0,3.1952,3.41,3.5977,3.5273,3.7144,3.9073,3.8705,3.8575,3.8288,3.7442,3.8379,3.9879,4.1687,4.3829,4.7037,5.2237,5.4184,5.5475,5.6723,5.7519,5.7997,5.7997,5.7997,5.7997,5.7997,5.7997,5.7997,5.7997,5.7997,5.7997,5.7997,5.7997,5.7997,5.7997,5.7997,5.7997,5.7997,5.7997,5.7997,5.7997,5.7997,5.7997,5.7997,5.7997,5.7997,5.7997,0.0,5.7997,5.7997,5.7997,5.7997,5.7997,5.7997,5.7997,5.7997,5.7997,5.7997,5.7997,0.0,0.0,0.0,0.0,0.0,0.0,0.0,0.0,0.0,0.0,0.0,0.0,0.0,0.0,0.0,0.0,0.0,0.0,0.0,1.9433,2.0201,2.1792,2.2682,2.3313,2.3709,2.6698,2.9982,3.344,3.5182,3.6446,3.7082,3.0594,2.608,2.3327,2.0455,1.8669,1.7791,1.7791,1.789,1.8015,0.0,0.0,0.0,0.0,0.0,0.0,0.0,0.0,0.0,0.0,0.0,0.0,0.0,0.0,0.0,3.1326,3.1021,3.1454,3.14,3.3453,3.5718,3.627,3.8435,4.0561,4.1085,4.0964,4.0584,3.9936,4.1025,4.2539,4.3955,4.7096,5.1023,5.5757,5.6308,5.6595,5.7843,5.7997,5.7997,5.7997,5.7997,5.7997,5.7997,5.7997,5.7997,5.7997,5.7997,5.7997,5.7997,5.7997,5.7997,5.7997,5.7997,5.7997,5.7997,5.7997,5.7997,5.7997,5.7997,5.7997,5.7997,5.7997,5.7997,5.7997,5.7997,5.7997,5.7997,5.7997,5.7997,5.7997,5.7997,5.7997,5.7997,5.7997,5.7997,5.7997,0.0,0.0,0.0,0.0,0.0,0.0,0.0,0.0,0.0,0.0,0.0,0.0,0.0,0.0,0.0,0.0,0.0,0.0,0.0,1.8679,1.9084,1.9349,2.2637,2.5905,2.8984,2.9865,3.2228,3.6209,3.8142,3.8689,3.7783,3.1531,2.7131,2.4346,2.1155,1.8581,1.6613,1.6613,1.6948,1.7444,1.7395,0.0,0.0,0.0,0.0,0.0,0.0,0.0,0.0,0.0,0.0,0.0,0.0,0.0,3.3305,3.2401,3.2175,3.2666,3.4664,3.5397,3.6118,3.8227,3.8447,3.8671,4.073,4.0606,4.0646,4.2653,4.4638,4.6489,4.8079,5.2018,5.5167,5.5622,5.6877,5.7868,5.7978,5.7997,5.7997,5.7997,5.7997,5.7997,5.7997,5.7997,5.7997,5.7997,5.7997,5.7997,5.7997,5.7997,5.7997,5.7997,5.7997,5.7997,5.7997,5.7997,5.7997,5.7997,5.7997,5.7997,5.7997,5.7997,5.7997,5.7997,5.7997,5.7997,5.7997,5.7997,5.7997,5.7997,5.7997,5.7997,5.7997,5.7997,5.7997,5.7997,0.0,0.0,0.0,0.0,0.0,0.0,0.0,0.0,0.0,0.0,0.0,0.0,0.0,0.0,0.0,0.0,0.0,0.0,0.0,1.8602,1.9674,2.1387,2.3879,2.6602,2.9533,3.2228,3.516,3.8302,3.9469,3.8609,3.584,3.0926,2.6681,2.3035,2.0104,1.833,1.7515,1.6799,1.7038,1.7861,1.7464,1.7894,0.0,0.0,0.0,0.0,0.0,0.0,0.0,0.0,2.7493,2.9116,2.954,3.1409,3.3156,3.153,3.1311,3.1809,3.2645,3.4207,3.6005,3.7717,3.9359,4.1039,4.2848,4.3945,4.5131,4.7004,4.8309,4.9624,5.1231,5.4181,5.6345,5.6345,5.7281,5.7997,5.7997,5.7997,5.7997,5.7997,5.7997,5.7997,5.7997,5.7997,5.7997,5.7997,5.7997,5.7997,5.7997,5.7997,5.7997,5.7997,5.7997,5.7997,5.7997,5.7997,5.7997,5.7997,5.7997,5.7997,5.7997,5.7997,5.7997,5.7997,5.7997,5.7997,5.7997,5.7997,5.7997,5.7997,5.7997,5.7997,5.7997,5.7997,5.7997,5.7997,0.0,0.0,0.0,0.0,0.0,0.0,0.0,0.0,0.0,0.0,0.0,0.0,0.0,0.0,0.0,0.0,0.0,0.0,1.7605,1.8263,1.9554,2.1603,2.4005,2.6542,2.9234,3.3155,3.6372,3.8763,3.9645,3.8198,3.4514,3.0467,2.6771,2.3396,2.0344,1.907,1.9145,1.7665,1.7489,1.8162,1.7723,1.7777,0.0,0.0,0.0,0.0,0.0,0.0,0.0,0.0,2.6146,2.7665,2.9028,3.1023,3.2622,3.1336,3.1727,3.2544,3.2317,3.4007,3.6316,3.8235,4.0556,4.2999,4.5323,4.6793,4.8278,5.0459,5.1449,5.2406,5.3887,5.5411,5.651,5.6756,5.7483,5.7997,5.7997,5.7997,5.7997,5.7997,5.7997,5.7997,5.7997,5.7997,5.7997,5.7997,5.7997,5.7997,5.7997,5.7997,5.7997,5.7997,5.7997,5.7997,5.7997,5.7997,5.7997,5.7997,5.7997,5.7997,5.7997,5.7997,5.7997,5.7997,5.7997,5.7997,5.7997,5.7997,5.7997,5.7997,5.7997,5.7997,5.7997,5.7997,5.7997,5.7997,0.0,0.0,0.0,0.0,0.0,0.0,0.0,0.0,0.0,0.0,0.0,0.0,0.0,0.0,0.0,0.0,0.0,0.0,1.6532,1.7493,1.8398,1.9069,2.2633,2.583,2.8502,3.2422,3.5416,3.7404,3.8718,3.7635,3.4271,3.0337,2.7655,2.6009,2.2349,2.1006,2.137,1.9158,1.8228,1.8234,1.8168,1.8129,1.8234,0.0,0.0,0.0,0.0,0.0,0.0,0.0,2.5329,2.6121,3.0855,3.1957,3.1626,3.2214,3.389,3.5408,3.4669,3.5429,3.7165,4.0321,4.1976,4.3892,4.7916,4.8515,4.9207,5.2625,5.392,5.483,5.6075,5.5926,5.5879,5.6664,5.7483,5.7997,5.7997,5.7997,5.7997,5.7997,5.7997,5.7997,5.7997,5.7997,5.7997,5.7997,5.7997,5.7997,5.7997,5.7997,5.7997,5.7997,5.7997,5.7997,5.7997,5.7997,5.7997,5.7997,5.7997,5.7997,5.7997,5.7997,5.7997,5.7997,5.7997,5.7997,5.7997,5.7997,5.7997,5.7997,5.7997,5.7997,5.7997,5.7997,5.7997,5.7997,0.0,0.0,0.0,0.0,0.0,0.0,0.0,0.0,0.0,0.0,0.0,0.0,0.0,0.0,0.0,0.0,0.0,0.0,1.6511,1.7493,1.8398,1.9069,2.218,2.4496,2.5756,2.9264,3.2931,3.6761,3.6701,3.4598,3.0626,2.8547,2.6109,2.3434,2.2857,2.2227,2.1511,2.0619,2.0388,2.0663,2.0739,2.0212,1.9489,0.0,0.0,0.0,0.0,0.0,0.0,0.0,0.0,0.0,2.7381,3.0332,3.2638,3.1303,3.2038,3.3185,3.2718,3.453,3.7198,3.9929,4.377,4.7461,4.9703,5.055,5.1803,5.5087,5.6639,5.7282,5.6744,5.7,5.7171,5.6847,5.7483,5.7997,5.7997,5.7997,5.7997,5.7997,5.7997,5.7997,5.7997,5.7997,5.7997,5.7997,5.7997,5.7997,5.7997,5.7997,5.7997,5.7997,5.7997,5.7997,5.7997,5.7997,5.7997,5.7997,5.7997,5.7997,5.7997,5.7997,5.7997,5.7997,5.7997,5.7997,5.7997,5.7997,5.7997,5.7997,5.7997,5.7997,5.7997,5.7997,5.7997,5.7997,0.0,0.0,0.0,0.0,0.0,0.0,0.0,0.0,0.0,0.0,1.6982,1.6982,0.0,0.0,0.0,0.0,0.0,0.0,1.65,1.7493,1.8398,1.9069,2.1512,2.3509,2.4963,2.8008,3.0446,3.2168,3.3066,3.1777,2.8455,2.8439,2.7336,2.5377,2.5846,2.5349,2.4093,2.327,2.2763,2.2509,2.2615,2.2022,2.117,0.0,0.0,0.0,0.0,0.0,0.0,0.0,0.0,0.0,2.5256,2.7987,3.048,3.0311,3.2041,3.416,3.4834,3.7211,4.0257,4.3358,4.6337,4.9232,5.2051,5.3088,5.417,5.6784,5.7647,5.7868,5.7602,5.753,5.7464,5.7299,5.7685,5.7997,5.7997,5.7997,5.7997,5.7997,5.7997,5.7997,5.7997,5.7997,5.7997,5.7997,5.7997,5.7997,5.7997,5.7997,5.7997,5.7997,5.7997,5.7997,5.7997,5.7997,5.7997,5.7997,5.7997,5.7997,5.7997,5.7997,5.7997,5.7997,5.7997,5.7997,5.7997,5.7997,5.7997,5.7997,5.7997,5.7997,5.7997,5.7997,5.7997,5.7997,0.0,0.0,0.0,0.0,0.0,0.0,0.0,0.0,0.0,1.65,1.65,1.65,0.0,0.0,0.0,1.65,1.6445,1.6434,1.65,1.7493,1.8398,1.9069,2.0936,2.3116,2.5543,2.788,2.7835,2.5345,2.8577,2.9165,2.7358,2.9232,3.0014,2.9848,2.996,2.9204,2.7762,2.6232,2.4896,2.379,2.3909,2.356,2.2954,2.2829,0.0,0.0,0.0,0.0,0.0,0.0,0.0,0.0,2.4166,2.5473,2.6614,2.9152,3.2978,3.6822,3.8812,4.1582,4.4829,4.8612,4.9159,5.0018,5.4606,5.5662,5.6124,5.7743,5.7485,5.7302,5.843,5.7684,5.7141,5.7886,5.7997,5.7997,5.7997,5.7997,5.7997,5.7997,5.7997,5.7997,5.7997,5.7997,5.7997,5.7997,5.7997,5.7997,5.7997,5.7997,5.7997,5.7997,5.7997,5.7997,5.7997,5.7997,5.7997,5.7997,5.7997,5.7997,5.7997,5.7997,5.7997,5.7997,5.7997,5.7997,5.7997,5.7997,5.7997,5.7997,5.7997,5.7997,5.7997,5.7997,5.7997,5.7997,0.0,0.0,0.0,0.0,0.0,0.0,0.0,0.0,1.65,1.65,1.65,1.65,1.65,1.6073,0.0,1.6468,1.6062,1.5997,1.6466,1.7493,1.8398,1.9069,2.2228,2.4496,2.5573,2.5238,2.4475,2.3321,2.609,2.6921,2.5977,2.7738,2.8619,2.8682,2.9122,2.8395,2.6741,2.5393,2.4667,2.4446,2.4993,2.4498,2.345,2.3428,2.2278,0.0,0.0,0.0,0.0,0.0,0.0,0.0,2.3159,2.514,2.7009,2.7357,3.0988,3.4915,3.5118,3.9542,4.4638,4.7076,5.0173,5.3237,5.5615,5.6106,5.6442,5.7753,5.8169,5.8259,5.8165,5.7923,5.7795,5.796,5.7997,5.7997,5.7997,5.7997,5.7997,5.7997,5.7997,5.7997,5.7997,5.7997,5.7997,5.7997,5.7997,5.7997,5.7997,5.7997,5.7997,5.7997,5.7997,5.7997,5.7997,5.7997,5.7997,5.7997,5.7997,5.7997,5.7997,5.7997,5.7997,5.7997,5.7997,5.7997,5.7997,5.7997,5.7997,5.7997,5.7997,5.7997,5.7997,5.7997,5.7997,5.7997,0.0,0.0,0.0,0.0,0.0,0.0,0.0,0.0,1.6402,1.6106,1.6062,1.6062,1.6062,1.556,0.0,0.0,1.5821,1.5895,1.6458,1.7504,1.8767,2.0281,2.2765,2.3877,2.3364,2.3049,2.2225,2.0882,2.2582,2.4128,2.559,2.7458,2.9042,3.0317,3.0265,2.9051,2.6988,2.6321,2.5674,2.5139,2.5797,2.5465,2.4492,2.3849,2.2388,2.0608,1.9938,0.0,0.0,0.0,0.0,0.0,0.0,0.0,2.4879,2.6691,3.0283,3.4199,3.6604,4.1314,4.6163,4.879,5.1508,5.394,5.5599,5.5949,5.6306,5.7705,5.819,5.8293,5.8047,5.7997,5.7997,5.7997,5.7997,5.7997,5.7997,5.7997,5.7997,5.7997,5.7997,5.7997,5.7997,5.7997,5.7997,5.7997,5.7997,5.7997,5.7997,5.7997,5.7997,5.7997,5.7997,5.7997,5.7997,5.7997,5.7997,5.7997,5.7997,5.7997,5.7997,5.7997,5.7997,5.7997,5.7997,5.7997,5.7997,5.7997,5.7997,5.7997,5.7997,5.7997,5.7997,5.7997,5.7997,5.7997,0.0,0.0,0.0,0.0,0.0,0.0,0.0,0.0,0.0,1.5676,1.5537,1.5457,1.5358,1.4844,1.477,0.0,0.0,0.0,1.6464,1.7705,1.9383,2.1595,2.2729,2.2659,2.1273,2.1463,2.0822,1.9253,1.969,2.1913,0.0,0.0,0.0,3.2464,3.1448,2.9671,2.7405,2.6953,2.6105,2.5151,2.5701,2.5596,2.4971,2.3744,2.2193,2.0608,1.9938,1.9708,1.9714,1.9833,0.0,0.0,0.0,0.0,2.2355,2.5883,2.9566,3.349,3.8048,4.3009,4.7728,5.1225,5.2698,5.3729,5.5351,5.5708,5.6168,5.7788,5.8058,5.7997,5.7997,5.7997,5.7997,5.7997,5.7997,5.7997,5.7997,5.7997,5.7997,5.7997,5.7997,5.7997,5.7997,5.7997,5.7997,5.7997,5.7997,5.7997,5.7997,5.7997,5.7997,5.7997,5.7997,5.7997,5.7997,5.7997,5.7997,5.7997,5.7997,5.7997,5.7997,5.7997,5.7997,5.7997,5.7997,5.7997,5.7997,5.7997,5.7997,5.7997,5.7997,5.7997,5.802,5.8085,5.807,5.802,0.0,0.0,0.0,0.0,0.0,0.0,0.0,0.0,0.0,0.0,1.5304,1.4881,1.4365,1.3771,1.366,1.4255,1.4691,1.5371,1.6422,0.0,0.0,2.1645,2.1974,2.2294,2.2628,2.1131,2.044,2.0625,2.0132,2.2139,0.0,0.0,0.0,3.247,0.0,0.0,2.6584,2.432,2.3242,2.3107,2.3182,2.3167,2.2992,2.2243,2.144,2.0608,1.9938,1.9708,1.9789,2.0378,2.0601,0.0,0.0,0.0,2.2141,2.3095,2.6903,3.112,3.2466,3.9302,4.7086,5.1371,5.3079,5.4158,5.5833,5.6165,5.66,5.8266,5.8282,5.7997,5.7997,5.7997,5.7997,5.7997,5.7997,5.7997,5.7997,5.7997,5.7997,5.7997,5.7997,5.7997,5.7997,5.7997,5.7997,5.7997,5.7997,5.7997,5.7997,5.7997,5.7997,5.7997,5.7997,5.7997,5.7997,5.7997,5.7997,5.7997,5.7997,5.7997,5.7997,5.7997,5.7997,5.7997,5.7997,5.7997,5.7997,5.7997,5.7997,5.7997,5.7997,5.7997,5.8047,5.8471,5.8351,5.8058,0.0,0.0,0.0,0.0,0.0,0.0,0.0,0.0,0.0,0.0,0.0,1.4648,1.4145,1.3257,1.2954,1.3609,1.4119,1.5268,1.7274,1.8619,1.9744,2.0651,2.0747,2.077,2.0773,1.9961,1.9745,2.018,1.9609,0.0,0.0,2.7383,2.9034,0.0,0.0,0.0,0.0,0.0,2.2697,2.2169,2.2399,2.3221,2.4088,2.1939,2.1625,2.2114,2.0591,1.9892,1.9834,2.0728,2.0645,2.0312,2.1361,0.0,0.0,0.0,2.5623,2.9662,3.5382,4.1322,4.693,5.1161,5.2844,5.3899,5.5527,5.5876,5.6327,5.7964,5.8153,5.7997,5.7997,5.7997,5.7997,5.7997,5.7997,5.7997,5.7997,5.7997,5.7997,5.7997,5.7997,5.7997,5.7997,5.7997,5.7997,5.7997,5.7997,5.7997,5.7997,5.7997,5.7997,5.7997,5.7997,5.7997,5.7997,5.7997,5.7997,5.7997,5.7997,5.7997,5.7997,5.7997,5.7997,5.7997,5.7997,5.7997,5.7997,5.7997,5.7997,5.7997,5.7997,5.7997,5.8031,5.8227,5.8179,5.8042,0.0,0.0,0.0,0.0,0.0,0.0,0.0,0.0,0.0,0.0,0.0,1.4607,1.4146,0.0,0.0,0.0,1.3799,1.5121,1.7534,1.8325,1.8926,1.9421,1.9306,1.9111,1.885,1.884,1.9087,1.9597,0.0,0.0,2.9087,2.7869,2.937,0.0,3.0274,2.7884,0.0,0.0,0.0,2.2019,2.2782,2.3892,2.4942,2.3565,2.369,2.4353,2.2319,2.1287,2.0906,2.1193,2.0852,2.0465,2.1497,2.1637,0.0,0.0,0.0,2.8087,3.674,4.1227,4.4616,4.9416,5.1454,5.2821,5.4821,5.5456,5.6007,5.7409,5.785,5.7997,5.7997,5.7997,5.7997,5.7997,5.7997,5.7997,5.7997,5.7997,5.7997,5.7997,5.7997,5.7997,5.7997,5.7997,5.7997,5.7997,5.7997,5.7997,5.7997,5.7997,5.7997,5.7997,5.7997,5.7997,5.7997,5.7997,5.7997,5.7997,5.7997,5.7997,5.7997,5.7997,5.7997,5.7997,5.7997,5.7997,5.7997,5.7997,5.7997,5.7997,5.7997,5.7997,5.802,5.8142,5.8097,5.802,0.0,0.0,0.0,0.0,0.0,0.0,0.0,0.0,0.0,0.0,0.0,1.4756,1.4166,1.3596,1.3257,1.3302,1.3794,1.481,1.6473,1.7564,1.8169,1.8197,1.772,0.0,1.8137,1.8157,1.8631,1.9597,0.0,0.0,2.8372,2.8967,3.1089,3.4282,3.1593,2.8976,2.6444,0.0,0.0,2.2801,2.4546,2.4621,2.4124,2.7955,2.8585,2.719,2.5676,2.4669,2.3784,2.1917,2.1553,2.1821,2.1454,2.1873,2.2416,0.0,0.0,0.0,3.1963,3.5174,3.8405,4.5111,4.8308,5.061,5.3739,5.5042,5.5842,5.6693,5.7464,5.7997,5.7997,5.7997,5.7997,5.7997,5.7997,5.7997,5.7997,5.7997,5.7997,5.7997,5.7997,5.7997,5.7997,5.7997,5.7997,5.7997,5.7997,5.7997,5.7997,5.7997,5.7997,5.7997,5.7997,5.7997,5.7997,5.7997,5.7997,5.7997,5.7997,5.7997,5.7997,5.7997,5.7997,5.7997,5.7997,5.7997,5.7997,5.7997,5.7997,5.7997,5.7997,5.7997,5.8047,5.8495,5.8375,5.807,0.0,0.0,0.0,0.0,0.0,0.0,0.0,0.0,0.0,0.0,0.0,0.0,0.0,1.4163,1.3677,1.3331,1.4109,1.5146,1.6421,1.7183,1.7585,1.7585,1.7404,1.7544,1.8096,1.8106,1.8886,0.0,0.0,2.3274,2.8162,2.7648,2.9304,3.2623,3.0749,2.9378,2.8275,2.5394,0.0,2.3417,2.511,2.6472,2.7581,2.8192,2.9428,3.0551,2.8078,0.0,2.4993,2.4966,2.3672,2.2161,2.268,2.2427,2.2002,2.225,2.3293,2.5361,2.9759,3.278,3.5912,4.0992,4.5153,4.8581,5.0765,5.3115,5.5207,5.6535,5.7031,5.7391,5.7905,5.7997,5.7997,5.7997,5.7997,5.7997,5.7997,5.7997,5.7997,5.7997,5.7997,5.7997,5.7997,5.7997,5.7997,5.7997,5.7997,5.7997,5.7997,5.7997,5.7997,5.7997,5.7997,5.7997,5.7997,5.7997,5.7997,5.7997,5.7997,5.7997,5.7997,5.7997,5.7997,5.7997,5.7997,5.7997,5.7997,5.7997,5.7997,5.7997,5.7997,5.7997,5.8031,5.819,5.8135,5.8013,0.0,0.0,0.0,0.0,0.0,0.0,0.0,0.0,0.0,1.5085,0.0,0.0,0.0,0.0,1.4421,1.3886,1.465,1.5469,1.6172,1.6733,1.7034,1.7034,1.7198,1.7544,1.8096,1.8283,1.922,0.0,0.0,0.0,0.0,2.6957,2.8344,3.1057,2.9444,2.9148,0.0,2.6714,2.5252,2.5123,2.7577,2.8855,2.9512,3.1423,3.2478,3.274,3.1519,2.9785,2.8142,2.8474,2.7221,2.5404,2.4717,2.3281,2.1946,2.2525,2.3321,2.4592,2.7337,2.9897,3.2963,3.787,4.1295,4.4608,4.8948,5.132,5.3264,5.5697,5.6638,5.7162,5.7707,5.7901,5.7997,5.7997,5.7997,5.7997,5.7997,5.7997,5.7997,5.7997,5.7997,5.7997,5.7997,5.7997,5.7997,5.7997,5.7997,5.7997,5.7997,5.7997,5.7997,5.7997,5.7997,5.7997,5.7997,5.7997,5.7997,5.7997,5.7997,5.7997,5.7997,5.7997,5.7997,5.7997,5.7997,5.7997,5.7997,5.7997,5.7997,5.7997,5.7997,5.7997,5.7997,5.7997,5.7997,5.7997,0.0,0.0,0.0,0.0,0.0,0.0,0.0,0.0,1.6259,1.5676,0.0,0.0,0.0,0.0,0.0,1.5039,1.5457,1.5746,1.5744,1.6227,1.6529,1.6541,1.7032,1.7551,1.8116,1.8631,1.9591,0.0,0.0,0.0,0.0,0.0,2.8453,2.9797,2.7837,2.8233,3.0296,2.8728,2.7863,2.7904,3.1845,3.1558,2.9629,3.7918,3.7922,3.3828,3.6085,3.5449,3.3351,3.2255,3.2031,3.1516,2.7344,2.4328,2.2356,2.2619,2.2935,2.3442,0.0,0.0,0.0,3.5601,3.6677,3.8678,4.8205,4.9537,4.9889,5.401,5.6094,5.7209,5.733,5.7691,5.7997,5.796,5.7978,5.7997,5.7997,5.7997,5.7997,5.7997,5.7997,5.7997,5.7997,5.7997,5.7997,5.7997,5.7997,5.7997,5.7997,5.7997,5.7997,5.7997,5.7997,5.7997,5.7997,5.7997,5.7997,5.7997,5.7997,5.7997,5.7997,5.7997,5.7997,5.7997,5.7997,5.8008,5.802,5.8008,5.7997,5.7997,5.7997,5.7997,5.7997,5.7997,5.7997,5.7997,0.0,0.0,0.0,0.0,0.0,1.6304,1.5687,1.5743,1.5798,0.0,0.0,0.0,0.0,0.0,0.0,1.7232,1.7019,1.686,1.6865,1.69,1.7152,1.7643,1.7327,1.7631,1.8669,1.8826,1.9591,0.0,0.0,0.0,0.0,0.0,0.0,2.7014,2.6446,2.6808,2.7686,2.5449,2.616,2.8852,2.9502,3.1445,3.4215,3.6925,3.8383,3.9016,3.9084,3.8019,3.6538,3.6219,3.3867,3.0305,2.5947,2.3526,2.23,2.2388,2.2798,2.3271,2.359,0.0,0.0,0.0,0.0,0.0,3.9538,4.1664,4.4307,5.0163,5.1705,5.2824,5.5597,5.7136,5.7813,5.7226,5.7611,5.7997,5.7997,5.7997,5.7997,5.7997,5.7997,5.7997,5.7997,5.7997,5.7997,5.7997,5.7997,5.7997,5.7997,5.7997,5.7997,5.7997,5.7997,5.7997,5.7997,5.7997,5.7997,5.7997,5.7997,5.7997,5.7997,5.7997,5.7997,5.7997,5.7997,5.819,5.8474,5.8142,5.7997,5.7997,5.7997,5.7997,5.7997,5.7997,5.7997,5.7997,0.0,0.0,1.6586,1.6825,1.7063,1.7164,1.7029,1.6825,1.6764,0.0,0.0,0.0,0.0,0.0,0.0,1.9008,1.8665,1.8232,1.7675,1.7308,1.7404,1.8068,1.7678,1.7889,1.8878,1.9123,1.9811,2.0991,0.0,0.0,0.0,0.0,0.0,2.4856,2.4856,2.5217,2.5699,2.3429,2.4915,2.9008,3.142,3.3451,3.5367,3.8719,3.9921,3.9957,4.1028,4.0268,3.8902,3.9831,3.6518,3.1519,2.8725,2.5921,2.3501,2.2561,2.3295,2.4313,2.3833,2.4786,2.625,2.7732,0.0,0.0,3.8082,4.0106,4.2695,5.0075,5.1988,5.2947,5.4985,5.6253,5.6852,5.6381,5.6693,5.7237,5.7905,5.7997,5.7997,5.7997,5.7997,5.7997,5.7997,5.7997,5.7997,5.7997,5.7997,5.7997,5.7997,5.7997,5.7997,5.7997,5.7997,5.7997,5.7997,5.7997,5.7997,5.7997,5.7997,5.7997,5.7997,5.7997,5.7997,5.802,5.8213,5.845,5.8694,5.8621,5.8482,5.8271,5.8081,5.7997,5.7997,5.7997,5.7997,5.8031,0.0,0.0,1.6812,1.7462,1.8016,1.8581,1.9183,1.8819,1.8693,0.0,1.9076,0.0,0.0,0.0,0.0,0.0,2.0323,1.9656,1.8474,1.7696,1.7584,1.8255,1.809,1.8299,1.8972,1.9506,2.0165,2.0991,2.1039,2.1493,2.2313,0.0,0.0,2.3282,2.3282,2.3637,2.4163,2.2757,2.4612,2.8953,3.4875,3.6071,3.5049,4.1789,4.2029,3.9191,4.2468,4.2372,4.0981,4.272,3.95,3.4567,3.343,3.0141,2.6151,2.3461,2.4622,2.6483,2.5104,2.5778,2.7341,2.9304,2.8387,0.0,3.9422,4.0809,4.2251,5.0135,5.2721,5.3558,5.3469,5.3961,5.4337,5.4153,5.4649,5.5732,5.7593,5.7868,5.7905,5.7997,5.7997,5.7997,5.7997,5.7997,5.7997,5.7997,5.7997,5.7997,5.7997,5.7997,5.7997,5.7997,5.7997,5.7997,5.7997,5.7997,5.7997,5.7997,5.7997,5.7997,5.7997,5.7997,5.7997,5.8031,5.8495,5.8694,5.8735,5.9158,5.9075,5.8673,5.8238,5.8047,5.7997,5.7997,5.8024,5.8142,1.65,1.6886,1.7526,1.8518,1.9133,1.9836,2.0853,2.0552,2.0653,2.1904,2.2535,0.0,0.0,0.0,0.0,0.0,2.1772,2.0462,2.0205,1.905,1.8691,1.9358,1.8853,1.8862,1.9533,1.9958,2.0441,2.0991,2.1322,2.1757,2.2296,2.2455,0.0,0.0,2.2506,2.2591,2.2861,2.4853,2.76,3.0676,3.1608,3.472,3.9118,4.1753,4.3335,4.4267,4.4868,4.4816,4.4278,4.3136,4.1319,3.8722,3.3918,3.2852,3.2294,2.6609,2.7837,3.0387,2.7506,2.7615,2.8326,2.7506,2.8405,0.0,3.0113,3.1488,3.3883,3.8187,3.9747,4.1042,4.3385,4.5451,4.6397,4.5112,4.8746,5.2986,5.6528,5.7031,5.7281,5.7923,5.7997,5.7997,5.7997,5.7997,5.7997,5.7997,5.7997,5.7997,5.7997,5.7997,5.7997,5.7997,5.7997,5.7997,5.7997,5.7997,5.7997,5.7997,5.7997,5.7997,5.7997,5.7997,5.7997,5.8031,5.8495,5.8694,5.8705,5.8796,5.8776,5.8684,5.8601,5.8329,5.7997,5.7997,5.8238,5.857,1.655,1.7188,1.8141,1.9208,2.0707,2.2108,2.319,2.3537,2.4039,2.5024,0.0,0.0,0.0,0.0,0.0,0.0,0.0,0.0,2.1035,1.9771,1.9323,1.9969,1.9153,1.9114,1.9976,2.0195,2.0633,2.1299,2.1498,2.1838,2.2296,2.2296,2.3081,2.4425,2.2963,2.331,2.5035,2.505,2.6776,2.9843,3.3732,3.7889,4.1948,4.3826,4.5467,4.6697,4.625,4.6307,4.6435,4.5394,4.3015,4.0088,3.7723,3.644,3.4774,2.9568,3.0405,3.2242,2.8837,2.8737,2.9506,2.9108,2.9304,0.0,0.0,3.1806,3.3269,3.7924,3.8388,3.8583,4.0706,4.1764,4.2176,4.1764,4.5782,4.9379,5.059,5.4242,5.7097,5.7905,5.7648,5.7556,5.796,5.7648,5.7574,5.796,5.7997,5.7997,5.7997,5.7997,5.7997,5.7997,5.7997,5.7997,5.7997,5.7997,5.7997,5.7997,5.7997,5.7997,5.7997,5.7997,5.813,5.8383,5.8845,5.9047,5.9065,5.9293,5.913,5.8694,5.8694,5.8568,5.8383,5.8611,5.8845,5.9084,1.6624,1.7414,1.8579,1.9788,2.2113,2.418,2.5205,2.6176,2.7099,2.7945,0.0,0.0,0.0,0.0,0.0,0.0,0.0,0.0,2.239,2.1244,2.0788,2.1062,1.9676,1.9589,2.1045,2.0646,2.083,2.1597,2.1688,2.1928,2.2296,2.2296,2.3571,2.5778,2.4113,2.4789,2.7063,2.5541,2.6843,3.0528,3.7336,4.0773,4.2134,4.5187,4.6649,4.706,4.7233,4.7736,4.822,4.7611,4.4756,4.1423,4.125,3.9804,3.7212,3.2527,3.3175,3.4603,3.0798,3.0665,3.1531,3.1244,3.0779,3.1029,0.0,0.0,0.0,3.8173,3.7884,3.7154,3.814,3.79,3.7742,3.8222,4.1939,4.4324,4.3012,4.9159,5.4315,5.5739,5.6308,5.6638,5.6822,5.5959,5.6051,5.7648,5.7042,5.695,5.7721,5.7923,5.7997,5.7997,5.7997,5.7997,5.7997,5.7997,5.7997,5.7997,5.7997,5.7997,5.8008,5.8085,5.834,5.8725,5.9204,5.9346,5.9284,5.9677,5.9319,5.857,5.8654,5.8694,5.8755,5.913,5.9372,5.9595,1.6624,1.7414,1.8735,2.0388,2.2697,2.4676,2.5755,2.6607,2.7854,0.0,0.0,0.0,3.5582,3.4272,3.3319,3.3617,0.0,0.0,2.6015,2.5368,2.4776,2.388,2.1106,2.0912,2.3773,2.1925,2.1142,2.1597,2.2017,2.2254,2.2296,2.2296,2.2489,2.2929,2.5863,2.6311,2.5109,2.8764,3.3154,3.7777,3.9374,3.8412,3.6681,4.254,4.4584,4.4783,4.8212,4.9869,5.0116,4.7897,4.6771,4.5453,4.0596,4.1692,4.3305,3.5662,3.7176,4.0296,3.5556,3.543,3.5656,3.1403,3.2926,3.3733,2.7095,0.0,2.9937,2.7778,0.0,2.8079,2.8215,0.0,0.0,2.835,3.2821,3.6318,3.6134,4.0013,4.4241,4.7901,5.2729,5.4942,5.2886,5.1242,5.216,5.659,5.3628,5.3159,5.6756,5.7611,5.7997,5.7997,5.7997,5.7997,5.7997,5.7997,5.7997,5.7997,5.7997,5.7997,5.802,5.8429,5.8652,5.8725,5.9204,5.9148,5.8776,5.8835,5.8539,5.8119,5.8547,5.8694,5.8705,5.8765,5.932,6.0025,1.655,1.7983,1.9444,2.0119,2.291,2.5351,2.6049,2.8512,3.0746,3.2016,3.3047,3.4152,3.5437,3.4137,3.3479,3.4279,3.3409,3.1454,2.8244,2.7282,2.6192,2.4776,2.2094,2.171,2.403,2.2272,2.156,2.201,2.2202,2.2296,2.2296,2.2296,2.3429,2.5559,2.7114,2.8973,3.0954,3.1133,3.2808,3.548,3.6882,3.6348,3.5642,4.4372,4.7836,4.8357,5.0867,5.1806,5.1676,0.0,4.8526,4.6279,4.5855,4.4664,4.2736,3.9372,3.9246,3.9452,3.5958,3.6229,3.6666,3.3164,3.3587,3.3476,2.8185,2.7218,2.7302,2.688,0.0,0.0,0.0,0.0,0.0,0.0,3.0546,3.3115,3.172,3.6252,4.103,4.4599,4.6305,0.0,4.9682,4.9224,5.0839,5.5739,5.1903,5.1536,5.6535,5.7123,5.7519,5.7997,5.7997,5.7997,5.7997,5.7997,5.7997,5.7997,5.7997,5.8153,5.8407,5.8611,5.899,5.9519,5.9424,5.9303,5.9084,5.8806,5.8418,5.8047,5.8516,5.8864,5.9149,5.9407,5.9931,6.0502,1.65,1.812,1.9585,1.9849,2.2748,2.5503,2.6738,2.9656,3.2157,3.3396,3.4303,3.5259,3.6362,3.579,3.573,3.6758,3.6617,3.5191,3.2116,3.0288,2.899,2.825,2.4184,2.3174,2.5826,2.3482,2.2254,2.2296,2.2296,2.2324,2.237,2.2324,2.375,2.6445,2.8024,3.0833,3.4353,3.3823,3.4757,3.67,3.8072,3.8984,4.0254,4.674,5.0261,5.1904,5.2988,5.3254,5.303,5.2347,4.9907,0.0,4.924,4.6977,4.3547,4.3166,4.2227,4.07,3.7793,3.8046,3.819,3.4144,3.3476,3.2724,2.8626,2.7181,2.6862,2.737,2.6783,0.0,0.0,0.0,0.0,0.0,0.0,3.0516,2.8314,3.2082,3.6328,3.9761,4.0139,4.1846,0.0,4.5232,4.6911,5.3143,4.9077,4.9196,5.5783,5.6554,5.7068,5.7648,5.7886,5.7997,5.7997,5.7997,5.7997,5.8008,5.813,5.8365,5.8705,5.898,5.9399,5.9893,5.9553,5.9319,5.9176,5.8705,5.8315,5.8047,5.8516,5.8981,5.9468,5.9924,6.0404,6.0806,1.65,1.7456,1.8654,1.9874,2.2127,2.4832,2.8042,2.9182,3.0664,3.3336,3.483,3.7017,4.0602,4.1589,4.256,4.3947,4.5451,4.4109,3.884,3.5653,3.4689,3.6259,2.8105,2.5829,3.0757,2.6237,2.3324,2.2296,2.2296,2.24,2.2594,2.2398,2.2469,2.3005,2.8596,3.1183,3.1707,3.7329,4.2219,4.6167,4.6222,4.8794,5.2202,4.8578,4.9907,5.3721,5.3758,0.0,0.0,5.1673,5.0758,0.0,0.0,0.0,0.0,4.6895,4.7175,4.7122,4.3149,0.0,4.1395,3.3465,3.2657,3.2137,2.5805,2.731,2.9396,2.7102,2.9053,3.0711,0.0,0.0,0.0,0.0,0.0,0.0,0.0,2.5692,2.7302,3.1317,3.5234,3.8898,0.0,3.7496,3.823,0.0,4.4058,4.5177,5.4014,5.5959,5.6811,5.6829,5.7593,5.7997,5.7997,5.7997,5.7997,5.8008,5.8453,5.8684,5.8735,5.9644,5.9812,5.9415,5.9417,5.9149,5.8684,5.8224,5.802,5.8047,5.8516,5.8981,5.9468,5.9924,6.0404,6.0806,1.8214,1.8821,1.9202,1.884,2.1401,2.4771,2.8541,3.049,3.2716,3.6035,3.727,3.905,4.2299,4.2883,4.3621,4.5129,4.5761,4.466,4.1335,3.8445,3.7265,3.8175,3.1243,2.9026,3.2547,2.8105,2.51,2.3763,2.3274,2.2657,2.1944,2.2195,2.2726,2.3671,2.837,3.2642,3.6468,3.8955,4.2132,4.5537,4.6305,4.876,5.1907,0.0,5.2475,5.3851,5.4153,5.4539,0.0,5.3923,5.2705,5.1582,5.1928,5.0031,4.7803,4.84,4.7698,4.6416,0.0,0.0,4.5002,3.7973,0.0,0.0,2.8068,2.8057,2.8877,2.6992,2.9163,0.0,0.0,0.0,0.0,0.0,0.0,0.0,0.0,2.4735,2.5575,2.6931,3.1332,3.4681,0.0,0.0,0.0,0.0,4.4406,0.0,5.3232,5.4638,5.5702,5.6774,5.7049,5.7464,5.7997,5.7997,5.7997,5.8008,5.8492,5.8864,5.9176,5.9804,6.0018,5.9855,5.9526,5.914,5.8654,5.819,5.7997,5.8081,5.8855,5.9248,5.9468,5.9924,6.0208,6.0285,1.9451,1.9847,1.9997,1.9418,2.2153,2.5551,2.8887,3.187,3.4851,3.7927,3.9601,4.1551,4.4316,4.4843,4.5522,4.6758,4.7107,4.6075,4.3298,4.1033,4.003,4.0535,3.536,3.3634,3.6118,3.1529,2.823,2.648,2.494,2.3687,2.2749,2.2705,2.3102,2.3992,2.7646,3.2566,3.8255,4.0301,4.361,4.7569,4.8697,5.0488,5.2563,0.0,5.3885,5.3496,0.0,5.4973,5.5313,5.5313,5.439,5.3447,5.4568,5.2604,5.0107,5.1233,5.0207,4.8522,4.7655,4.8089,0.0,4.146,3.9588,0.0,3.1354,3.1237,3.1904,2.9977,3.1476,0.0,0.0,0.0,0.0,0.0,0.0,0.0,0.0,2.4149,2.4474,2.4474,2.8025,3.0992,0.0,0.0,0.0,0.0,0.0,0.0,0.0,5.3537,5.4583,5.5904,5.6499,5.706,5.7574,5.785,5.8074,5.8249,5.8725,5.9185,5.9669,6.0139,6.0161,5.982,5.9526,5.9037,5.8429,5.8119,5.7997,5.8081,5.8845,5.9158,5.9239,6.0047,6.0243,6.001,2.0184,2.0579,2.1105,2.1684,2.4254,2.7014,2.9255,3.3222,3.6792,3.9027,4.1805,4.4454,4.6769,4.7633,4.8343,4.9052,4.9712,4.8611,4.5091,4.3602,4.3095,4.3649,4.0297,3.9337,4.1326,3.6203,3.2432,3.0251,2.7173,2.5355,2.474,2.3821,2.3479,2.377,2.6538,3.1139,3.7093,4.1466,4.6759,5.2309,5.3425,5.4079,5.4468,5.4998,5.4154,5.2914,5.4536,5.5381,5.5708,5.5708,5.5708,5.5708,5.5708,5.5423,5.5088,5.5088,5.4478,5.3311,5.1009,5.0084,4.8628,4.3846,4.258,0.0,0.0,0.0,3.8241,3.5804,3.6094,0.0,0.0,0.0,0.0,0.0,0.0,0.0,0.0,0.0,0.0,0.0,0.0,0.0,0.0,0.0,0.0,0.0,0.0,4.1138,0.0,5.2498,5.3324,5.4363,5.5875,5.6701,5.6737,5.7572,5.8205,5.8649,5.9185,5.9669,6.0125,6.0578,6.0297,5.9389,5.9389,5.8864,5.7997,5.7997,5.7997,5.8047,5.8547,5.8765,5.8952,6.025,6.045,5.9981,2.1485,2.2822,2.4493,2.5678,2.5705,2.71,3.168,3.427,3.728,4.1725,4.4421,4.6989,4.9764,5.0237,5.0423,5.0626,5.0304,4.971,4.8746,4.6328,4.5725,4.7481,4.3512,4.2028,4.3687,3.8024,3.4224,3.255,2.8433,2.564,2.4124,2.3626,2.3234,2.3093,2.6138,3.1504,3.8487,4.1968,4.7495,5.3938,5.4522,5.4086,5.3348,0.0,5.5477,5.4147,5.5189,5.5605,5.5708,5.5708,5.5708,5.5708,5.5708,5.5423,5.5088,5.5088,5.4478,5.3656,5.305,5.259,5.1536,4.8499,4.6351,4.4121,0.0,0.0,0.0,0.0,0.0,0.0,0.0,0.0,0.0,0.0,0.0,0.0,0.0,0.0,0.0,2.3786,0.0,0.0,0.0,0.0,0.0,0.0,0.0,0.0,5.0765,4.8985,4.9811,5.4252,5.4803,5.5299,5.5886,5.7056,5.7688,5.7839,5.9242,5.9969,6.0125,6.0578,6.0297,5.9389,5.9389,5.8864,5.7997,5.7997,5.7997,5.8081,5.8903,5.9652,6.0229,5.9885,5.9901,6.0018,2.3098,2.5026,2.7463,2.9632,2.9977,3.1048,3.4378,3.6405,3.8963,4.2899,4.5672,4.8054,5.0017,5.11,5.1674,5.1674,5.1302,5.0507,4.9221,4.8494,4.8225,4.8512,4.6701,4.6123,4.6986,4.2113,3.8176,3.5374,3.12,2.7601,2.4621,2.3785,2.3337,2.3348,2.6159,3.0837,3.7027,4.3383,4.881,5.3217,5.4569,5.4645,0.0,5.6225,5.6401,5.5708,5.653,5.6593,5.6266,5.6266,5.6016,5.5708,5.5708,5.5535,5.5325,5.5153,5.4629,5.4057,5.386,5.3505,5.2865,5.1499,5.0123,4.8361,4.5571,4.5278,4.5241,0.0,4.4314,4.4534,0.0,0.0,0.0,0.0,0.0,0.0,0.0,0.0,0.0,0.0,2.4905,0.0,0.0,0.0,0.0,0.0,0.0,0.0,0.0,4.6324,4.8196,5.3188,5.3486,5.4144,5.533,5.6209,5.7133,5.8077,5.9456,6.0215,6.0411,6.0476,6.0084,5.9381,5.9167,5.8674,5.7997,5.7997,5.8119,5.8375,5.9121,5.9855,6.043,5.9901,5.9878,6.0033,2.5333,2.7439,3.0057,3.2931,3.5168,3.6846,3.7694,3.9613,4.1797,4.4119,4.6967,4.902,4.9661,5.1445,5.2567,5.2468,5.2367,5.1217,4.8648,5.0186,5.0339,4.8428,4.956,5.0236,5.0236,4.6631,4.2536,3.8029,3.4195,2.9948,2.5439,2.4052,2.3528,2.3849,2.6291,3.0254,3.5758,4.539,5.041,5.2087,5.4409,5.5565,5.5978,5.6959,5.7324,5.744,5.8319,5.7992,5.717,5.717,5.667,5.6016,5.592,5.5835,5.5694,5.5237,5.4768,5.4313,5.3905,5.3505,5.3196,5.3196,5.3196,5.2443,4.9581,4.8939,4.8737,4.803,4.6232,4.5911,0.0,0.0,0.0,0.0,0.0,0.0,0.0,0.0,0.0,0.0,0.0,0.0,0.0,0.0,0.0,0.0,0.0,0.0,0.0,0.0,4.7113,5.1858,5.2434,5.3265,5.4494,5.5305,5.6584,5.8342,5.9466,6.0269,6.0696,6.0345,5.987,5.9284,5.8933,5.8526,5.8085,5.8085,5.8397,5.8914,5.9328,5.9773,6.0182,6.0182,6.0182,6.0132,2.933,3.0688,3.2076,3.3333,3.72,4.0815,4.2899,4.4547,4.6595,4.9535,5.1964,5.3483,5.36,5.3955,5.3964,5.3348,5.2689,5.208,5.1572,5.1319,5.1032,5.0643,5.0863,5.0998,5.0998,4.738,4.3301,3.8814,3.4432,2.9687,2.4677,2.3806,2.3221,2.3039,2.5932,3.2769,4.2471,4.7699,5.1837,5.5037,5.6189,5.6703,5.694,5.8473,5.905,5.9184,6.005,5.9377,5.8069,5.8069,5.7973,5.7723,5.6997,5.6538,5.6116,5.5325,5.4544,5.3896,5.3833,5.3505,5.3196,5.3196,5.3196,5.3049,5.2462,5.2333,5.2297,5.2168,5.1801,5.0737,4.8223,0.0,0.0,0.0,0.0,0.0,0.0,0.0,0.0,0.0,0.0,0.0,0.0,0.0,0.0,0.0,0.0,0.0,0.0,0.0,4.3663,0.0,5.301,5.3042,0.0,0.0,5.6094,5.5781,5.8361,5.9818,6.0236,6.0546,6.0003,5.8835,5.9149,5.9009,5.857,5.857,5.9084,5.987,5.9958,6.0257,6.0684,6.0684,6.0684,6.0672,3.2572,3.3561,3.4995,3.7646,4.1342,4.5021,4.8164,5.0518,5.1788,5.1363,5.2564,5.3456,5.3454,5.4134,5.4451,5.4106,5.336,5.2926,5.2926,5.2604,5.2564,5.2962,5.2601,5.2395,5.2395,4.9904,4.5453,3.9,3.5656,3.076,2.4481,2.3501,2.301,2.3203,2.8736,3.5186,4.2306,4.7963,5.1669,5.3914,5.6112,5.7003,5.717,5.8858,5.9492,5.9608,6.0492,6.0281,5.9531,5.9069,5.864,5.817,5.7524,5.718,5.6766,5.5429,5.5054,5.4902,5.4276,5.427,5.4344,5.394,5.382,5.371,5.3306,5.3196,5.3196,5.3196,5.3196,5.182,4.7305,4.1936,0.0,0.0,0.0,0.0,0.0,0.0,0.0,0.0,0.0,0.0,0.0,0.0,0.0,0.0,0.0,0.0,0.0,0.0,4.2598,0.0,0.0,0.0,5.2946,0.0,5.6071,5.6797,5.9077,6.0281,6.0443,6.0182,5.9847,5.9407,5.9158,5.9047,5.9084,5.9338,5.9693,6.0125,6.0358,6.061,6.0806,6.0806,6.0806,6.0806,3.6104,3.7074,3.8794,4.2585,4.5924,4.9062,5.1966,5.5037,5.5965,5.2888,5.3123,5.3465,5.3149,5.4291,5.5029,5.4848,5.4296,5.3962,5.3962,5.3962,5.4171,5.4574,5.42,5.3812,5.3511,5.2362,4.7951,4.0172,3.742,3.2442,2.5421,2.3739,2.3809,2.5589,3.225,3.777,4.2455,0.0,5.1471,5.2986,5.6035,5.7286,5.7459,5.9146,5.9781,5.9877,6.055,6.0806,6.0679,5.9897,5.922,5.8595,5.8037,5.7736,5.7261,5.5715,5.5635,5.5864,5.4903,5.5126,5.5456,5.4803,5.4528,5.4234,5.3599,5.3324,5.3196,5.3196,5.3196,5.1764,4.704,4.3404,0.0,0.0,0.0,0.0,0.0,0.0,0.0,0.0,0.0,0.0,0.0,0.0,0.0,0.0,0.0,0.0,3.9695,0.0,4.2268,0.0,4.9913,5.0943,5.2907,0.0,5.6255,5.778,5.9627,6.0573,6.0628,5.9996,5.9781,5.9916,5.9285,5.9213,5.9595,6.0047,6.025,6.0297,6.0666,6.0806,6.0806,6.0806,6.0806,6.0806,4.0901,4.2449,4.3841,4.5999,4.9818,5.2557,5.2413,5.5524,5.7513,5.651,5.7019,5.6945,5.5541,5.6174,5.6398,5.5667,5.552,5.5495,5.5495,5.5495,5.5217,5.4636,5.5162,5.488,5.3516,5.3369,5.025,4.3978,0.0,3.4556,2.8511,2.5298,2.6782,3.2282,3.5037,0.0,0.0,5.0087,5.2496,5.5511,5.7415,5.8184,5.8357,6.0031,6.0691,6.0691,6.0762,6.0806,6.072,6.0215,5.9989,5.9791,5.8959,5.815,5.7331,5.6375,5.5885,5.5632,5.5522,5.5548,5.5585,5.5511,5.4932,5.4381,5.4308,5.371,5.3196,5.3196,5.3196,5.193,4.7755,4.9039,4.8056,0.0,0.0,0.0,0.0,0.0,0.0,0.0,0.0,0.0,0.0,0.0,0.0,0.0,3.1027,0.0,0.0,0.0,4.1817,4.6214,4.8506,4.9044,4.7816,5.3807,5.6527,5.5978,5.8434,5.9798,6.0175,6.0527,6.0229,5.9475,5.9812,5.9984,6.0062,6.0546,6.072,6.0746,6.0775,6.0806,6.0806,6.0806,6.0806,6.0806,4.5986,4.6347,4.7265,5.0285,5.1878,5.3272,5.4864,5.675,5.7558,5.6336,5.7235,5.7774,5.716,5.6971,5.6589,5.5762,5.5692,5.5506,5.5072,5.5448,5.578,5.597,5.6259,5.6136,5.5548,5.4626,5.1434,0.0,0.0,3.5869,3.0672,2.9897,3.2625,3.8304,0.0,4.6326,5.0399,5.3818,5.603,5.7357,5.855,5.9031,5.9146,6.0339,6.0806,6.0806,6.0806,6.0806,6.0734,6.0257,6.011,5.9946,5.9019,5.8503,5.8001,5.6879,5.6787,5.6932,5.6455,5.6675,5.6914,5.6436,5.5721,5.4987,5.4509,5.3794,5.3196,5.3196,5.3196,5.27,5.1067,4.9426,4.7867,4.6403,0.0,0.0,0.0,0.0,0.0,0.0,0.0,0.0,0.0,0.0,0.0,0.0,0.0,0.0,0.0,0.0,3.9211,4.2448,4.8303,5.082,4.9631,5.476,5.7562,5.7992,5.9531,6.0351,6.0508,6.0424,6.0187,5.9855,6.0317,6.0514,6.0521,6.0714,6.0806,6.0806,6.0806,6.0806,6.0806,6.0806,6.0806,6.0806,5.0139,4.9889,5.0516,5.3917,5.4074,5.4448,5.6582,5.7528,5.7606,5.6522,5.7327,5.7909,5.7703,5.7413,5.6997,5.6429,5.6389,5.6155,5.5638,5.6087,5.6527,5.6887,5.7109,5.6907,5.6249,5.5374,5.2681,4.8096,4.3507,3.9191,3.5213,3.5584,3.8619,0.0,4.8074,5.1034,5.3169,5.678,5.8294,5.8371,5.9184,5.9492,5.9608,6.0473,6.0806,6.0806,6.0806,6.0806,6.0702,6.011,5.9893,5.9749,5.8942,5.8601,5.8318,5.7423,5.7556,5.7886,5.7317,5.7574,5.785,5.7299,5.6547,5.575,5.4932,5.4124,5.3489,5.3251,5.3196,5.3196,5.3196,5.037,4.8446,4.9665,0.0,0.0,0.0,4.613,0.0,0.0,4.2215,4.0302,4.0198,3.4756,0.0,0.0,0.0,0.0,0.0,0.0,0.0,0.0,0.0,0.0,5.135,5.5645,5.8374,5.9511,6.0377,6.0806,6.0794,6.0469,6.0311,6.0324,6.0666,6.0806,6.0806,6.0806,6.0806,6.0806,6.0806,6.0806,6.0806,6.0806,6.0806,6.0806,5.2975,5.3279,5.3922,5.6412,5.6845,5.6863,5.6881,5.7528,5.7997,5.7967,5.7997,5.7726,5.6989,5.7565,5.7985,5.7973,5.7973,5.7973,5.7962,5.7973,5.7649,0.0,5.7601,5.6922,5.4682,5.5317,5.4211,5.115,0.0,4.5458,4.324,4.2128,4.4253,4.9097,5.1022,5.4231,5.8204,5.8275,5.8294,5.8371,5.9184,5.9492,5.9608,6.0473,6.0806,6.0806,6.0806,6.0806,6.0666,5.9717,5.9398,5.9338,5.8845,5.8375,5.8008,5.7978,5.7997,5.7997,5.7997,5.7997,5.7997,5.7997,5.7373,5.6572,5.5768,5.495,5.4161,5.3361,5.3196,5.3196,5.3196,5.3159,5.1801,4.78,0.0,0.0,0.0,4.3657,0.0,4.1267,3.4668,3.306,4.0199,3.2925,0.0,0.0,0.0,0.0,0.0,0.0,0.0,4.6383,4.8549,0.0,5.1495,5.6026,5.8698,5.9511,6.0377,6.0806,6.0806,6.0781,6.08,6.08,6.08,6.0806,6.0806,6.0806,6.0806,6.0806,6.0806,6.0806,6.0806,6.0806,6.0806,6.0806,5.631,5.6533,5.6717,5.7521,5.7637,5.7474,5.6976,5.7528,5.7827,5.7327,5.7691,5.7909,5.7679,5.7862,5.7804,5.7284,5.7714,5.7792,0.0,5.7726,5.7897,5.7649,5.7874,5.766,5.6922,5.665,5.5799,5.4342,0.0,0.0,0.0,4.7706,5.0369,5.5426,5.6566,5.7833,5.9165,5.9742,5.9992,6.0031,6.0281,6.0396,6.0416,6.0691,6.0806,6.0806,6.0806,6.0806,6.0702,6.0096,5.9669,5.931,5.8845,5.8383,5.7997,5.7997,5.7997,5.7997,5.7997,5.7997,5.7997,5.7997,5.7409,5.6719,5.6492,5.5372,5.4326,5.4069,5.3581,5.3196,5.3196,5.3196,5.2774,5.1471,5.1533,0.0,4.9082,0.0,4.6937,4.6382,4.3467,4.2548,0.0,3.9935,0.0,0.0,0.0,0.0,0.0,0.0,0.0,0.0,4.9372,0.0,5.2661,5.6401,5.8992,6.0396,6.0671,6.0806,6.0806,6.0806,6.0806,6.0806,6.0806,6.0806,6.0806,6.0806,6.0806,6.0806,6.0806,6.0806,6.0806,6.0806,6.0806,6.0806,5.7909,5.7774,5.7589,5.7589,5.7589,5.7425,5.6964,5.7528,5.7839,5.7376,5.7714,5.7997,5.7997,5.7997,0.0,5.7364,5.7738,5.7797,5.7333,5.7738,5.7997,5.7997,5.7997,5.7874,5.7589,5.7147,0.0,5.5348,5.2648,5.1897,5.298,5.3365,5.5398,5.88,5.9627,5.9992,6.0012,6.0575,6.0806,6.0806,6.0806,6.0806,6.0806,6.0806,6.0806,6.0806,6.0806,6.0806,6.0734,6.0257,5.98,5.931,5.8845,5.8383,5.7997,5.7997,5.7997,5.7997,5.7997,5.7997,5.7997,5.7997,5.7611,5.7171,5.6866,5.5556,5.4399,5.4399,5.3765,5.3196,5.3196,5.3196,5.3196,5.3196,5.2576,5.1868,5.1189,4.9835,4.827,0.0,0.0,0.0,0.0,4.3297,4.1614,0.0,0.0,0.0,0.0,0.0,4.3185,4.5449,5.1647,5.5009,5.5115,5.753,5.9435,6.0806,6.0806,6.0702,6.0546,6.0708,6.0806,6.0806,6.0806,6.0806,6.0806,6.0806,6.0806,6.0806,6.0806,6.0806,6.0806,6.0806,6.0806,6.0806,5.7997,5.7437,5.6976,5.6976,5.6976,5.6976,5.6976,5.7565,5.7997,5.7997,5.7997,5.7997,5.7997,5.7997,5.7997,5.7997,0.0,0.0,5.7997,5.7997,5.7997,5.7997,5.7997,5.7691,5.6989,5.6997,5.6315,5.4839,5.5254,5.622,5.7721,5.855,5.9179,5.9627,6.0441,6.0806,6.0806,6.0806,6.0806,6.0806,6.0806,6.0806,6.0806,6.0806,6.0806,6.0806,6.0806,6.0806,6.074,6.0304,5.9823,5.9319,5.8894,5.8397,5.7997,5.7997,5.7997,5.7997,5.7997,5.7997,5.7997,5.7997,5.7997,5.7795,5.706,5.5684,5.4546,5.4491,5.3849,5.3269,5.3214,5.3196,5.3196,5.3196,5.2576,5.1868,5.1189,4.9928,4.751,4.3338,0.0,0.0,4.291,4.3977,4.6005,0.0,0.0,5.0472,5.0472,0.0,4.4376,5.2929,5.4861,5.6573,5.8269,5.9108,5.9935,6.0806,6.0806,6.0572,6.0161,6.061,6.0806,6.0806,6.0806,6.0806,6.0806,6.0806,6.0806,6.0806,6.0806,6.0806,6.0806,6.0806,6.0806,6.0806,0.0,0.0,5.7738,5.7738,5.7738,5.7738,5.7738,5.7886,5.7997,5.7997,5.7997,5.7997,5.7997,5.7997,5.7997,5.7997,5.7997,5.7997,5.7997,5.7997,5.7997,5.7997,5.7997,5.7909,5.7738,5.8087,5.7975,5.7357,5.7755,5.8167,5.8594,5.9122,5.9755,6.0498,6.0704,6.0806,6.0806,6.0806,6.0806,6.0806,6.0806,6.0806,6.0806,6.0806,6.0806,6.0806,6.0806,6.0806,6.0775,6.0678,6.0077,5.9372,5.9276,5.8673,5.7997,5.7997,5.7997,5.7997,5.7997,5.7997,5.7997,5.7997,5.7997,5.7941,5.7758,5.695,5.6069,5.5438,5.4675,5.394,5.3306,5.3196,5.3196,5.3196,5.2576,5.1868,5.1189,5.0796,4.9981,4.8377,4.8679,4.901,4.901,4.9191,4.8421,0.0,0.0,4.7058,4.7058,4.6335,4.8154,5.305,5.5172,5.6912,5.8294,5.9108,5.9935,6.0806,6.0806,6.0746,6.0634,6.0752,6.0806,6.0806,6.0806,6.0806,6.0806,6.0806,6.0806,6.0806,6.0806,6.0806,6.0806,6.0806,6.0806,6.0806,5.7997,5.7997,5.7997,5.7997,5.7997,5.7997,5.7997,5.7997,5.7997,5.7997,5.7997,5.8081,5.8304,5.8318,5.8407,5.8621,5.8249,5.7997,5.7997,5.7997,5.7997,5.7997,5.8213,5.8318,5.8318,5.8766,5.9041,5.9069,5.9295,5.9528,5.9766,5.9999,6.0339,6.0806,6.0806,6.0806,6.0806,6.0806,6.0806,6.0806,6.0806,6.0806,6.0806,6.0806,6.0806,6.0806,6.0806,6.0806,6.0763,6.0553,6.0003,5.9354,5.9149,5.858,5.7997,5.7997,5.7997,5.7997,5.7997,5.7997,5.7997,5.7997,5.7997,5.7997,5.7997,5.7373,5.6682,5.6235,5.5225,5.4271,5.382,5.3453,5.3196,5.3196,5.2576,5.1964,5.1606,5.1292,5.0955,5.054,5.1138,5.1556,5.1556,5.181,5.1053,4.8868,4.9027,0.0,4.9501,5.0367,5.1769,5.3729,5.5487,5.7009,5.8294,5.9492,6.0229,6.0482,6.0696,6.069,6.0489,6.0702,6.0806,6.0806,6.0806,6.0806,6.0806,6.0806,6.0806,6.0806,6.0806,6.0806,6.0806,6.0806,6.0806,6.0806,5.7997,5.7997,5.7997,5.7997,5.7997,5.7997,5.7997,5.7997,5.8031,5.8104,5.8115,5.8275,5.8755,5.8814,5.898,5.9373,5.8664,5.8213,5.8213,5.8213,5.8213,5.8213,5.8591,5.8814,5.8814,5.9276,5.9733,6.0215,6.0215,6.0411,6.0806,6.0806,6.0806,6.0806,6.0806,6.0806,6.0806,6.0806,6.0806,6.0806,6.0806,6.0806,6.0806,6.0806,6.0806,6.0806,6.0806,6.0752,6.0634,6.0236,5.9741,5.9212,5.8825,5.8383,5.7997,5.7997,5.7997,5.7997,5.7997,5.7997,5.7997,5.7997,5.7997,5.7997,5.7997,5.7464,5.6939,5.6829,5.5629,5.4546,5.4418,5.3728,5.3049,5.2535,5.2345,5.2073,5.1463,5.1393,5.1386,5.1266,5.1844,5.2259,5.2259,5.2831,5.3196,5.3196,5.3196,5.338,5.3777,5.4246,5.4591,5.4775,5.6028,5.7328,5.866,6.0089,6.061,6.0215,6.0616,6.0584,6.0222,6.0622,6.0806,6.0806,6.0806,6.0806,6.0806,6.0806,6.0806,6.0806,6.0806,6.0806,6.0806,6.0806,6.0806,6.0806,5.7997,5.7997,5.7997,5.7997,5.7997,5.7997,5.7997,5.7997,5.8153,5.8547,5.8591,5.8775,5.923,5.9284,5.931,5.9389,5.9276,5.9167,5.9167,5.9167,5.9167,5.9167,5.9239,5.9284,5.9284,5.9749,6.0229,6.069,6.069,6.0734,6.0806,6.0806,6.0806,6.0806,6.0806,6.0806,6.0806,6.0806,6.0806,6.0806,6.0806,6.0806,6.0806,6.0806,6.0806,6.0806,6.0806,6.0546,6.0208,6.0125,5.9517,5.8804,5.8725,5.8383,5.7997,5.7997,5.7997,5.7997,5.7997,5.7997,5.7997,5.7997,5.7997,5.7997,5.7997,5.7905,5.7611,5.6939,5.6051,5.5218,5.4528,5.3728,5.2297,4.9507,5.1289,5.1872,4.8525,5.0824,5.264,5.203,5.2595,5.3031,5.3031,5.3124,5.3196,5.3196,5.3196,5.338,5.3777,5.4246,5.4996,5.6061,5.734,5.8773,6.0396,6.0671,6.0757,6.069,6.0763,6.0757,6.0696,6.0763,6.0806,6.0806,6.0806,6.0806,6.0806,6.0806,6.0806,6.0806,6.0806,6.0806,6.0806,6.0806,6.0806,6.0806,5.8383,5.8168,5.7997,5.7997,5.7997,5.7997,5.7997,5.8205,5.8442,5.8664,5.8932,5.9267,5.9725,5.9773,5.9878,6.0132,6.0154,6.0154,6.0154,5.9685,5.9389,5.9389,5.9644,5.9893,6.0146,6.0377,6.0578,6.0806,6.0806,6.0806,6.0806,6.0806,6.0806,6.0806,6.0806,6.0806,6.0806,6.0806,6.0806,6.0806,6.0806,6.0806,6.0806,6.0806,6.0806,6.0806,6.0806,6.0495,6.0055,5.9816,5.9276,5.8662,5.8397,5.8168,5.7997,5.7997,5.7997,5.7997,5.7997,5.7997,5.7997,5.7997,5.7997,5.7997,5.7997,5.7997,5.7886,5.7519,5.6804,5.5996,5.5199,5.4399,5.3214,5.1251,5.2205,5.255,5.0731,5.2037,5.3063,5.2718,5.298,5.3196,5.3196,5.3196,5.3285,5.3505,5.3525,5.3814,5.4473,5.4716,5.5178,5.5992,5.7924,5.9319,6.0089,6.0575,6.0806,6.0806,6.0806,6.0806,6.0806,6.0806,6.0806,6.0806,6.0806,6.0806,6.0806,6.0806,6.0806,6.0806,6.0806,6.0806,6.0806,6.0806,6.0806,6.0806,5.8694,5.8318,5.7997,5.7997,5.8085,5.8157,5.8157,5.8549,5.8903,5.9009,5.9328,5.9741,6.0215,6.0257,6.0411,6.0763,6.0806,6.0806,6.0806,6.0132,5.9725,5.9725,6.0062,6.043,6.08,6.0806,6.0806,6.0806,6.0806,6.0806,6.0806,6.0806,6.0806,6.0806,6.0806,6.0806,6.0806,6.0806,6.0806,6.0806,6.0806,6.0806,6.0806,6.0806,6.0806,6.0794,6.0684,6.0338,5.987,5.9408,5.8932,5.8463,5.8108,5.7997,5.7997,5.7997,5.7997,5.7997,5.7997,5.7997,5.7997,5.7997,5.7997,5.7997,5.7997,5.7997,5.7997,5.7997,5.7373,5.6535,5.575,5.4932,5.3885,5.2315,5.27,5.2962,5.2324,5.2878,5.338,5.3492,5.3502,5.3502,5.3502,5.3502,5.3633,5.3932,5.3959,5.4303,5.5055,5.5088,5.5383,5.5986,5.7896,5.9011,5.9223,6.0069,6.0498,6.0498,6.0704,6.0806,6.0806,6.0806,6.0806,6.0806,6.0806,6.0806,6.0806,6.0806,6.0806,6.0806,6.0806,6.0806,6.0806,6.0806,6.0806,6.0806,5.8694,5.8318,5.7997,5.7997,5.8362,5.8652,5.8652,5.9047,5.9492,5.9931,6.0025,6.0229,6.0696,6.0752,6.0757,6.08,6.0806,6.0806,6.0806,6.074,6.0696,6.0696,6.074,6.0763,6.0806,6.0806,6.0806,6.0806,6.0806,6.0806,6.0806,6.0806,6.0806,6.0806,6.0806,6.0806,6.0806,6.0806,6.0806,6.0806,6.0806,6.0806,6.0806,6.0806,6.0806,6.0746,6.0311,5.9855,5.9372,5.8913,5.8439,5.8047,5.802,5.7997,5.7997,5.7997,5.7997,5.7997,5.7997,5.7997,5.7997,5.7997,5.7997,5.7997,5.7997,5.7997,5.7997,5.7997,5.7373,5.6535,5.575,5.4932,5.3151,4.9287,5.1214,5.2297,4.9675,5.1878,5.3924,5.4357,5.4406,5.4406,5.4406,5.4406,5.4423,5.4455,5.4455,5.4632,5.5068,5.5088,5.5657,5.6876,5.7093,5.7574,5.8377,5.9184,5.9608,5.9608,6.0416,6.0806,6.0806,6.0806,6.0806,6.0806,6.0806,6.0806,6.0806,6.0806,6.0806,6.0806,6.0806,6.0806,6.0806,6.0806,6.0806,6.0806,5.9578,5.9195,5.8864,5.8864,5.9009,5.914,5.914,5.9526,5.9927,6.0188,6.0406,6.0632,6.091,6.0856,6.0806,6.0806,6.0806,6.0806,6.0806,6.0806,6.0806,6.0806,6.0806,6.0806,6.0806,6.0806,6.0806,6.0806,6.0806,6.0806,6.0806,6.0806,6.0806,6.0806,6.0806,6.0806,6.0806,6.0806,6.0806,6.0806,6.0806,6.0806,6.0806,6.0806,6.0622,6.0338,6.0161,5.962,5.8951,5.8765,5.8386,5.7997,5.7997,5.7997,5.7997,5.7997,5.7997,5.7997,5.7997,5.7648,5.7373,5.7886,5.7611,5.7391,5.7886,5.7997,5.7997,5.7997,5.7758,5.7152,5.5842,5.5346,5.4308,5.1746,5.26,5.3198,5.2129,5.328,5.4297,5.4487,5.4503,5.4503,5.4503,5.4503,5.4594,5.484,5.4862,5.5041,5.5441,5.5477,5.5689,5.6184,5.6189,5.6882,5.8294,5.9108,5.9492,5.9511,6.0377,6.0806,6.0806,6.0806,6.0806,6.0806,6.0806,6.0806,6.0806,6.0806,6.0806,6.0806,6.0806,6.0806,6.0806,6.0806,6.0806,6.0806,6.011,5.9717,5.9389,5.9389,5.9509,5.9631,5.9671,6.0083,6.0416,6.0514,6.0715,6.0887,6.093,6.0853,6.0806,6.0806,6.0806,6.0806,6.0806,6.0806,6.0806,6.0806,6.0806,6.0806,6.0806,6.0806,6.0806,6.0806,6.0806,6.0806,6.0806,6.0806,6.0806,6.0806,6.0806,6.0806,6.0806,6.0806,6.0806,6.0806,6.0806,6.0806,6.0806,6.0806,6.0502,6.0077,5.9931,5.9363,5.8674,5.8537,5.8271,5.7997,5.7997,5.7997,5.7997,5.7997,5.7997,5.7997,5.7997,5.7409,5.6987,5.7795,5.7409,5.7012,5.7813,5.7997,5.7997,5.7997,5.7795,5.7207,5.586,5.5506,5.4978,5.3603,5.3749,5.4066,5.4194,5.45,5.475,5.4855,5.4888,5.4888,5.4888,5.4888,5.4993,5.5275,5.5294,5.5411,5.5698,5.5708,5.5708,5.5708,5.5978,5.6689,5.7877,5.8704,5.9261,5.9511,6.0377,6.0806,6.0806,6.0806,6.0806,6.0806,6.0806,6.0806,6.0806,6.0806,6.0806,6.0806,6.0806,6.0806,6.0806,6.0806,6.0806,6.0806,6.011,5.9725,5.9407,5.9407,5.9808,6.0149,6.0284,6.0707,6.1001,6.1001,6.1001,6.0944,6.0821,6.0806,6.0806,6.0806,6.0806,6.0806,6.0806,6.0806,6.0806,6.0806,6.0806,6.0806,6.0806,6.0806,6.0806,6.0806,6.0806,6.0806,6.0806,6.0806,6.0806,6.0806,6.0806,6.0806,6.0806,6.0806,6.0806,6.0806,6.0806,6.0806,6.0806,6.0806,6.0502,6.0033,5.9578,5.9103,5.8632,5.8164,5.8008,5.8008,5.8008,5.8008,5.8008,5.7997,5.7997,5.7997,5.7997,5.7409,5.6987,5.7795,5.7409,5.7012,5.7813,5.7997,5.7997,5.7997,5.7373,5.6547,5.5732,5.5274,5.4727,5.3935,5.4196,5.4632,5.5041,5.5095,5.5244,5.5651,5.5708,5.5708,5.5708,5.5708,5.5708,5.5708,5.5708,5.5708,5.5708,5.5708,5.5708,5.5708,5.6555,5.7003,5.7003,5.7877,5.8698,5.9511,6.0377,6.0806,6.0806,6.0806,6.0806,6.0806,6.0806,6.0806,6.0806,6.0806,6.0806,6.0806,6.0806,6.0806,6.0806,6.0806,6.0806,6.0806,6.0584,6.0482,6.0371,6.0371,6.0571,6.0744,6.0785,6.0918,6.1056,6.1197,6.1015,6.0887,6.094,6.0853,6.0806,6.0806,6.0806,6.0806,6.0806,6.0806,6.0806,6.0806,6.0806,6.0806,6.0806,6.0806,6.0806,6.0806,6.0806,6.0806,6.0806,6.0806,6.0806,6.0806,6.0806,6.0806,6.0806,6.0806,6.0806,6.0806,6.0806,6.0806,6.0806,6.0806,6.0291,5.9595,5.9441,5.8894,5.819,5.8047,5.8224,5.8484,5.8484,5.8484,5.8429,5.8104,5.7997,5.7997,5.7997,5.7409,5.6987,5.7795,5.7409,5.7012,5.7813,5.7997,5.7831,5.7281,5.6957,5.6474,5.538,5.5077,5.4848,5.4369,5.4648,5.4966,5.5075,5.5337,5.5571,5.5698,5.5708,5.5708,5.5708,5.5708,5.5708,5.5708,5.5708,5.5708,5.5708,5.5708,5.5708,5.5708,5.6555,5.7286,5.7915,5.8723,5.9261,5.9511,6.0377,6.0806,6.0806,6.0806,6.0806,6.0806,6.0806,6.0806,6.0806,6.0806,6.0806,6.0806,6.0806,6.0806,6.0806,6.0806,6.0806,6.0806,6.0806,6.0806,6.0821,6.0866,6.0895,6.0978,6.1101,6.1056,6.1048,6.1172,6.1,6.0888,6.0925,6.0856,6.0806,6.0806,6.0806,6.0806,6.0806,6.0806,6.0806,6.0806,6.0806,6.0806,6.0806,6.0806,6.0806,6.0806,6.0806,6.0806,6.0806,6.0806,6.0806,6.0806,6.0806,6.0806,6.0806,6.0806,6.0806,6.0806,6.0806,6.0806,6.0806,6.0806,6.0331,5.9652,5.9477,5.9037,5.8526,5.834,5.8591,5.8971,5.8971,5.8971,5.8884,5.8418,5.8282,5.8227,5.8047,5.7648,5.7391,5.7886,5.7409,5.7012,5.7813,5.7758,5.7429,5.7099,5.6533,5.5916,5.5379,5.5151,5.4975,5.4761,5.5068,5.5331,5.5331,5.5554,5.5708,5.5708,5.5708,5.5708,5.5708,5.5708,5.5708,5.5708,5.5708,5.5708,5.5708,5.5708,5.5708,5.5708,5.6555,5.742,5.8294,5.9108,5.9665,6.0012,6.055,6.0614,6.0281,6.0281,6.0281,6.0281,6.0281,6.0473,6.0806,6.0806,6.0806,6.0806,6.0806,6.0806,6.0806,6.0806,6.0806,6.0806,6.0806,6.0806,6.0834,6.0968,6.0888,6.0923,6.1237,6.1128,6.1001,6.1001,6.0984,6.094,6.0816,6.0806,6.0806,6.0806,6.0806,6.0806,6.0806,6.0806,6.0806,6.0806,6.0806,6.0806,6.0806,6.0806,6.0806,6.0806,6.0806,6.0806,6.0806,6.0806,6.0806,6.0806,6.0806,6.0806,6.0806,6.0806,6.0806,6.0806,6.0806,6.0806,6.0806,6.0806,6.0482,5.9996,5.9611,5.9398,5.9275,5.8951,5.9112,5.9458,5.9458,5.9458,5.9363,5.8903,5.8709,5.8542,5.8135,5.7972,5.7906,5.7906,5.7354,5.7011,5.7764,5.7412,5.698,5.7199,5.6078,5.5183,5.5575,5.5346,5.5101,5.5153,5.5472,5.5708,5.5708,5.5708,5.5708,5.5708,5.5708,5.5708,5.5708,5.5662,5.564,5.5594,5.5693,5.5767,5.5767,5.5865,5.5939,5.5939,5.6709,5.7497,5.8294,5.9031,5.9877,6.0806,6.0806,6.0339,5.9492,5.9588,5.9569,5.9492,5.9588,6.0069,6.0806,6.0806,6.0806,6.0806,6.0806,6.0806,6.0806,6.0806,6.0806,6.0806,6.0806,6.0806,6.0804,6.0834,6.09,6.0976,6.1056,6.1031,6.1001,6.1001,6.0905,6.0823,6.0793,6.0806,6.0806,6.0806,6.0806,6.0806,6.0806,6.0806,6.0806,6.0806,6.0806,6.0806,6.0806,6.0806,6.0806,6.0806,6.0806,6.0806,6.0806,6.0806,6.0806,6.0806,6.0806,6.0806,6.0806,6.0806,6.0806,6.0806,6.0806,6.0806,6.0806,6.0806,6.0271,5.9595,5.9855,5.9485,5.8961,5.9568,5.987,5.9939,5.9939,5.9939,5.9862,5.9399,5.8751,5.8207,5.8118,5.7622,5.7135,5.7135,5.7003,5.6986,5.7428,5.7685,5.748,5.6308,5.5789,5.5478,5.5275,5.5149,5.5199,5.5512,5.5646,5.5708,5.5708,5.5708,5.5708,5.5708,5.5708,5.5708,5.5708,5.5417,5.5088,5.4775,5.5683,5.625,5.625,5.7193,5.7742,5.7742,5.7915,5.8107,5.8294,5.8467,5.9319,6.0806,6.0806,6.0339,5.9511,6.0204,6.0146,5.955,6.0223,6.0633,6.0806,6.0806,6.0806,6.0806,6.0806,6.0806,6.0806,6.0806,6.0806,6.0806,6.0806,6.0806,6.0814,6.0873,6.0909,6.092,6.0984,6.0959,6.09,6.09,6.0845,6.0806,6.0806,6.0806,6.0806,6.0806,6.0806,6.0806,6.0806,6.0806,6.0806,6.0806,6.0806,6.0806,6.0806,6.0806,6.0806,6.0806,6.0806,6.0806,6.0806,6.0806,6.0806,6.0806,6.0806,6.0806,6.0806,6.0806,6.0806,6.0806,6.0806,6.0806,6.0806,6.0806,6.0495,6.0062,6.0084,5.9781,5.9485,6.0182,6.043,6.043,6.043,6.043,6.0338,5.987,5.911,5.8391,5.8151,5.7508,5.6888,5.6888,5.7081,5.7216,5.7161,5.7062,5.6762,5.6118,5.567,5.5415,5.5383,5.5393,5.5466,5.5662,5.5708,5.5708,5.5708,5.5708,5.5708,5.5708,5.5708,5.5616,5.5429,5.5048,5.4975,5.5378,5.6028,5.667,5.727,5.7945,5.8294,5.8294,5.7896,5.7877,5.8294,5.7896,5.8338,5.9608,5.9992,5.9935,5.9511,5.9973,5.9935,5.9531,5.9973,6.0416,6.0806,6.0806,6.0806,6.0806,6.0806,6.0806,6.0806,6.0806,6.0806,6.0806,6.0806,6.0806,6.0847,6.094,6.0871,6.0834,6.0944,6.0866,6.0806,6.0806,6.0806,6.0806,6.0806,6.0806,6.0806,6.0806,6.0806,6.0806,6.0806,6.0806,6.0806,6.0806,6.0806,6.0806,6.0806,6.0806,6.0806,6.0806,6.0806,6.0806,6.0806,6.0806,6.0806,6.0806,6.0806,6.0806,6.0806,6.0806,6.0806,6.0806,6.0806,6.0806,6.0806,6.0806,6.0752,6.0615,6.0159,5.9993,6.008,6.0621,6.0806,6.0806,6.0806,6.0806,6.0714,6.0331,5.9509,5.863,5.823,5.7437,5.6683,5.6683,5.6988,5.7172,5.6789,5.6291,5.597,5.617,5.567,5.5306,5.564,5.5708,5.5708,5.5708,5.5708,5.5708,5.5708,5.5708,5.5708,5.5708,5.5646,5.5435,5.5034,5.4705,5.4912,5.5891,5.6222,5.6913,5.8112,5.8387,5.8569,5.8723,5.7882,5.7709,5.8294,5.744,5.7363,5.8088,5.8896,5.93,5.93,5.9588,5.9646,5.9511,5.9665,6.0127,6.0806,6.0806,6.0806,6.0806,6.0806,6.0806,6.0806,6.0806,6.0806,6.0806,6.0806,6.0806,6.0818,6.0819,6.081,6.0818,6.0819,6.081,6.0806,6.0806,6.0806,6.0806,6.0806,6.0806,6.0806,6.0806,6.0806,6.0806,6.0806,6.0806,6.0806,6.0806,6.0806,6.0806,6.0806,6.0806,6.0806,6.0806,6.0806,6.0806,6.0806,6.0806,6.0806,6.0806,6.0806,6.0806,6.0806,6.0806,6.0806,6.0806,6.0806,6.0806,6.0806,6.0806,6.0553,6.0141,5.9727,5.9582,5.9703,6.0519,6.0806,6.0806,6.0806,6.0806,6.0794,6.0714,5.9601,5.836,5.8293,5.7092,5.5863,5.5863,5.5917,5.5939,5.5875,5.6368,5.6635,5.5926,5.5682,5.564,5.5678,5.5708,5.5708,5.5708,5.5708,5.5708,5.5708,5.5708,5.5708,5.5708,5.5399,5.5021,5.4609,5.4535,5.4392,5.4163,5.5549,5.6788,5.7649,5.873,5.9685,6.0441,5.9627,5.8877,5.8313,5.744,5.706,5.719,5.805,5.8467,5.8511,5.9954,6.0204,5.955,6.03,6.0691,6.0806,6.0806,6.0806,6.0806,6.0806,6.0806,6.0806,6.0806,6.0806,6.0806,6.0821,6.0864,6.0883,6.0816,6.0806,6.0806,6.0806,6.0806,6.0806,6.0806,6.0806,6.0806,6.0806,6.0806,6.0806,6.0806,6.0806,6.0806,6.0806,6.0806,6.0806,6.0806,6.0806,6.0806,6.0806,6.0806,6.0806,6.0806,6.0806,6.0806,6.0806,6.0806,6.0806,6.0806,6.0806,6.0806,6.0806,6.0806,6.0806,6.0806,6.0806,6.0806,6.0806,6.0806,6.0371,5.9677,5.9056,5.9127,5.9569,5.9935,6.0396,6.0806,6.0806,6.0806,6.0806,6.0806,5.9608,5.8294,5.8294,5.703,5.5708,5.5708,5.5708,5.5708,5.5708,5.5997,5.6151,5.5785,5.5708,5.5708,5.5708,5.5708,5.5708,5.5708,5.5708,5.5708,5.5708,5.5708,5.5708,5.5708,5.5337,5.5028,5.484,5.4625,5.4716,5.5213,5.5969,5.7065,5.8591,5.9192,5.9896,6.0762,5.9954,5.9102,5.8313,5.744,5.6766,5.6285,5.7151,5.805,5.9011,6.0242,6.0589,6.0242,6.0633,6.0806,6.0806,6.0806,6.0806,6.0806,6.0806,6.0806,6.0806,6.0806,6.0806,6.0806]}]]